[[{"header":{"parameterUnit":"m.s-1","parameterCategory":1,"la1":31.0,"la2":29.5877,"lo1":-88.7671,"lo2":-86.6584,"dy":0.0162,"dx":0.0185,"nx":115,"ny":88,"refTime":"2023-06-01T06:00:00:Z","depth":0,"parameterNumber":2,"parameterNumberName":"U-component_of_WINDS"},"data":[0.0,0.0,0.0,0.0,0.0,0.0,0.0,0.0,0.0,0.0,0.0,0.0,0.0,0.0,0.0,0.0,0.0,0.0,0.0,0.0,0.0,0.0,0.0,0.0,0.0,0.0,0.0,0.0,0.0,0.0,0.0,0.0,0.0,0.0,0.0,0.0,0.0,0.0,0.0,0.0,0.0,0.0,0.0,0.0,0.0,0.0,0.0,0.0,0.0,0.0,0.0,0.0,0.0,0.0,0.0,0.0,0.0,0.0,0.0,0.0,0.0,0.0,0.0,0.0,0.0,0.0,0.0,0.0,0.0,0.0,0.0,0.0,0.0,0.0,0.0,0.0,0.0,0.0,0.0,0.0,0.0,0.0,0.0,0.0,0.0,0.0,0.0,0.0,0.0,0.0,0.0,0.0,0.0,0.0,0.0,0.0,0.0,0.0,0.0,0.0,0.0,0.0,0.0,0.0,0.0,0.0,0.0,0.0,0.0,0.0,0.0,0.0,0.0,0.0,0.0,0.0,0.0,0.0,0.0,0.0,0.0,0.0,0.0,0.0,0.0,0.0,0.0,0.0,0.0,0.0,0.0,0.0,0.0,0.0,0.0,0.0,0.0,0.0,0.0,0.0,0.0,0.0,0.0,0.0,0.0,0.0,0.0,0.0,0.0,0.0,0.0,0.0,0.0,0.0,0.0,0.0,0.0,0.0,0.0,0.0,0.0,0.0,0.0,0.0,0.0,0.0,0.0,0.0,0.0,0.0,0.0,0.0,0.0,0.0,0.0,0.0,0.0,0.0,0.0,0.0,0.0,0.0,0.0,0.0,0.0,0.0,0.0,0.0,0.0,0.0,0.0,0.0,0.0,0.0,0.0,0.0,0.0,0.0,0.0,0.0,0.0,0.0,0.0,0.0,0.0,0.0,0.0,0.0,0.0,0.0,0.0,0.0,0.0,0.0,0.0,0.0,0.0,0.0,0.0,0.0,0.0,0.0,0.0,0.0,0.0,0.0,0.0,0.0,0.0,0.0,0.0,0.0,0.0,0.0,0.0,0.0,0.0,0.0,0.0,0.0,0.0,0.0,0.0,0.0,0.0,0.0,0.0,0.0,0.0,0.0,0.0,0.0,0.0,0.0,0.0,0.0,0.0,0.0,0.0,0.0,0.0,0.0,0.0,0.0,0.0,0.0,0.0,0.0,0.0,0.0,0.0,0.0,0.0,0.0,0.0,0.0,0.0,0.0,0.0,0.0,0.0,0.0,0.0,0.0,0.0,0.0,0.0,0.0,0.0,0.0,0.0,0.0,0.0,0.0,0.0,0.0,0.0,0.0,0.0,0.0,0.0,0.0,0.0,0.0,0.0,0.0,0.0,0.0,0.0,0.0,0.0,0.0,0.0,0.0,0.0,0.0,0.0,0.0,0.0,0.0,0.0,0.0,0.0,0.0,0.0,0.0,0.0,0.0,0.0,0.0,0.0,0.0,0.0,0.0,0.0,0.0,0.0,0.0,0.0,0.0,0.0,0.0,0.0,0.0,0.0,0.0,0.0,0.0,0.0,0.0,0.0,0.0,0.0,0.0,0.0,0.0,0.0,0.0,0.0,0.0,0.0,0.0,0.0,0.0,0.0,0.0,0.0,0.0,0.0,0.0,0.0,0.0,0.0,0.0,0.0,0.0,0.0,0.0,0.0,0.0,0.0,0.0,0.0,0.0,0.0,0.0,0.0,0.0,0.0,0.0,0.0,0.0,0.0,0.0,0.0,0.0,0.0,0.0,0.0,0.0,0.0,0.0,0.0,0.0,0.0,0.0,0.0,0.0,0.0,0.0,0.0,0.0,0.0,0.0,0.0,0.0,0.0,0.0,0.0,0.0,0.0,0.0,0.0,0.0,0.0,0.0,0.0,0.0,0.0,0.0,0.0,0.0,0.0,0.0,0.0,0.0,0.0,0.0,0.0,0.0,0.0,0.0,0.0,0.0,0.0,0.0,0.0,0.0,0.0,0.0,0.0,0.0,0.0,0.0,0.0,0.0,0.0,0.0,0.0,0.0,0.0,0.0,0.0,0.0,0.0,0.0,0.0,0.0,0.0,0.0,0.0,0.0,0.0,0.0,0.0,0.0,0.0,0.0,0.0,0.0,0.0,0.0,0.0,0.0,0.0,0.0,0.0,0.0,0.0,0.0,0.0,0.0,0.0,0.0,0.0,0.0,0.0,0.0,0.0,0.0,0.0,0.0,0.0,0.0,0.0,0.0,0.0,0.0,0.0,0.0,0.0,0.0,0.0,0.0,0.0,0.0,0.0,0.0,0.0,0.0,0.0,0.0,0.0,0.0,0.0,0.0,0.0,0.0,0.0,0.0,0.0,0.0,0.0,0.0,0.0,0.0,0.0,0.0,0.0,0.0,0.0,0.0,0.0,0.0,0.0,0.0,0.0,0.0,0.0,0.0,0.0,0.0,0.0,0.0,0.0,0.0,0.0,0.0,0.0,0.0,0.0,0.0,0.0,0.0,0.0,0.0,0.0,0.0,0.0,0.0,0.0,0.0,0.0,0.0,0.0,0.0,0.0,0.0,0.0,0.0,0.0,0.0,0.0,0.0,0.0,0.0,0.0,0.0,0.0,0.0,0.0,0.0,0.0,0.0,0.0,0.0,0.0,0.0,0.0,0.0,0.0,0.0,0.0,0.0,0.0,0.0,0.0,0.0,0.0,0.0,0.0,0.0,0.0,0.0,0.0,0.0,0.0,0.0,0.0,0.0,0.0,0.0,0.0,0.0,0.0,0.0,0.0,0.0,0.0,0.0,0.0,0.0,0.0,0.0,0.0,0.0,0.0,0.0,0.0,0.0,0.0,0.0,0.0,0.0,0.0,0.0,0.0,0.0,0.0,0.0,0.0,0.0,0.0,0.0,0.0,0.0,0.0,0.0,0.0,0.0,0.0,0.0,0.0,0.0,0.0,0.0,0.0,0.0,0.0,0.0,0.0,0.0,0.0,0.0,0.0,0.0,0.0,0.0,0.0,0.0,0.0,0.0,0.0,0.0,0.0,0.0,0.0,0.0,0.0,0.0,0.0,0.0,0.0,0.0,0.0,0.0,0.0,0.0,0.0,0.0,0.0,0.0,0.0,0.0,0.0,0.0,0.0,0.0,0.0,0.0,0.0,0.0,0.0,0.0,0.0,0.0,0.0,0.0,0.0,0.0,0.0,0.0,0.0,0.0,0.0,0.0,0.0,0.0,0.0,0.0,0.0,0.0,0.0,0.0,0.0,0.0,0.0,0.0,0.0,0.0,0.0,0.0,0.0,0.0,0.0,0.0,0.0,0.0,0.0,0.0,0.0,0.0,0.0,0.0,0.0,0.0,0.0,0.0,0.0,0.0,0.0,0.0,0.0,0.0,0.0,0.0,0.0,0.0,0.0,0.0,0.0,0.0,0.0,0.0,0.0,0.0,0.0,0.0,0.0,0.0,0.0,0.0,0.0,0.0,0.0,0.0,0.0,0.0,0.0,0.0,0.0,0.0,0.0,0.0,0.0,0.0,0.0,0.0,0.0,0.0,0.0,0.0,0.0,0.0,0.0,0.0,0.0,0.0,0.0,0.0,0.0,0.0,0.0,0.0,0.0,0.0,0.0,0.0,0.0,0.0,0.0,0.0,0.0,0.0,0.0,0.0,0.0,0.0,0.0,0.0,0.0,0.0,0.0,0.0,0.0,0.0,0.0,0.0,0.0,0.0,0.0,0.0,0.0,0.0,0.0,0.0,0.0,0.0,0.0,0.0,0.0,0.0,0.0,0.0,0.0,0.0,0.0,0.0,0.0,0.0,0.0,0.0,0.0,0.0,0.0,0.0,0.0,0.0,0.0,0.0,0.0,0.0,0.0,0.0,0.0,0.0,0.0,0.0,0.0,0.0,0.0,0.0,0.0,0.0,0.0,0.0,0.0,0.0,0.0,0.0,0.0,0.0,0.0,0.0,0.0,0.0,0.0,0.0,0.0,0.0,0.0,0.0,0.0,0.0,0.0,0.0,0.0,0.0,0.0,0.0,0.0,0.0,0.0,0.0,0.0,0.0,0.0,0.0,0.0,0.0,0.0,0.0,0.0,0.0,0.0,0.0,0.0,0.0,0.0,0.0,0.0,0.0,0.0,0.0,0.0,0.0,0.0,0.0,0.0,0.0,0.0,0.0,0.0,0.0,0.0,0.0,0.0,0.0,0.0,0.0,0.0,0.0,0.0,0.0,0.0,0.0,0.0,0.0,0.0,0.0,0.0,0.0,0.0,0.0,0.0,0.0,1.3251,0.0,0.0,0.0,0.0,0.0,0.0,0.0,0.0,0.0,0.0,0.0,0.0,0.0,0.0,0.0,0.0,0.0,0.0,0.0,0.0,0.0,0.0,0.0,0.0,0.0,0.0,0.0,0.0,0.0,0.0,0.0,0.0,0.0,0.0,0.0,0.0,0.0,0.0,0.0,0.0,0.0,0.0,0.0,0.0,0.0,0.0,0.0,0.0,0.0,0.0,0.0,0.0,0.0,0.0,0.0,0.0,0.0,0.0,0.0,0.0,0.0,0.0,0.0,0.0,0.0,0.0,0.0,0.0,0.0,0.0,0.0,0.0,0.0,0.0,0.0,0.0,0.0,0.0,0.0,0.0,0.0,0.0,0.0,0.0,0.0,0.0,0.0,0.0,0.0,0.0,0.0,0.0,0.0,0.0,0.0,0.0,0.0,0.0,0.0,0.0,0.0,0.0,0.0,0.0,0.0,0.0,0.0,0.0,0.0,0.0,1.5223,1.4506,1.4115,1.3579,1.2861,0.0,0.0,0.0,0.0,0.0,0.0,0.0,0.0,0.0,0.0,0.0,0.0,0.0,0.0,0.0,0.0,0.0,0.0,0.0,0.0,0.0,0.0,0.0,0.0,0.0,0.0,0.0,0.0,0.0,0.0,0.0,0.0,0.0,0.0,0.0,0.0,0.0,0.0,0.0,0.0,0.0,0.0,0.0,0.0,0.0,0.0,0.0,0.0,0.0,0.0,0.0,0.0,0.0,0.0,0.0,0.0,0.0,0.0,0.0,0.0,0.0,0.0,0.0,0.0,0.0,0.0,0.0,0.0,0.0,0.0,0.0,0.0,0.0,0.0,0.0,0.0,0.0,0.0,0.0,0.0,0.0,0.0,0.0,0.0,0.0,0.0,0.0,0.0,0.0,0.0,0.0,0.0,0.0,0.0,0.0,0.0,0.0,0.0,0.0,0.0,0.0,0.0,0.0,0.0,0.0,0.0,0.0,0.0,0.0,0.0,0.0,0.0,1.4083,1.335,1.2258,0.0,0.0,0.0,0.0,0.0,0.0,0.0,0.0,0.0,0.0,0.0,0.0,0.0,0.0,0.0,0.0,0.0,0.0,0.0,0.0,0.0,0.0,0.0,0.0,0.0,0.0,0.0,0.0,0.0,0.0,0.0,0.0,0.0,0.0,0.0,0.0,0.0,0.0,0.0,0.0,0.0,0.0,0.0,0.0,0.0,0.0,0.0,0.0,0.0,0.0,0.0,0.0,0.0,0.0,0.0,0.0,0.0,0.0,0.0,0.0,0.0,0.0,0.0,0.0,0.0,0.0,0.0,0.0,0.0,0.0,0.0,0.0,0.0,0.0,0.0,0.0,0.0,0.0,0.0,0.0,0.0,0.0,0.0,0.0,0.0,0.0,0.0,0.0,0.0,0.0,0.0,0.0,0.0,0.0,0.0,0.0,0.0,0.0,0.0,0.0,0.0,0.0,0.0,0.0,0.0,0.0,0.0,0.0,0.0,0.0,1.5212,1.4279,1.3729,0.0,1.1479,0.0,0.0,0.0,0.0,0.0,0.0,0.0,0.0,0.0,0.0,0.0,0.0,0.0,0.0,0.0,0.0,0.0,0.0,0.0,0.0,0.0,0.0,0.0,0.0,0.0,0.0,0.0,0.0,0.0,0.0,0.0,0.0,0.0,0.0,0.0,0.0,0.0,0.0,0.0,0.0,0.0,0.0,0.0,0.0,0.0,0.0,0.0,0.0,0.0,0.0,0.0,0.0,0.0,0.0,0.0,0.0,0.0,0.0,0.0,0.0,0.0,0.0,0.0,0.0,0.0,0.0,0.0,0.0,0.0,0.0,0.0,0.0,0.0,0.0,0.0,0.0,0.0,0.0,0.0,0.0,0.0,0.0,0.0,0.0,0.0,0.0,0.0,0.0,0.0,0.0,0.0,0.0,0.0,0.0,0.0,0.0,0.0,0.0,0.0,0.0,0.0,0.0,0.0,0.0,0.0,0.0,0.0,0.0,0.0,0.0,1.5762,1.4437,1.3026,1.1852,0.0,0.0,0.0,0.0,0.0,0.0,0.0,0.0,0.0,0.0,0.0,0.0,0.0,0.0,0.0,0.0,0.0,0.0,0.0,0.0,0.0,0.0,0.0,0.0,0.0,0.0,0.0,0.0,0.0,0.0,0.0,0.0,0.0,0.0,0.0,0.0,0.0,0.0,0.0,0.0,0.0,0.0,0.0,0.0,0.0,0.0,0.0,0.0,0.0,0.0,0.0,0.0,0.0,0.0,0.0,0.0,0.0,0.0,0.0,0.0,0.0,0.0,0.0,0.0,0.0,0.0,0.0,0.0,0.0,0.0,0.0,0.0,0.0,0.0,0.0,0.0,0.0,0.0,0.0,0.0,0.0,0.0,0.0,0.0,0.0,0.0,0.0,0.0,0.0,0.0,0.0,0.0,0.0,0.0,0.0,0.0,0.0,0.0,0.0,0.0,0.0,0.0,0.0,0.0,0.0,0.0,0.0,0.0,0.0,0.0,1.6397,1.5957,1.4197,1.2404,1.1169,1.0687,0.0,0.0,0.0,0.0,0.0,0.0,0.0,0.0,0.0,0.0,0.0,0.0,0.0,0.0,0.0,0.0,0.0,0.0,0.0,0.0,0.0,0.0,0.0,0.0,0.0,0.0,0.0,0.0,0.0,0.0,0.0,0.0,0.0,0.0,0.0,0.0,0.0,0.0,0.0,0.0,0.0,0.0,0.0,0.0,0.0,0.0,0.0,0.0,0.0,0.0,0.0,0.0,0.0,0.0,0.0,0.0,0.0,0.0,0.0,0.0,0.0,0.0,0.0,0.0,0.0,0.0,0.0,0.0,0.0,0.0,0.0,0.0,0.0,0.0,0.0,0.0,0.0,0.0,0.0,0.0,0.0,0.0,0.0,0.0,0.0,0.0,0.0,0.0,0.0,0.0,0.0,0.0,0.0,0.0,0.0,0.0,0.0,0.0,0.0,0.0,0.0,0.0,0.0,0.0,0.0,0.0,0.0,0.0,0.0,1.5976,1.5344,1.3429,1.1942,1.1029,0.0,0.0,0.0,0.0,0.0,0.0,0.0,0.0,0.0,0.0,0.0,0.0,0.0,0.0,0.0,0.0,0.0,0.0,0.0,0.0,0.0,0.0,0.0,0.0,0.0,0.0,0.0,0.0,0.0,0.0,0.0,0.0,0.0,0.0,0.0,0.0,0.0,0.0,0.0,0.0,0.0,0.0,0.0,0.0,0.0,0.0,0.0,0.0,0.0,0.0,0.0,0.0,0.0,0.0,0.0,0.0,0.0,0.0,0.0,0.0,0.0,0.0,0.0,0.0,0.0,0.0,0.0,0.0,0.0,0.0,0.0,0.0,0.0,0.0,0.0,0.0,0.0,0.0,0.0,0.0,0.0,0.0,0.0,0.0,0.0,0.0,0.0,0.0,0.0,0.0,0.0,0.0,0.0,0.0,0.0,0.0,0.0,0.0,0.0,0.0,0.0,0.0,0.0,0.0,0.0,0.0,0.0,0.0,0.0,1.451,1.4225,1.3576,1.256,1.1432,1.0649,0.0,0.0,0.0,0.0,0.0,0.0,0.0,0.0,0.0,0.0,0.0,0.0,0.0,0.0,0.0,0.0,0.0,0.0,0.0,0.0,0.0,0.0,0.0,0.0,0.0,0.0,0.0,0.0,0.0,0.0,0.0,0.0,0.0,0.0,0.0,0.0,0.0,0.0,0.0,0.0,0.0,0.0,0.0,0.0,0.0,0.0,0.0,0.0,0.0,0.0,0.0,0.0,0.0,0.0,0.0,0.0,0.0,0.0,0.0,0.0,0.0,0.0,0.0,0.0,0.0,0.0,0.0,0.0,0.0,0.0,0.0,0.0,0.0,0.0,0.0,0.0,0.0,0.0,0.0,0.0,0.0,0.0,0.0,0.0,0.0,0.0,0.0,0.0,0.0,0.0,0.0,0.0,0.0,0.0,0.0,0.0,0.0,0.0,0.0,0.0,0.0,0.0,0.0,0.0,0.0,0.0,0.0,0.0,0.0,1.39,0.0,1.2446,0.0,1.1038,1.04,0.0,0.0,0.0,0.0,0.0,0.0,0.0,0.0,0.0,0.0,0.0,0.0,0.0,0.0,0.0,0.0,0.0,0.0,0.0,0.0,0.0,0.0,0.0,0.0,0.0,0.0,0.0,0.0,0.0,0.0,0.0,0.0,0.0,0.0,0.0,0.0,0.0,0.0,0.0,0.0,0.0,0.0,0.0,0.0,0.0,0.0,0.0,0.0,0.0,0.0,0.0,0.0,0.0,0.0,0.0,0.0,0.0,0.0,0.0,0.0,0.0,0.0,0.0,0.0,0.0,0.0,0.0,0.0,0.0,0.0,0.0,0.0,0.0,0.0,0.0,0.0,0.0,0.0,0.0,0.0,0.0,0.0,0.0,0.0,0.0,0.0,0.0,0.0,0.0,0.0,0.0,0.0,0.0,0.0,0.0,0.0,0.0,0.0,0.0,0.0,0.0,0.0,0.0,0.0,0.0,0.0,0.0,0.0,1.3838,1.3668,1.2771,1.2081,1.1762,1.0882,1.0273,0.0,0.0,0.0,0.0,0.0,0.0,0.0,0.0,0.0,0.0,0.0,0.0,0.0,0.0,0.0,0.0,0.0,0.0,0.0,0.0,0.0,0.0,0.0,0.0,0.0,0.0,0.0,0.0,0.0,0.0,0.0,0.0,0.0,0.0,0.0,0.0,0.0,0.0,0.0,0.0,0.0,0.0,0.0,0.0,0.0,0.0,0.0,0.0,0.0,0.0,0.0,0.0,0.0,0.0,0.0,0.0,0.0,0.0,0.0,0.0,0.0,0.0,0.0,0.0,0.0,0.0,0.0,0.0,0.0,0.0,0.0,0.0,0.0,0.0,0.0,0.0,0.0,0.0,0.0,0.0,0.0,0.0,0.0,0.0,0.0,0.0,0.0,0.0,0.0,0.0,0.0,0.0,0.0,0.0,0.0,0.0,0.0,0.0,0.0,0.0,0.0,0.0,0.0,0.0,0.0,0.0,0.0,0.0,0.0,1.2184,1.167,1.125,1.0823,1.042,1.0049,0.0,0.0,0.0,0.0,0.0,0.0,0.0,0.0,0.0,0.0,0.0,0.0,0.0,0.0,0.0,0.0,0.0,0.0,0.0,0.0,0.0,0.0,0.0,0.0,0.0,0.0,0.0,0.0,0.0,0.0,0.0,0.0,0.0,0.0,0.0,0.0,0.0,0.0,0.0,0.0,0.0,0.0,0.0,0.0,0.0,0.0,0.0,0.0,0.0,0.0,0.0,0.0,0.0,0.0,0.0,0.0,0.0,0.0,0.0,0.0,0.0,0.0,0.0,0.0,0.0,0.0,0.0,0.0,0.0,0.0,0.0,0.0,0.0,0.0,0.0,0.0,0.0,0.0,0.0,0.0,0.0,0.0,0.0,0.0,0.0,0.0,0.0,0.0,0.0,0.0,0.0,0.0,0.0,0.0,0.0,0.0,0.0,0.0,0.0,0.0,0.0,0.0,0.0,0.0,0.0,0.0,0.0,0.0,0.0,1.118,1.0943,1.0687,1.0302,1.004,0.9823,0.9576,0.0,0.0,0.0,0.0,0.0,0.0,0.0,0.0,0.0,0.0,0.0,0.0,0.0,0.0,0.0,0.0,0.0,0.0,0.0,0.0,0.0,0.0,0.0,0.0,0.0,0.0,0.0,0.0,0.0,0.0,0.0,0.0,0.0,0.0,0.0,0.0,0.0,0.0,0.0,0.0,0.0,0.0,0.0,0.0,0.0,0.0,0.0,0.0,0.0,0.0,0.0,0.0,0.0,0.0,0.0,0.0,0.0,0.0,0.0,0.0,0.0,0.0,0.0,0.0,0.0,0.0,0.0,0.0,0.0,0.0,0.0,0.0,0.0,0.0,0.0,0.0,0.0,0.0,0.0,0.0,0.0,0.0,0.0,0.0,0.0,0.0,0.0,0.0,0.0,0.0,0.0,0.0,0.0,0.0,0.0,0.0,0.0,0.0,0.0,0.0,0.0,0.0,0.0,0.0,0.0,0.0,0.0,0.0,1.0582,1.0544,1.0428,1.0079,0.9823,0.9585,0.0,0.0,0.0,0.0,0.0,0.0,0.0,0.0,0.0,0.0,0.0,0.0,0.0,0.0,0.0,0.0,0.0,0.0,0.0,0.0,0.0,0.0,0.0,0.0,0.0,0.0,0.0,0.0,0.0,0.0,0.0,0.0,0.0,0.0,0.0,0.0,0.0,0.0,0.0,0.0,0.0,0.0,0.0,0.0,0.0,0.0,0.0,0.0,0.0,0.0,0.0,0.0,0.0,0.0,0.0,0.0,0.0,0.0,0.0,0.0,0.0,0.0,0.0,0.0,0.0,0.0,0.0,0.0,0.0,0.0,0.0,0.0,0.0,0.0,0.0,0.0,0.0,0.0,0.0,0.0,0.0,0.0,0.0,0.0,0.0,0.0,0.0,0.0,0.0,0.0,0.0,0.0,0.0,0.0,0.0,0.0,0.0,0.0,0.0,0.0,0.0,0.0,0.0,0.0,0.0,0.0,0.0,0.0,0.0,1.04,1.0127,0.9941,0.9793,0.9664,0.9408,0.0,0.0,0.0,0.0,0.0,0.0,0.0,0.0,0.0,0.0,0.0,0.0,0.0,0.0,0.0,0.0,0.0,0.0,0.0,0.0,0.0,0.0,0.0,0.0,0.0,0.0,0.0,0.0,0.0,0.0,0.0,0.0,0.0,0.0,0.0,0.0,0.0,0.0,0.0,0.0,0.0,0.0,0.0,0.0,0.0,0.0,0.0,0.0,0.0,0.0,0.0,0.0,0.0,0.0,0.0,0.0,0.0,0.0,0.0,0.0,0.0,0.0,0.0,0.0,0.0,0.0,0.0,0.0,0.0,0.0,0.0,0.0,0.0,0.0,0.0,0.0,0.0,0.0,0.0,0.0,0.0,0.0,0.0,0.0,0.0,0.0,0.0,0.0,0.0,0.0,0.0,0.0,0.0,0.0,0.0,0.0,0.0,0.0,0.0,0.0,0.0,0.0,0.0,0.0,0.0,0.0,0.0,0.0,1.0467,1.0088,0.9734,0.9506,0.9435,0.9337,0.9177,0.0,0.0,0.0,0.0,0.0,0.0,0.0,0.0,0.0,0.0,0.0,0.0,0.0,0.0,0.0,0.0,0.0,0.0,0.0,0.0,0.0,0.0,0.0,0.0,0.0,0.0,0.0,0.0,0.0,0.0,0.0,0.0,0.0,0.0,0.0,0.0,0.0,0.0,0.0,0.0,0.0,0.0,0.0,0.0,0.0,0.0,0.0,0.0,0.0,0.0,0.0,0.0,0.0,0.0,0.0,0.0,0.0,0.0,0.0,0.0,0.0,0.0,0.0,0.0,0.0,0.0,0.0,0.0,0.0,0.0,0.0,0.0,0.0,0.0,0.0,0.0,0.0,0.0,0.0,0.0,0.0,0.0,0.0,0.0,0.0,0.0,0.0,0.0,0.0,0.0,0.0,0.0,0.0,0.0,0.0,0.0,0.0,0.0,0.0,0.0,0.0,0.0,0.0,0.0,0.0,0.0,0.0,0.0,1.0098,0.9744,0.9377,0.9105,0.8943,0.8935,0.8895,0.0,0.0,0.0,0.0,0.0,0.0,0.0,0.0,0.0,0.0,0.0,0.0,0.0,0.0,0.0,0.0,0.0,0.0,0.0,0.0,0.0,0.0,0.0,0.0,0.0,0.0,0.0,0.0,0.0,0.0,0.0,0.0,0.0,0.0,0.0,0.0,0.0,0.0,0.0,0.0,0.0,0.0,0.0,0.0,0.0,0.0,0.0,0.0,0.0,0.0,0.0,0.0,0.0,0.0,0.0,0.0,0.0,0.0,0.0,0.0,0.0,0.0,0.0,0.0,0.0,0.0,0.0,0.0,0.0,0.0,0.0,0.0,0.0,0.0,0.0,0.0,0.0,0.0,0.0,0.0,0.0,0.0,0.0,0.0,0.0,0.0,0.0,0.0,0.0,0.0,0.0,0.0,0.0,0.0,0.0,0.0,0.0,0.0,0.0,0.0,0.0,0.0,0.0,0.0,0.0,0.0,0.0,0.0,0.9744,0.9337,0.9136,0.8862,0.8537,0.8683,0.8683,0.0,0.0,0.0,0.0,0.0,0.0,0.0,0.0,0.0,0.0,0.0,0.0,0.0,0.0,0.0,0.0,0.0,0.0,0.0,0.0,0.0,0.0,0.0,0.0,0.0,0.0,0.0,0.0,0.0,0.0,0.0,0.0,0.0,0.0,0.0,0.0,0.0,0.0,0.0,0.0,0.0,0.0,0.0,0.0,0.0,0.0,0.0,0.0,1.4022,0.0,0.0,0.0,0.0,0.0,0.0,0.0,0.0,0.0,0.0,0.0,0.0,0.0,0.0,0.0,0.0,0.0,0.0,0.0,0.0,0.0,0.0,0.0,0.0,0.0,0.0,0.0,0.0,0.0,0.0,0.0,0.0,0.0,0.0,0.0,0.0,0.0,0.0,0.0,0.0,0.0,0.0,0.0,0.0,0.0,0.0,0.0,0.0,0.0,0.0,0.0,0.0,0.0,0.0,0.0,0.0,0.0,0.0,0.0,0.9417,0.9065,0.8822,0.8578,0.8332,0.8357,0.8349,0.0,0.0,0.0,0.0,0.0,0.0,0.0,0.0,0.0,0.0,0.0,0.0,0.0,0.0,0.0,0.0,0.0,0.0,0.0,0.0,0.0,0.0,0.0,0.0,0.0,0.0,0.0,0.0,0.0,0.0,0.0,0.0,0.0,0.0,0.0,0.0,0.0,0.0,0.0,0.0,0.0,0.0,0.0,0.0,0.0,0.0,0.0,0.0,0.0,0.0,0.0,0.0,0.0,0.0,0.0,0.0,0.0,0.0,0.0,0.0,0.0,0.0,0.0,0.0,0.0,0.0,0.0,0.0,0.0,0.0,0.0,0.0,0.0,0.0,0.0,0.0,0.0,0.0,0.0,0.0,0.0,0.0,0.0,0.0,0.0,0.0,0.0,0.0,0.0,0.0,0.0,0.0,0.0,0.0,0.0,0.0,0.0,0.0,0.0,0.0,0.0,0.0,0.0,0.0,0.0,0.0,0.0,0.9417,0.9088,0.883,0.8545,0.8299,0.8175,0.8036,0.7979,0.7946,0.0,0.0,0.0,0.0,0.0,0.0,0.0,0.0,0.0,0.0,0.0,0.0,0.0,0.0,0.0,0.0,0.0,0.0,0.0,0.0,0.0,0.0,0.0,0.0,0.0,0.0,0.0,0.0,0.0,0.0,0.0,0.0,0.0,0.0,0.0,0.0,0.0,0.0,1.0177,1.1355,0.0,0.0,0.0,0.0,0.0,0.0,0.0,0.0,1.4624,0.0,0.0,0.0,0.0,0.0,0.0,0.0,0.0,0.0,0.0,0.0,0.0,0.0,0.0,0.0,0.0,0.0,0.0,0.0,0.0,0.0,0.0,0.0,0.0,0.0,0.0,0.0,0.0,0.0,0.0,0.0,0.0,0.0,0.0,0.0,0.0,0.0,0.0,0.0,0.0,0.0,0.0,0.0,0.0,0.0,0.0,0.0,0.0,0.0,0.0,0.0,0.0,0.0,0.0,0.0,0.0,0.9399,0.9096,0.8781,0.8496,0.8291,0.8134,0.7961,0.7912,0.787,0.7753,0.0,0.0,0.0,0.0,0.0,0.0,0.0,0.0,0.0,0.0,0.0,0.0,0.0,0.0,0.0,0.0,0.0,0.0,0.0,0.0,0.0,0.0,0.0,0.0,0.0,0.0,0.0,0.0,0.0,0.0,0.0,0.0,0.0,0.0,0.0,0.0,0.0,0.0,0.0,1.236,1.3029,0.0,0.0,0.0,0.0,0.0,0.0,0.0,0.0,1.4808,0.0,0.0,0.0,0.0,0.0,0.0,0.0,0.0,0.0,0.0,0.0,0.0,0.0,0.0,0.0,0.0,0.0,0.0,0.0,0.0,0.0,0.0,0.0,0.0,0.0,0.0,0.0,0.0,0.0,0.0,0.0,0.0,0.0,0.0,0.0,0.0,0.0,0.0,0.0,0.0,0.0,0.0,0.0,0.0,0.0,0.0,0.0,0.0,0.0,0.0,0.0,0.0,0.0,0.0,0.0,0.9177,0.8854,0.8578,0.8291,0.8126,0.7961,0.7795,0.7787,0.7753,0.0,0.0,0.0,0.0,0.0,0.0,0.0,0.0,0.0,0.0,0.0,0.0,0.0,0.0,0.0,0.0,0.0,0.0,0.0,0.0,0.0,0.0,0.0,0.0,0.0,0.0,0.0,0.0,0.0,0.0,0.0,0.0,0.0,0.0,0.0,0.0,0.0,0.0,0.0,0.0,1.283,1.3232,1.3425,0.0,0.0,0.0,0.0,0.0,0.0,1.4686,1.4808,0.0,0.0,0.0,0.0,0.0,0.0,0.0,0.0,0.0,0.0,0.0,0.0,0.0,0.0,0.0,0.0,0.0,0.0,0.0,0.0,0.0,0.0,0.0,0.0,0.0,0.0,0.0,0.0,0.0,0.0,0.0,0.0,0.0,0.0,0.0,0.0,0.0,0.0,0.0,0.0,0.0,0.0,0.0,0.0,0.0,0.0,0.0,0.0,0.0,0.0,0.0,0.0,0.0,0.0,0.0,0.8935,0.861,0.8324,0.8134,0.7912,0.7753,0.7628,0.7621,0.767,0.0,0.0,0.0,0.0,0.0,0.0,0.0,0.0,0.0,0.0,0.0,0.0,0.0,0.0,0.0,0.0,0.0,0.0,0.0,0.0,0.0,0.0,0.0,0.0,0.0,0.0,0.0,0.0,0.0,0.0,0.0,0.0,0.0,0.0,0.0,0.0,0.0,0.0,0.0,0.0,0.0,1.3348,1.3638,1.3952,0.0,0.0,0.0,0.0,1.4874,1.4966,0.0,0.0,0.0,0.0,0.0,0.0,0.0,0.0,0.0,0.0,0.0,0.0,0.0,0.0,0.0,0.0,0.0,0.0,0.0,0.0,0.0,0.0,0.0,0.0,0.0,0.0,0.0,0.0,0.0,0.0,0.0,0.0,0.0,0.0,0.0,0.0,0.0,0.0,0.0,0.0,0.0,0.0,0.0,0.0,0.0,0.0,0.0,0.0,0.0,0.0,0.0,0.0,0.0,0.0,0.0,0.0,0.8724,0.8414,0.8093,0.7753,0.7614,0.753,0.7419,0.7419,0.7454,0.0,0.0,0.0,0.0,0.0,0.0,0.0,0.0,0.0,0.0,0.0,0.0,0.0,0.0,0.0,0.0,0.0,0.0,0.0,0.0,0.0,0.0,0.0,0.0,0.0,0.0,0.0,0.0,0.0,0.0,0.0,0.0,0.0,0.0,0.0,0.0,0.0,0.0,0.0,0.0,0.0,1.3629,1.429,1.4631,1.5002,0.0,0.0,0.0,1.6186,1.5853,0.0,0.0,0.0,0.0,0.0,0.0,0.0,0.0,0.0,0.0,0.0,0.0,0.0,0.0,0.0,0.0,0.0,0.0,0.0,0.0,0.0,0.0,0.0,0.0,0.0,0.0,0.0,0.0,0.0,0.0,0.0,0.0,0.0,0.0,0.0,0.0,0.0,0.0,0.0,0.0,0.0,0.0,0.0,0.0,0.0,0.0,0.0,0.0,0.0,0.0,0.0,0.0,0.0,0.0,0.0,0.8895,0.8602,0.8275,0.7953,0.7719,0.7572,0.7489,0.7419,0.737,0.7419,0.0,0.0,0.0,0.0,0.0,0.0,0.0,0.0,0.0,0.0,0.0,0.0,0.0,0.0,0.0,0.0,0.0,0.0,0.0,0.0,0.0,0.0,0.0,0.0,0.0,0.0,0.0,0.0,0.0,0.0,0.0,0.0,0.0,0.0,0.0,0.0,0.0,0.0,0.0,0.0,0.0,0.0,1.4384,1.499,0.0,0.0,0.0,1.6393,1.6393,0.0,0.0,0.0,0.0,0.0,0.0,0.0,0.0,0.0,0.0,0.0,0.0,0.0,0.0,0.0,0.0,0.0,0.0,0.0,0.0,0.0,0.0,0.0,0.0,0.0,0.0,0.0,0.0,0.0,0.0,0.0,0.0,0.0,0.0,0.0,0.0,0.0,0.0,0.0,0.0,0.0,0.0,0.0,0.0,0.0,0.0,0.0,0.0,0.0,0.0,0.0,0.0,0.0,0.0,0.0,0.0,0.0,0.8439,0.8111,0.7829,0.7621,0.7489,0.7405,0.7286,0.7286,0.0,0.0,0.0,0.0,0.0,0.0,0.0,0.0,0.0,0.0,0.0,0.0,0.0,0.0,0.0,0.0,0.0,0.0,0.0,0.0,0.0,0.0,0.0,0.0,0.0,0.0,0.0,0.9097,0.0,0.0,0.0,0.0,0.0,0.0,0.0,0.0,0.0,0.0,0.0,0.0,0.0,0.0,1.449,1.482,1.5533,1.6051,0.0,0.0,1.6798,1.6785,1.682,1.669,0.0,0.0,0.0,0.0,0.0,0.0,0.0,0.0,0.0,0.0,0.0,0.0,0.0,0.0,0.0,0.0,0.0,0.0,0.0,0.0,0.0,0.0,0.0,0.0,0.0,0.0,0.0,0.0,0.0,0.0,0.0,0.0,0.0,0.0,0.0,0.0,0.0,0.0,0.0,0.0,0.0,0.0,0.0,0.0,0.0,0.0,0.0,0.0,0.0,0.0,0.0,0.0,0.0,0.0,0.0,0.8209,0.7878,0.7628,0.7419,0.7293,0.716,0.7021,0.7021,0.707,0.0,0.0,0.0,0.0,0.0,0.0,0.0,0.0,0.0,0.0,0.0,0.0,0.0,0.0,0.0,0.0,0.0,0.0,0.0,0.0,0.0,0.0,0.0,0.0,0.0,0.0,0.0,0.0,0.0,0.0,0.0,0.0,0.0,0.0,0.0,0.0,0.0,0.0,0.0,0.0,0.0,1.4784,1.5918,1.6388,1.6863,0.0,0.0,1.7905,1.7918,1.7543,1.7222,1.718,0.0,0.0,0.0,0.0,0.0,0.0,0.0,0.0,0.0,0.0,0.0,0.0,0.0,0.0,0.0,0.0,0.0,0.0,0.0,0.0,0.0,0.0,0.0,0.0,0.0,0.0,0.0,0.0,0.0,0.0,0.0,0.0,0.0,0.0,0.0,0.0,0.0,0.0,0.0,0.0,0.0,0.0,0.0,0.0,0.0,0.0,0.0,0.0,0.0,0.0,0.0,0.0,0.0,0.8447,0.8216,0.7885,0.7587,0.7412,0.7251,0.716,0.6972,0.6972,0.7021,0.0,0.0,0.0,0.0,0.0,0.0,0.0,0.0,0.0,0.0,0.0,0.0,0.0,0.0,0.0,0.0,0.0,0.0,0.0,0.0,0.0,0.0,0.0,0.0,0.0,0.0,0.0,0.0,1.0802,1.1002,1.1239,0.0,0.0,0.0,0.0,0.0,0.0,0.0,0.0,0.0,0.0,1.54,1.5981,1.6624,0.0,0.0,1.7747,1.7935,1.7949,1.7891,1.7747,1.736,1.7098,0.0,0.0,0.0,0.0,0.0,0.0,0.0,0.0,0.0,0.0,0.0,0.0,0.0,0.0,0.0,0.0,0.0,0.0,0.0,0.0,0.0,0.0,0.0,0.0,0.0,0.0,0.0,0.0,0.0,0.0,0.0,0.0,0.0,0.0,0.0,0.0,0.0,0.0,0.0,0.0,0.0,0.0,0.0,0.0,0.0,0.0,0.0,0.0,0.0,0.0,0.0,0.0,0.853,0.8384,0.8047,0.7738,0.7475,0.7346,0.7206,0.7027,0.6972,0.6972,0.0,0.0,0.0,0.0,0.0,0.0,0.0,0.0,0.0,0.0,0.0,0.0,0.0,0.0,0.0,0.0,0.0,0.0,0.0,0.0,0.0,0.0,0.0,0.0,0.0,0.0,0.0,0.0,1.1155,1.1452,1.173,0.0,0.0,0.0,0.0,0.0,0.0,0.0,0.0,0.0,0.0,1.5838,1.6166,1.6773,1.724,1.7308,1.7584,1.7788,1.7788,1.7909,1.7906,1.7482,0.0,0.0,0.0,0.0,0.0,0.0,0.0,0.0,0.0,0.0,0.0,0.0,0.0,0.0,0.0,0.0,0.0,0.0,0.0,0.0,0.0,0.0,0.0,0.0,0.0,0.0,0.0,0.0,0.0,0.0,0.0,0.0,0.0,0.0,0.0,0.0,0.0,0.0,0.0,0.0,0.0,0.0,0.0,0.0,0.0,0.0,0.0,0.0,0.0,0.0,0.0,0.0,0.0,0.0,0.8781,0.8432,0.8073,0.7616,0.7551,0.7321,0.6999,0.6985,0.6979,0.6979,0.0,0.0,0.0,0.0,0.0,0.0,0.0,0.0,0.0,0.0,0.0,0.0,0.0,0.0,0.0,0.0,0.0,0.0,0.0,0.0,0.0,0.0,0.0,0.0,0.0,0.0,1.0937,1.1733,1.2289,0.0,0.0,0.0,0.0,0.0,0.0,0.0,0.0,0.0,0.0,1.557,1.5935,1.6574,1.6989,1.7199,1.7212,1.7365,1.7529,1.7516,1.7625,1.772,0.0,0.0,0.0,0.0,0.0,0.0,0.0,0.0,0.0,0.0,0.0,0.0,0.0,0.0,0.0,0.0,0.0,0.0,0.0,0.0,0.0,0.0,0.0,0.0,0.0,0.0,0.0,1.2349,1.1886,0.0,0.0,0.0,0.0,0.0,0.0,0.0,0.0,0.0,0.0,0.0,1.3191,1.304,0.0,0.0,0.0,0.0,0.0,0.0,0.0,0.0,0.0,0.0,0.0,0.0,0.8967,0.8803,0.8475,0.8198,0.7915,0.7762,0.7485,0.7203,0.7196,0.7141,0.6985,0.0,0.0,0.0,0.0,0.0,0.0,0.0,0.0,0.0,0.0,0.0,0.0,0.0,0.0,0.0,0.0,0.0,0.0,0.0,0.0,0.0,0.0,0.0,0.0,0.0,1.1117,0.0,0.0,0.0,0.0,0.0,0.0,0.0,0.0,0.0,0.0,0.0,1.4846,1.5795,1.6015,1.6206,1.665,1.6803,1.6888,0.0,0.0,0.0,0.0,0.0,0.0,0.0,0.0,0.0,0.0,0.0,0.0,0.0,0.0,1.7567,1.7441,1.7589,1.7763,1.7647,0.0,0.0,0.0,0.0,0.0,0.0,0.0,0.0,0.0,0.0,0.0,0.0,0.0,0.0,0.0,0.0,1.2783,0.0,0.0,0.0,0.0,0.0,0.0,0.0,0.0,1.3547,1.3625,1.3575,1.3364,1.3281,0.0,1.2897,1.2395,0.0,0.0,0.0,0.0,0.0,0.0,0.0,0.0,0.9265,0.9041,0.8756,0.8463,0.8118,0.7911,0.7685,0.7406,0.7348,0.7249,0.7102,0.7032,0.7105,0.0,0.0,0.0,0.0,0.0,0.0,0.0,0.0,0.0,0.0,0.0,0.0,0.0,0.0,0.0,0.0,0.0,0.0,0.0,0.0,0.0,0.0,0.0,1.1808,0.0,0.0,0.0,0.0,0.0,0.0,0.0,0.0,0.0,1.4963,1.4996,1.526,1.6032,1.6156,1.6287,1.6547,0.0,0.0,0.0,0.0,0.0,0.0,0.0,1.7393,1.7406,1.7447,1.7488,1.7488,1.7584,1.7666,1.7747,0.0,0.0,1.7935,1.7962,1.8042,1.8095,1.8189,1.8307,1.84,1.8478,1.8556,0.0,0.0,0.0,0.0,0.0,0.0,0.0,0.0,1.512,1.4942,0.0,1.4175,0.0,0.0,0.0,0.0,0.0,0.0,0.0,0.0,1.3591,1.3662,1.3971,1.3773,1.3755,1.3952,1.3695,1.3128,1.2427,1.1816,0.0,0.0,0.0,0.0,0.0,0.0,0.9615,0.9384,0.9242,0.8851,0.8163,0.8099,0.792,0.7506,0.7367,0.7309,0.7295,0.7135,0.7145,0.7405,0.744,0.0,0.0,0.0,0.0,0.0,0.0,0.0,0.0,0.0,0.0,0.0,0.0,0.0,0.0,0.0,0.0,0.0,0.0,0.0,0.0,1.235,0.0,0.0,0.0,0.0,0.0,0.0,0.0,0.0,0.0,0.0,1.5445,1.5501,1.5603,1.5957,0.0,0.0,0.0,0.0,1.6675,1.6675,1.6791,1.6876,1.6876,1.7031,1.7212,1.7199,0.0,0.0,1.7487,1.7488,1.7488,1.7516,1.7516,1.757,1.7828,1.7935,1.7962,1.7988,1.8083,1.819,1.8176,1.8202,1.8228,1.9145,0.0,0.0,0.0,0.0,1.6639,1.6157,1.5462,1.5374,1.5235,1.5044,1.4752,0.0,0.0,0.0,0.0,0.0,0.0,1.4355,1.4081,1.4336,1.444,1.4405,1.4165,1.3964,1.3868,1.3515,1.312,1.2733,1.233,1.1621,1.0785,0.0,0.0,0.0,0.0,0.9739,0.9406,0.9256,0.896,0.8456,0.8352,0.812,0.7641,0.7513,0.7502,0.7595,0.7616,0.7761,0.8028,0.7818,0.0,0.0,0.0,0.0,0.0,0.0,0.0,0.0,0.0,0.0,0.0,0.0,0.0,0.0,0.0,0.0,0.0,0.0,0.0,1.2402,1.3075,1.352,0.0,0.0,0.0,0.0,0.0,0.0,0.0,0.0,0.0,1.5468,1.5513,1.5647,0.0,0.0,1.61,1.6231,1.6331,1.6374,1.6491,0.0,0.0,0.0,1.6876,1.7002,1.7002,1.7086,1.717,1.7295,1.7337,1.7419,1.7475,1.7475,1.7516,1.7598,1.7639,1.7639,1.7639,1.7747,1.7855,1.7963,1.8029,1.8095,2.0352,1.9738,1.891,1.8215,1.7636,1.7429,1.6953,1.6283,1.6205,1.6009,1.5783,1.5462,1.5137,1.4897,1.4724,0.0,0.0,0.0,1.4824,1.4495,1.4756,1.4754,1.4523,1.4233,1.3999,1.3716,1.3334,1.2997,1.2832,1.2431,1.1828,1.1127,0.0,0.0,1.0244,1.0097,0.9792,0.9368,0.9263,0.9001,0.8521,0.8321,0.8081,0.7765,0.7704,0.77,0.7791,0.7839,0.8024,0.8287,0.8158,0.828,0.0,0.0,0.0,0.0,0.0,0.0,0.0,0.0,0.0,0.0,0.0,1.043,1.0716,0.0,0.0,0.0,1.2016,1.2584,1.3151,1.374,0.0,0.0,0.0,0.0,0.0,0.0,0.0,1.5119,1.5119,1.5198,1.548,1.5513,1.5603,1.5869,1.5944,1.6044,1.61,0.0,1.6231,1.6318,1.6362,1.6405,1.6504,1.6633,1.6778,1.6888,1.6931,1.7002,1.7086,1.7128,1.7225,1.724,1.724,1.7282,1.7227,1.7282,1.7323,1.7475,1.7543,1.7638,1.7733,1.776,1.7841,2.116,2.092,1.9444,1.8669,1.8335,1.8043,1.7747,1.7475,1.731,1.7115,1.6837,1.6255,1.5793,1.545,1.5157,0.0,0.0,1.5301,1.5277,1.4903,1.4811,1.4673,1.4384,1.4104,1.3821,1.3573,1.32,1.2871,1.2676,1.2274,1.1927,1.1678,1.1276,1.0871,1.0522,1.0154,0.974,0.9211,0.9204,0.8942,0.8421,0.8062,0.7901,0.7901,0.7914,0.793,0.7923,0.799,0.814,0.8364,0.8478,0.8699,0.9027,0.0,0.0,0.0,0.0,0.0,0.0,0.0,0.0,0.0,0.0,0.0,0.0,0.0,0.0,0.0,1.3129,0.0,1.3872,1.4338,0.0,0.0,0.0,1.496,1.5108,1.5119,1.5119,1.5119,0.0,0.0,1.5468,0.0,1.5558,1.5792,1.5913,1.6001,1.6001,1.61,1.6156,1.62,1.62,1.62,1.6231,1.6349,1.6577,1.6791,1.6876,1.6876,1.6876,1.6918,1.6888,1.6931,1.6931,1.6931,1.6931,1.6918,1.7002,1.7352,1.7461,1.7432,1.7447,1.7488,1.7475,2.1686,2.1398,2.0359,1.96,1.9001,1.8396,1.7895,1.7516,1.7447,1.724,1.6876,1.6747,1.6431,1.6003,1.5656,1.5425,1.5292,1.5332,1.5176,1.4857,1.4822,1.4627,1.4222,1.3952,1.3716,1.342,1.3113,1.2774,1.2529,1.2126,1.1828,1.1519,1.1116,1.0769,1.0522,1.0154,0.9732,0.9211,0.9204,0.8949,0.8421,0.8062,0.7901,0.7901,0.8146,0.8273,0.8266,0.8579,0.8796,0.8987,0.9012,0.9175,0.9514,0.9541,0.0,0.0,0.0,0.0,0.0,0.0,0.0,0.0,0.0,1.1891,1.2089,0.0,1.2478,0.0,1.3336,1.3939,1.4359,1.4675,0.0,0.0,1.4994,1.5051,1.5119,1.5119,1.5119,1.5119,1.5119,1.5198,1.5468,1.5513,1.5558,1.5792,1.5836,1.5836,1.5824,1.5881,1.5925,1.6001,1.6044,1.6088,1.62,1.6231,1.6318,1.6479,1.6565,1.6607,1.6718,1.6846,1.6888,1.6888,1.6888,1.6888,1.6888,1.6888,1.6918,1.6989,1.7044,1.7057,1.7115,1.7115,1.717,2.2041,2.1804,2.1018,2.0337,1.9759,1.8851,1.8248,1.7889,1.7608,1.724,1.6876,1.6718,1.6473,1.62,1.5836,1.5733,1.5809,1.5591,1.5496,1.5426,1.5282,1.5077,1.4714,1.4429,1.4171,1.3922,1.3529,1.3138,1.2654,1.23,1.1855,1.1427,1.1074,1.0726,1.0419,1.0162,0.9732,0.9204,0.8949,0.8685,0.8421,0.8062,0.7901,0.7901,0.8215,0.8368,0.8368,0.8798,0.9061,0.9211,0.9358,0.9617,0.9969,1.0173,1.0443,0.0,0.0,0.0,0.0,0.0,0.0,0.0,0.0,0.0,0.0,0.0,1.3195,1.3576,1.395,1.4316,1.472,1.4823,1.4903,1.496,1.5269,1.5452,1.5452,1.5647,1.5785,1.5785,1.5821,1.5834,1.581,1.5855,1.5851,1.5828,1.5792,1.5792,1.5792,1.5792,1.5824,1.5869,1.5913,1.5957,1.6088,1.6088,1.6144,1.6287,1.6362,1.6405,1.6461,1.6547,1.6577,1.6577,1.6577,1.6577,1.659,1.659,1.6577,1.6577,1.6577,1.6663,1.6931,1.6973,1.7002,2.2263,2.2081,2.1425,2.0928,2.0508,1.9368,1.8768,1.8475,1.7869,1.7405,1.705,1.6629,1.6409,1.6352,1.5927,1.5938,1.6291,1.6005,1.6015,1.6171,1.5928,1.5672,1.5392,1.5102,1.4829,1.4556,1.4077,1.3575,1.2911,1.25,1.1948,1.1353,1.0989,1.0667,1.0265,1.0051,0.9681,0.9159,0.8685,0.8368,0.8368,0.8055,0.7901,0.7955,0.8215,0.8421,0.8421,0.8844,0.9061,0.9204,0.9636,0.9955,1.0316,1.082,1.1276,0.0,1.1746,0.0,0.0,0.0,0.0,0.0,0.0,0.0,0.0,1.3538,1.3902,1.4536,1.4627,1.4708,1.4903,1.4915,1.4983,1.5223,1.559,1.5948,1.6003,1.6371,1.6623,1.6623,1.6711,1.6674,1.6361,1.6433,1.6371,1.602,1.5948,1.59,1.5804,1.5792,1.5792,1.5792,1.5792,1.5881,1.5957,1.5957,1.6001,1.6144,1.6188,1.6188,1.6244,1.6231,1.6244,1.6244,1.6244,1.6231,1.62,1.6244,1.6244,1.6244,1.6244,1.6374,1.6675,1.6791,1.6803,2.1949,2.1698,2.1445,2.1247,2.1014,2.0046,1.9351,1.8948,1.8721,1.8442,1.805,1.7451,1.7288,1.7443,1.674,1.6557,1.6818,1.6474,1.6282,1.6171,1.5939,1.5682,1.5392,1.5029,1.4672,1.4344,1.397,1.3556,1.3149,1.2582,1.2026,1.1572,1.1019,1.0506,1.0051,0.0,0.0,0.0,0.8586,0.8368,0.8368,0.8062,0.7955,0.8115,0.8321,0.0,0.8573,0.8942,0.9211,0.9361,0.974,0.0,0.0,0.0,0.0,0.0,0.0,0.0,0.0,0.0,0.0,0.0,1.3886,1.3903,1.4036,1.4242,1.4481,1.4569,1.4743,1.4869,1.4903,1.5006,1.5234,1.5705,1.5831,1.6049,1.6428,1.6577,1.6612,1.6749,1.6799,1.6875,1.6977,1.705,1.6896,1.6524,1.6474,1.6248,1.5852,1.5804,1.5792,1.5792,1.5792,1.5792,1.5836,1.5836,1.5869,1.6001,1.6044,1.6088,1.6156,1.62,1.62,1.62,1.62,1.62,1.62,1.62,1.62,1.62,1.62,1.6244,1.6331,1.6318,1.6318,2.1568,0.0,2.1277,2.1082,0.0,2.042,1.9986,1.959,1.8999,1.852,1.8226,1.8039,1.7835,1.7557,1.7168,1.7062,1.7155,1.6775,1.6703,1.6696,1.6428,1.6159,1.5888,1.5505,1.5174,1.4831,1.4373,1.3932,1.3459,1.2946,1.2367,1.1781,1.1166,1.0672,1.0287,0.9694,0.9263,0.9015,0.858,0.8368,0.8368,0.8162,0.8121,0.8168,0.0,0.0,0.0,0.0,0.0,0.0,0.0,0.0,0.0,0.0,0.0,1.2085,1.2431,1.2774,1.3094,1.342,1.3716,1.3962,1.4233,1.443,1.4373,1.4581,1.4719,1.4743,1.4869,1.4915,1.5017,1.5291,1.5602,1.5889,1.6336,1.6788,1.7081,1.7347,1.7526,1.7669,1.7709,1.7741,1.7582,1.7647,1.7482,1.7039,1.6786,1.65,1.6224,1.596,1.5792,1.5792,1.5792,1.5792,1.5792,1.5792,1.5792,1.5856,1.5913,1.5925,1.6013,1.6013,1.6025,1.6013,1.6013,1.6025,1.5969,1.5981,1.6013,1.6025,1.6025,1.5969,1.6013,1.6113,1.62,2.1215,2.1082,2.0934,2.0723,2.051,2.0459,2.0308,2.0004,0.0,0.0,0.0,1.8546,1.824,1.77,1.7573,1.7494,1.7413,1.719,1.7146,1.7267,1.6931,1.6648,1.6374,1.5961,1.5672,1.5362,1.4893,1.4363,1.3762,1.3229,1.2702,1.2099,1.1367,1.0825,1.0415,0.9688,0.9169,0.8962,0.8586,0.8421,0.8421,0.8328,0.8275,0.8268,0.8468,0.8685,0.8857,0.9113,0.9361,0.9621,1.0095,1.0522,1.0913,1.1326,1.1769,1.2274,1.2578,1.291,1.3218,1.3515,1.381,1.4104,1.4441,1.4662,1.4627,1.473,1.4857,1.4903,1.4915,1.4994,1.5234,1.5636,1.6028,1.6201,1.6949,1.756,1.774,1.8154,1.8405,1.8614,1.8697,1.8643,1.8215,1.8247,1.8145,1.764,1.7243,1.6798,1.6594,1.6116,1.5792,1.5792,1.5792,1.5792,1.5792,1.5792,1.5792,1.5836,1.5792,1.5792,1.5792,1.5792,1.5792,1.5836,1.5792,1.5836,1.5792,1.5836,1.5792,1.5792,1.5792,1.5792,1.5836,1.5969,1.61,2.0809,2.066,2.0523,2.0385,2.0233,2.0003,1.9759,1.95,1.9584,1.9483,1.9187,1.9004,1.8899,1.877,1.826,1.7986,1.7981,1.7709,1.7479,0.0,1.6874,1.6524,1.6374,1.5778,1.5371,1.5205,1.4784,1.4332,1.3954,1.3301,1.2763,1.2381,1.1655,1.0781,0.9914,0.9686,0.9376,0.8871,0.8685,0.8573,0.8573,0.8421,0.8421,0.8521,0.8573,0.8738,0.8956,0.9211,0.9472,0.9792,1.0213,1.0675,1.1074,1.1477,1.1877,1.2274,1.2715,1.3045,1.3372,1.3716,1.4104,1.4488,1.4743,1.4834,1.4776,1.4846,1.4903,1.4903,1.5028,1.5257,1.5728,1.5972,1.6474,1.7229,1.7599,1.7897,1.8372,1.8501,1.8614,1.8732,1.8798,1.8827,1.8814,1.8855,1.865,1.8217,1.7917,1.764,1.6822,1.614,1.5828,1.5792,1.5792,1.5792,1.5792,1.5792,1.5792,1.5792,1.5792,1.5792,1.5792,1.5792,1.5792,1.5792,1.5792,1.5792,1.5792,1.5792,1.5792,1.5792,1.5792,1.5792,1.5792,1.5836,1.5893,2.051,2.0372,2.0233,2.0118,1.9965,1.972,1.9408,1.921,1.9303,1.9303,1.9146,1.904,1.8893,1.8614,1.8267,1.8007,1.7877,1.7601,1.7323,1.6987,1.6648,1.6316,1.6029,1.5594,1.5177,1.4784,1.4478,1.4121,1.3743,1.3228,1.2862,1.259,1.1846,1.0977,0.9989,0.9757,0.9501,0.9038,0.8711,0.8626,0.8626,0.8521,0.8521,0.8626,0.8738,0.8903,0.9106,0.9361,0.9681,1.0058,1.0419,1.082,1.1276,1.1628,1.2026,1.248,1.2813,1.3152,1.3467,1.3952,1.4337,1.4684,1.4834,1.496,1.504,1.5028,1.5177,1.5533,1.5614,1.5881,1.6511,1.6828,1.724,1.7646,1.8031,1.8354,1.862,1.8732,1.8732,1.8893,1.8893,1.8946,1.8987,1.8987,1.8927,1.8638,1.841,1.7905,1.7159,1.656,1.6104,1.5852,1.5792,1.5792,1.5792,1.5792,1.5792,1.5792,1.5792,1.5792,1.5792,1.5792,1.5792,1.5792,1.5792,1.5792,1.5792,1.5792,1.5792,1.5792,1.5792,1.5792,1.5792,1.5792,1.5792,2.0169,2.008,1.9926,1.9772,1.9604,1.9368,1.9158,1.8934,1.8881,1.8839,1.8786,1.8774,1.8625,1.8313,1.8096,1.7877,1.7601,1.7379,1.7099,1.6705,1.6431,1.6087,1.5662,1.542,1.5001,1.4529,1.4249,1.3941,1.3519,1.3164,1.2867,1.2589,1.204,1.1197,1.024,1.0002,0.9743,0.9325,0.893,0.8692,0.8633,0.8633,0.8685,0.8685,0.8896,0.9061,0.9256,0.9517,0.988,1.0316,1.0616,1.1023,1.1469,1.1819,1.2224,1.2676,1.2958,1.3296,1.3763,1.4244,1.4569,1.4811,1.5028,1.528,1.5441,1.5545,1.5695,1.608,1.6219,1.6607,1.7149,1.7627,1.7934,1.8064,1.8472,1.8804,1.8905,1.8958,1.8946,1.904,1.9093,1.9105,1.9105,1.9105,1.9081,1.9008,1.8633,1.8137,1.7726,1.7231,1.6664,1.6218,1.5921,1.5792,1.5792,1.5792,1.5792,1.5792,1.5792,1.5792,1.5792,1.5792,1.5792,1.5792,1.5792,1.5792,1.5792,1.5792,1.5792,1.5792,1.5792,1.5792,1.5792,1.5792,1.5792,1.9668,1.9604,1.9512,1.9303,1.9093,1.8893,1.8786,1.8614,1.8518,1.8367,1.8193,1.8193,1.8139,1.8084,1.7865,1.7612,1.7334,1.7334,1.6998,1.6488,1.6239,1.5884,1.542,1.5137,1.4843,1.4469,1.4181,1.3821,1.345,1.3164,1.2744,1.2243,1.2089,1.1532,1.0636,1.0513,1.0255,0.9646,0.9296,0.9017,0.8765,0.8752,0.885,0.8956,0.8956,0.9159,0.951,0.9732,0.9999,1.047,1.0871,1.1175,1.1528,1.1986,1.2382,1.2686,1.3142,1.3658,1.4233,1.4592,1.4834,1.4949,1.5602,1.5997,1.608,1.6572,1.6714,1.6562,1.6775,1.7234,1.7694,1.8001,1.837,1.8794,1.9097,1.9316,1.9316,1.9316,1.9368,1.938,1.9316,1.9368,1.9316,1.9303,1.9368,1.9303,1.8912,1.857,1.8423,1.7983,1.7494,1.6944,1.6332,1.5897,1.5848,1.5792,1.5836,1.5836,1.5792,1.5792,1.5792,1.5792,1.5792,1.5792,1.5792,1.5792,1.5792,1.5792,1.5792,1.5792,1.5792,1.5792,1.5792,1.5792,1.5792,1.9344,1.9344,1.9146,1.8946,1.8774,1.8637,1.8464,1.829,1.8139,1.803,1.7877,1.7711,1.77,1.781,1.7601,1.7379,1.7278,1.6941,1.6658,1.6384,1.5884,1.5536,1.5254,1.4893,1.4538,1.4181,1.401,1.364,1.3216,1.2789,1.2428,1.2127,1.1996,1.1556,1.0925,1.0688,1.0354,0.994,0.9653,0.9495,0.941,0.9086,0.8962,0.9008,0.9211,0.9413,0.9621,0.9999,1.0316,1.0624,1.1032,1.1377,1.1728,1.2076,1.2471,1.2861,1.344,1.3962,1.4384,1.494,1.5285,1.5497,1.6111,1.6606,1.6883,1.7444,1.7685,1.7701,1.7723,1.8008,1.863,1.883,1.8979,1.9226,1.9368,1.942,1.942,1.942,1.942,1.942,1.942,1.942,1.942,1.942,1.942,1.9408,1.9187,1.9076,1.9052,1.8634,1.824,1.7909,1.7152,1.6435,1.6122,1.5969,1.5957,1.5913,1.5836,1.5792,1.5792,1.5792,1.5792,1.5792,1.5792,1.5792,1.5792,1.5792,1.5792,1.5792,1.5792,1.5792,1.5792,1.5792,1.5792,1.9028,1.8975,1.8721,1.8518,1.8398,1.8247,1.815,1.7975,1.7854,1.7767,1.7745,1.752,1.754,1.7731,1.7342,1.7164,1.717,1.6733,1.6516,1.6443,1.596,1.5602,1.5311,1.5,1.4626,1.4259,1.4101,1.374,1.3083,1.264,1.2336,1.2081,1.1934,1.1553,1.1163,1.0821,1.0601,1.0214,1.0013,0.9917,0.9959,0.9632,0.9321,0.9291,0.9456,0.9614,0.9725,1.0205,1.0664,1.096,1.1328,1.1729,1.2253,1.2559,1.3003,1.3551,1.4101,1.4596,1.4873,1.5493,1.5927,1.6203,1.6767,1.7308,1.7663,1.816,1.8602,1.8818,1.8729,1.89,1.927,1.9473,1.9512,1.9512,1.9577,1.9617,1.9629,1.9629,1.9668,1.9617,1.9681,1.9617,1.9629,1.9617,1.9681,1.9668,1.9617,1.9629,1.9592,1.9269,1.8983,1.8821,1.8136,1.7371,1.6613,1.6186,1.6081,1.6044,1.5969,1.5925,1.5881,1.5881,1.5836,1.5824,1.5836,1.5792,1.5792,1.5792,1.5792,1.5792,1.5792,1.5792,1.5792,1.5792,1.5792,1.8614,1.856,1.8313,1.8107,1.792,1.7855,1.7745,1.7801,1.7634,1.7643,1.7865,1.7759,1.783,1.8041,1.7265,1.6911,1.7033,1.6946,1.6799,1.6697,1.6611,1.6271,1.5698,1.5634,1.5349,1.4754,1.456,1.4118,1.3332,1.2932,1.2505,1.2103,1.1909,1.1567,1.1206,1.1045,1.0912,1.0537,1.0424,1.0402,1.0368,1.0371,1.0165,0.9907,0.9744,0.9777,1.0029,1.0324,1.0889,1.1623,1.1904,1.2387,1.3158,1.3563,1.4172,1.4956,1.5348,1.5676,1.5998,1.6416,1.6662,1.6884,1.7582,1.8133,1.8244,1.8836,1.9312,1.9503,1.9608,1.9606,1.95,1.9668,1.9759,1.9811,2.0016,2.0131,2.0131,2.008,2.0182,2.0118,2.008,2.0067,2.0131,2.0182,2.0131,2.0131,2.0131,2.0144,2.0067,2.0067,1.985,1.9494,1.9162,1.8735,1.7322,1.6675,1.6323,1.6188,1.6144,1.6144,1.6044,1.5957,1.5913,1.5869,1.5824,1.5836,1.5836,1.5792,1.5792,1.5792,1.5792,1.5792,1.5792,1.5792,1.5792,1.837,1.8064,1.8193,1.8272,1.825,1.8322,1.835,1.8291,1.8078,1.7986,1.8055,1.7885,1.7859,1.7843,1.7449,1.7315,1.741,1.7113,1.6894,1.6719,1.6465,1.6138,1.5753,1.5504,1.5115,1.4724,1.4535,1.4197,1.3623,1.3212,1.2902,1.2691,1.2163,1.1732,1.1382,1.1157,1.0996,1.0737,1.0691,1.0767,1.0918,1.089,1.0836,1.0777,1.0628,1.0676,1.0958,1.1285,1.1676,1.2129,1.2401,1.2842,1.3413,1.4077,1.4661,1.5174,1.5547,1.5968,1.6345,1.6831,1.7322,1.7701,1.8331,1.8815,1.9086,1.9441,1.9708,1.9823,1.9978,1.9978,1.9978,2.0029,2.0067,2.0067,2.0118,2.0233,2.022,2.022,2.022,2.022,2.022,2.022,2.022,2.022,2.022,2.022,2.022,2.0233,2.022,2.022,2.013,1.9925,1.9618,1.921,1.876,1.7568,1.6878,1.6498,1.6318,1.6244,1.6144,1.6144,1.61,1.6013,1.5969,1.5925,1.5925,1.5881,1.5881,1.5836,1.5836,1.5836,1.5792,1.5792,1.5792,1.8384,1.8002,1.8347,1.8489,1.8405,1.8496,1.8516,1.8516,1.8294,1.8246,1.83,1.8124,1.8082,1.8027,1.7836,1.7772,1.7752,1.7312,1.7066,1.6944,1.6608,1.6206,1.5885,1.5628,1.5294,1.4892,1.4689,1.4293,1.3834,1.3429,1.318,1.2983,1.2424,1.2065,1.1744,1.1489,1.1213,1.1072,1.0982,1.1115,1.1344,1.1341,1.1413,1.1624,1.1611,1.1545,1.1511,1.1832,1.2234,1.2608,1.2905,1.3414,1.4201,1.4815,1.5368,1.5733,1.6179,1.6536,1.687,1.7468,1.799,1.8418,1.8859,1.93,1.9604,1.9786,1.9914,2.008,2.0195,2.0296,2.0283,2.0334,2.0334,2.0334,2.0347,2.041,2.0448,2.0435,2.0485,2.0485,2.0485,2.0485,2.0435,2.0472,2.0485,2.0485,2.0485,2.0485,2.0435,2.0422,2.0485,2.0446,2.0224,1.9911,1.9551,1.875,1.7778,1.7295,1.6591,1.6424,1.6368,1.6312,1.6231,1.62,1.6144,1.61,1.6057,1.5969,1.5925,1.5881,1.5881,1.5869,1.5836,1.5792,1.5836,1.8759,1.8261,1.8561,1.8627,1.8466,1.839,1.8296,1.835,1.8267,1.8396,1.851,1.8423,1.8479,1.8609,1.8312,1.8142,1.789,1.7453,1.7283,1.7319,1.7014,1.66,1.6244,1.6079,1.5738,1.5325,1.5037,1.4505,1.3839,1.3708,1.337,1.2893,1.263,1.2458,1.2262,1.1947,1.171,1.1502,1.1354,1.1394,1.156,1.1717,1.1881,1.2205,1.2427,1.2194,1.1631,1.1906,1.2468,1.3142,1.3531,1.4305,1.5331,1.583,1.6234,1.668,1.7191,1.7578,1.7884,1.8263,1.8638,1.8915,1.9251,1.9473,1.9759,1.9914,2.0067,2.0233,2.0398,2.0511,2.0511,2.0612,2.0662,2.0575,2.0675,2.0788,2.0875,2.0911,2.0997,2.0947,2.0898,2.0997,2.0997,2.0898,2.0898,2.0898,2.0885,2.0898,2.0848,2.0835,2.0934,2.0934,2.0779,2.0532,2.0228,1.9885,1.8969,1.8119,1.727,1.6797,1.6697,1.6629,1.6473,1.6374,1.6275,1.6175,1.6144,1.61,1.6057,1.6013,1.6001,1.5957,1.5925,1.5925,1.5881,1.8544,1.8605,1.8779,1.8805,1.8795,1.8902,1.8931,1.8921,1.8846,1.8799,1.8715,1.867,1.8619,1.8452,1.8202,1.7998,1.7774,1.7319,1.7064,1.7028,1.6908,1.663,1.6202,1.6008,1.5576,1.5158,1.4792,1.4522,1.4205,1.4047,1.378,1.3461,1.3027,1.28,1.2632,1.2337,1.2019,1.1724,1.1689,1.1667,1.1714,1.1934,1.212,1.2305,1.2552,1.2676,1.2541,1.2873,1.3279,1.3747,1.411,1.4702,1.5526,1.6077,1.6457,1.6909,1.7357,1.781,1.8205,1.8583,1.8893,1.921,1.9445,1.9654,1.9926,2.0029,2.0231,2.0372,2.0562,2.0662,2.0662,2.0775,2.0825,2.0788,2.0838,2.0938,2.0961,2.101,2.0997,2.0997,2.0997,2.0997,2.0997,2.0997,2.1046,2.0997,2.0997,2.1046,2.0997,2.1046,2.0997,2.0997,2.097,2.1006,2.074,2.046,1.9853,1.9015,1.8209,1.7362,1.7186,1.6985,1.6771,1.6534,1.6448,1.6362,1.6275,1.6244,1.6231,1.6188,1.6144,1.61,1.6057,1.6013,1.5969,1.8731,1.8719,1.8935,1.904,1.9061,1.917,1.9208,1.9208,1.9075,1.8942,1.8808,1.8674,1.8482,1.8202,1.7998,1.7716,1.7364,1.7047,1.676,1.656,1.65,1.6281,1.5929,1.5584,1.53,1.4935,1.4713,1.4497,1.4289,1.4137,1.3985,1.3665,1.3359,1.3184,1.302,1.2738,1.2456,1.2267,1.2094,1.2005,1.2074,1.2126,1.2251,1.249,1.2736,1.2928,1.3111,1.3459,1.3761,1.407,1.4446,1.5107,1.575,1.6144,1.6591,1.6965,1.7412,1.792,1.8367,1.8649,1.8958,1.9316,1.955,1.9758,2.0016,2.0231,2.0395,2.0536,2.0649,2.0712,2.0775,2.0838,2.0924,2.1023,2.101,2.1059,2.1144,2.1131,2.1131,2.1193,2.1144,2.1131,2.1131,2.1144,2.1144,2.1144,2.1131,2.1131,2.1131,2.1193,2.1131,2.1131,2.118,2.1166,2.1153,2.089,2.0649,1.994,1.9153,1.8325,1.7821,1.7452,1.7211,1.685,1.6663,1.6663,1.659,1.6461,1.6417,1.6374,1.6275,1.6219,1.6175,1.6144,1.61,1.9167,1.8659,1.9055,1.9243,1.9243,1.9131,1.9075,1.9065,1.8875,1.8751,1.8674,1.8405,1.8212,1.7998,1.7716,1.7373,1.6968,1.683,1.6421,1.6008,1.5867,1.5718,1.5655,1.5229,1.4935,1.4864,1.4649,1.4425,1.4137,1.4065,1.384,1.3564,1.347,1.3484,1.3397,1.317,1.3001,1.2848,1.2543,1.248,1.2512,1.2405,1.2484,1.28,1.2944,1.3042,1.3294,1.3718,1.401,1.4139,1.4771,1.5371,1.5876,1.6358,1.6726,1.7011,1.7479,1.7931,1.8367,1.8691,1.9011,1.9368,1.9668,1.9901,2.0169,2.0346,2.0521,2.0636,2.0699,2.0775,2.0838,2.0938,2.1023,2.118,2.1193,2.1277,2.1361,2.1361,2.1361,2.1361,2.141,2.141,2.1375,2.1423,2.1423,2.1423,2.141,2.141,2.1423,2.1423,2.141,2.141,2.1423,2.1375,2.1361,2.1224,2.0946,2.071,2.004,1.9397,1.8511,1.8046,1.7617,1.7295,1.6965,1.6952,1.6859,1.6731,1.6633,1.6577,1.6479,1.638,1.6293,1.6262,1.6231,1.9125,1.8955,1.9079,1.9142,1.9142,1.8942,1.8885,1.8885,1.8684,1.8539,1.8405,1.8212,1.8008,1.7725,1.7314,1.7047,1.6839,1.6482,1.614,1.5797,1.5505,1.5284,1.515,1.5007,1.4792,1.4649,1.4505,1.4353,1.4057,1.3928,1.379,1.3492,1.3492,1.3492,1.3462,1.3397,1.3307,1.3249,1.3085,1.3097,1.3119,1.2866,1.2822,1.3115,1.3075,1.3128,1.3302,1.3838,1.4369,1.4734,1.498,1.54,1.5914,1.6374,1.6751,1.7134,1.7479,1.7986,1.8464,1.8786,1.9105,1.9368,1.9759,2.0003,2.0169,2.0396,2.0547,2.0686,2.0699,2.0762,2.0888,2.0974,2.1109,2.1277,2.1326,2.1375,2.1375,2.141,2.141,2.141,2.1499,2.1547,2.1582,2.163,2.1678,2.1664,2.165,2.165,2.1664,2.165,2.1602,2.1602,2.1616,2.1568,2.152,2.141,2.1321,2.1245,2.0893,2.0481,1.9542,1.87,1.8244,1.7822,1.7527,1.742,1.7127,1.6884,1.6803,1.6893,1.6748,1.6663,1.6565,1.6534,1.6448,1.8875,1.8798,1.8875,1.8885,1.8808,1.8741,1.8684,1.8617,1.8482,1.8414,1.8269,1.7988,1.7784,1.7579,1.7107,1.6839,1.663,1.6211,1.5859,1.5497,1.5133,1.4927,1.4792,1.4792,1.4721,1.4497,1.4433,1.4217,1.3992,1.3863,1.3717,1.3492,1.3492,1.3572,1.3645,1.3637,1.3636,1.3648,1.3582,1.3523,1.3543,1.3349,1.3284,1.342,1.3372,1.3479,1.364,1.407,1.4547,1.497,1.5274,1.5576,1.5961,1.6467,1.6842,1.7301,1.759,1.8018,1.8506,1.8881,1.9146,1.9408,1.9811,2.0055,2.022,2.0409,2.061,2.0686,2.0699,2.0762,2.0911,2.1095,2.1229,2.1361,2.141,2.141,2.141,2.1458,2.1458,2.152,2.1595,2.1705,2.1712,2.1773,2.1759,2.1807,2.1746,2.1759,2.1773,2.1807,2.1793,2.1793,2.1759,2.1712,2.1712,2.1616,2.1554,2.1506,2.1369,2.1097,2.0341,1.9402,1.894,1.8539,1.8131,1.7835,1.7713,1.7553,1.7458,1.7446,1.7196,1.694,1.688,1.6863,1.6764,1.8482,1.8395,1.8482,1.8482,1.8482,1.8482,1.8482,1.8482,1.8337,1.8202,1.8134,1.7852,1.7588,1.7392,1.6968,1.6621,1.6281,1.5929,1.5576,1.5213,1.4856,1.4673,1.468,1.4601,1.4505,1.4433,1.4361,1.4145,1.3863,1.379,1.3717,1.3564,1.3564,1.3637,1.3783,1.3855,1.3928,1.406,1.3924,1.3871,1.3893,1.3898,1.3876,1.3851,1.3857,1.3853,1.4047,1.43,1.4656,1.5029,1.5459,1.5808,1.6114,1.656,1.7011,1.7412,1.7744,1.8061,1.8548,1.8975,1.9239,1.946,1.9875,2.0182,2.0271,2.0485,2.0686,2.0699,2.0699,2.0799,2.0997,2.1229,2.1361,2.141,2.141,2.141,2.1458,2.1506,2.1616,2.1616,2.1759,2.1793,2.1793,2.1855,2.1855,2.1949,2.1935,2.1949,2.1902,2.1949,2.1921,2.1908,2.1874,2.1855,2.1807,2.1807,2.1759,2.1712,2.165,2.1356,2.0826,2.0093,1.9699,1.9274,1.8848,1.8768,1.8821,1.8631,1.8319,1.8131,1.7996,1.7592,1.7243,1.7282,1.7239,1.8482,1.8482,1.8482,1.8482,1.8482,1.8405,1.8337,1.8337,1.8134,1.7998,1.7784,1.7657,1.7323,1.7047,1.663,1.6351,1.614,1.5709,1.5363,1.4935,1.4713,1.467,1.4707,1.4598,1.4464,1.4328,1.4088,1.387,1.3805,1.3659,1.3645,1.3717,1.3717,1.3863,1.3992,1.4065,1.4137,1.4266,1.426,1.4284,1.4364,1.4327,1.4367,1.4405,1.4264,1.41,1.409,1.4419,1.4784,1.5147,1.5508,1.5856,1.6171,1.657,1.7022,1.7468,1.7788,1.8116,1.8548,1.8975,1.9239,1.942,1.9875,2.022,2.0233,2.0498,2.0699,2.0699,2.0699,2.0812,2.0997,2.1229,2.1375,2.141,2.1471,2.1568,2.1554,2.1568,2.1664,2.1759,2.1868,2.193,2.1949,2.2044,2.2091,2.2091,2.2091,2.2091,2.2091,2.2105,2.2077,2.2049,2.2016,2.1996,2.1935,2.1949,2.1902,2.1855,2.1807,2.1684,2.1138,2.0826,2.0381,1.9978,1.956,1.9573,1.9752,1.9368,1.9012,1.8945,1.8821,1.8464,1.8166,1.8022,1.7835,1.8134,1.8124,1.8212,1.8279,1.8279,1.8202,1.8144,1.8134,1.792,1.7784,1.7638,1.7451,1.7176,1.6839,1.6491,1.6211,1.5859,1.5434,1.5078,1.484,1.4792,1.4843,1.4777,1.4793,1.4687,1.4523,1.4245,1.4037,1.3844,1.3726,1.3717,1.379,1.3928,1.4072,1.4209,1.4201,1.4346,1.4425,1.4497,1.4577,1.4673,1.4757,1.48,1.4849,1.4659,1.4364,1.432,1.463,1.493,1.5215,1.5566,1.5961,1.6296,1.6637,1.7032,1.7534,1.7854,1.8182,1.856,1.904,1.9356,1.942,1.9875,2.0131,2.0283,2.0498,2.0699,2.0699,2.0762,2.0861,2.1095,2.1277,2.1375,2.141,2.1533,2.1616,2.1712,2.1759,2.1807,2.1902,2.1996,2.2044,2.2137,2.2231,2.2278,2.2278,2.237,2.2385,2.2366,2.2366,2.2324,2.231,2.2231,2.2184,2.2077,2.2044,2.201,2.1963,2.1916,2.1841,2.1594,2.1301,2.1056,2.0704,2.0408,2.0496,2.055,2.012,1.9825,1.9712,1.9573,1.9375,1.9099,1.8821,1.8658,1.7706,1.7706,1.7862,1.8008,1.8008,1.8008,1.8008,1.8008,1.7784,1.7716,1.7647,1.7304,1.7028,1.676,1.6482,1.607,1.5655,1.5229,1.4864,1.4681,1.4982,1.5024,1.5023,1.5027,1.5071,1.4788,1.4461,1.4229,1.4125,1.3978,1.394,1.3945,1.4072,1.4209,1.4425,1.4425,1.4497,1.4569,1.4649,1.4721,1.4944,1.51,1.5208,1.5155,1.4885,1.4701,1.4692,1.4847,1.5088,1.5274,1.5682,1.6134,1.6534,1.6751,1.7099,1.7656,1.792,1.8247,1.8614,1.904,1.942,1.9433,1.9875,2.0182,2.0283,2.0498,2.0649,2.0749,2.0812,2.0974,2.1193,2.1502,2.1613,2.1648,2.1732,2.1849,2.1917,2.2019,2.203,2.2077,2.2184,2.2231,2.2278,2.237,2.2417,2.2477,2.2569,2.2629,2.2612,2.2626,2.2537,2.2463,2.2417,2.237,2.231,2.2231,2.2152,2.2119,2.2072,2.1996,2.1921,2.173,2.1492,2.1479,2.1377,2.1295,2.1165,2.0833,2.0617,2.0489,2.0328,2.0141,1.9867,1.9573,1.9461,1.7588,1.7706,1.7706,1.7852,1.8008,1.8008,1.8008,1.794,1.7784,1.7657,1.7529,1.7314,1.689,1.6482,1.6342,1.5921,1.5426,1.5007,1.4792,1.4712,1.5038,1.5166,1.5288,1.5481,1.5526,1.5352,1.4959,1.4591,1.4396,1.4312,1.4366,1.4439,1.4444,1.4464,1.4537,1.4569,1.4569,1.4641,1.4721,1.4864,1.5007,1.5267,1.5494,1.5479,1.5208,1.5095,1.504,1.5055,1.5205,1.5556,1.5798,1.6192,1.6648,1.6761,1.7088,1.7601,1.7931,1.8247,1.8614,1.9093,1.9368,1.9525,1.9875,2.0182,2.0283,2.0498,2.0699,2.0762,2.0924,2.1086,2.1193,2.1772,2.2192,2.2333,2.2468,2.2553,2.2617,2.2586,2.248,2.2465,2.247,2.237,2.2477,2.2509,2.2601,2.2646,2.2737,2.2737,2.2752,2.2721,2.2675,2.2601,2.2555,2.2555,2.2555,2.2417,2.2338,2.232,2.2273,2.2231,2.2123,2.203,2.1935,2.1855,2.1759,2.1609,2.1479,2.1363,2.1274,2.1064,2.0982,2.0961,2.0658,2.0341,2.0187,1.7323,1.7432,1.752,1.7725,1.7862,1.7862,1.7852,1.7794,1.7657,1.752,1.7314,1.7028,1.6682,1.6342,1.6202,1.5842,1.5275,1.5007,1.4792,1.4736,1.5173,1.5439,1.5545,1.5808,1.5955,1.5883,1.5501,1.5165,1.4929,1.4926,1.4935,1.4986,1.4872,1.4854,1.4871,1.4664,1.4673,1.4729,1.4872,1.5007,1.5229,1.5647,1.58,1.5748,1.5668,1.5557,1.5414,1.5449,1.5486,1.5732,1.5972,1.6363,1.6637,1.692,1.7145,1.7601,1.792,1.8182,1.856,1.904,1.9303,1.946,1.9926,2.0182,2.0283,2.0498,2.0762,2.0914,2.1305,2.1536,2.1776,2.2376,2.279,2.2999,2.3137,2.3275,2.342,2.3392,2.324,2.304,2.2783,2.2669,2.2569,2.2646,2.2737,2.2814,2.2873,2.2918,2.2918,2.2873,2.2843,2.2783,2.2723,2.2692,2.2692,2.2646,2.2509,2.2505,2.2459,2.237,2.2356,2.2263,2.2217,2.2184,2.2044,2.1855,2.1732,2.1615,2.1623,2.1616,2.1472,2.1295,2.1274,2.1158,2.0907,1.6968,1.7166,1.7323,1.752,1.7706,1.7716,1.7706,1.7647,1.7598,1.7392,1.7166,1.6821,1.6551,1.6272,1.6061,1.5709,1.5204,1.5007,1.4792,1.4832,1.5221,1.5502,1.5623,1.5934,1.6226,1.6131,1.6116,1.5942,1.5506,1.5426,1.5522,1.5474,1.5383,1.5284,1.5221,1.5032,1.4945,1.4953,1.5031,1.5221,1.5568,1.5921,1.6132,1.6167,1.6097,1.5987,1.5938,1.5856,1.5858,1.5959,1.6216,1.6488,1.6761,1.6976,1.7256,1.7656,1.7854,1.817,1.8548,1.904,1.9303,1.942,1.9926,2.0131,2.0283,2.0511,2.0864,2.1159,2.1552,2.2068,2.242,2.2999,2.3455,2.3681,2.3758,2.3885,2.4179,2.4198,2.4055,2.3722,2.3238,2.2968,2.2913,2.2888,2.3008,2.3008,2.3098,2.3083,2.3127,2.3127,2.3098,2.2994,2.2904,2.2814,2.2828,2.2828,2.2737,2.2661,2.2615,2.254,2.254,2.2495,2.2449,2.237,2.2184,2.2044,2.1949,2.1841,2.1779,2.1732,2.1698,2.165,2.1561,2.1513,2.1356,1.6751,1.6978,1.7176,1.7442,1.7638,1.7716,1.7716,1.7647,1.7529,1.7392,1.7166,1.6968,1.6621,1.6272,1.578,1.5576,1.5363,1.515,1.4935,1.4936,1.5233,1.5495,1.5613,1.5842,1.6129,1.6308,1.6378,1.6229,1.6001,1.5893,1.5856,1.5858,1.5747,1.5626,1.5663,1.5426,1.5413,1.5406,1.545,1.5647,1.5921,1.6061,1.6263,1.6374,1.6424,1.6427,1.6562,1.6403,1.6245,1.6377,1.6396,1.6576,1.6807,1.7099,1.7379,1.7656,1.792,1.8247,1.8614,1.904,1.9368,1.9473,1.9875,2.0131,2.0347,2.064,2.1075,2.1741,2.1965,2.2349,2.3028,2.3662,2.4095,2.4352,2.4445,2.4657,2.4944,2.4972,2.4833,2.4713,2.4283,2.3632,2.333,2.3259,2.3275,2.3275,2.3275,2.3319,2.3304,2.3348,2.3319,2.3216,2.3127,2.3038,2.2994,2.3008,2.2963,2.2873,2.2814,2.2754,2.2709,2.2723,2.2586,2.2495,2.237,2.2231,2.2137,2.2016,2.1941,2.186,2.1841,2.1793,2.1746,2.1698,2.1664,1.6412,1.6751,1.6821,1.7088,1.7432,1.752,1.752,1.7442,1.7461,1.7323,1.7038,1.6821,1.6551,1.6132,1.5788,1.5584,1.5505,1.5292,1.5141,1.5135,1.5349,1.5535,1.5635,1.6006,1.6333,1.6283,1.6456,1.6566,1.6429,1.6374,1.6354,1.6291,1.6087,1.6054,1.61,1.594,1.5822,1.5798,1.5859,1.5947,1.614,1.6272,1.6542,1.676,1.6784,1.6947,1.6996,1.708,1.6815,1.683,1.6808,1.6911,1.6938,1.7145,1.7479,1.7711,1.8084,1.8356,1.8614,1.9028,1.9251,1.9525,1.9875,2.0283,2.0487,2.0936,2.1363,2.1807,2.2617,2.3218,2.3689,2.4327,2.4737,2.5012,2.5038,2.5376,2.5562,2.5649,2.5615,2.5466,2.5311,2.467,2.4071,2.3792,2.3674,2.3451,2.3494,2.3581,2.3566,2.3523,2.3494,2.3422,2.3319,2.3216,2.3216,2.3172,2.3187,2.3142,2.3142,2.3038,2.2994,2.2949,2.2814,2.2723,2.2586,2.2449,2.231,2.2217,2.2109,2.2016,2.1983,2.1935,2.1888,2.1793,2.1746,1.5991,1.6542,1.6603,1.6811,1.7166,1.7392,1.7392,1.7235,1.7392,1.7263,1.6908,1.6673,1.6394,1.6132,1.5921,1.5709,1.5576,1.5505,1.5426,1.5392,1.546,1.5495,1.5707,1.6094,1.6355,1.6365,1.675,1.6878,1.6902,1.6878,1.6862,1.6804,1.6541,1.6589,1.6571,1.646,1.6337,1.6207,1.6312,1.6334,1.6289,1.6542,1.676,1.6968,1.7207,1.7445,1.7512,1.7615,1.7423,1.741,1.7298,1.7318,1.7209,1.7411,1.7612,1.7822,1.8139,1.8452,1.8667,1.8975,1.9251,1.9525,1.9888,2.0334,2.0664,2.1312,2.189,2.2165,2.3085,2.3824,2.4339,2.4872,2.5135,2.537,2.5494,2.5879,2.615,2.6058,2.6141,2.6214,2.6041,2.576,2.5144,2.4522,2.4104,2.3744,2.3711,2.3839,2.3812,2.3769,2.3756,2.3699,2.3714,2.3612,2.3583,2.3524,2.348,2.3451,2.3451,2.3319,2.3231,2.3127,2.3038,2.2904,2.2814,2.2723,2.2586,2.2449,2.2263,2.2217,2.2184,2.2137,2.2044,2.1935,2.1841,1.563,1.6342,1.6542,1.6821,1.7235,1.7392,1.7392,1.7235,1.7392,1.7263,1.6899,1.6673,1.6464,1.6263,1.6035,1.5833,1.5797,1.5568,1.5568,1.5505,1.5333,1.5524,1.5766,1.6137,1.6464,1.6735,1.7024,1.7212,1.731,1.7229,1.7221,1.7115,1.6952,1.7163,1.7202,1.7054,1.692,1.675,1.6747,1.6715,1.6668,1.6778,1.7047,1.7245,1.7657,1.7978,1.793,1.8071,1.8094,1.8102,1.7891,1.7621,1.7593,1.771,1.779,1.7833,1.8247,1.8506,1.8709,1.904,1.9316,1.9565,1.9875,2.0334,2.0688,2.1351,2.1956,2.2644,2.3527,2.4215,2.472,2.509,2.53,2.5467,2.5633,2.5948,2.6165,2.6272,2.6409,2.6769,2.6716,2.6391,2.6198,2.5573,2.4717,2.428,2.387,2.3982,2.4058,2.4046,2.4076,2.4106,2.4122,2.4064,2.4033,2.4051,2.4161,2.4028,2.3879,2.3613,2.3363,2.326,2.326,2.3172,2.3053,2.2949,2.2859,2.2723,2.2555,2.2463,2.237,2.2278,2.2184,2.2091,2.1996,1.5621,1.6272,1.6412,1.6612,1.7038,1.7332,1.7392,1.7245,1.7392,1.7254,1.6908,1.6603,1.6524,1.6394,1.6175,1.6035,1.607,1.607,1.5991,1.5921,1.5885,1.5803,1.5956,1.6204,1.647,1.671,1.7062,1.7392,1.7392,1.7473,1.7554,1.7546,1.7465,1.7456,1.751,1.7627,1.7561,1.7459,1.7331,1.718,1.7213,1.7209,1.7392,1.7735,1.7803,1.8212,1.8442,1.8645,1.8671,1.8595,1.8552,1.8309,1.8002,1.8032,1.7935,1.7834,1.8336,1.856,1.8667,1.9093,1.9525,1.9875,2.0131,2.0347,2.0767,2.168,2.2352,2.3031,2.3864,2.4691,2.4896,2.5244,2.5439,2.5536,2.5688,2.5948,2.6165,2.6286,2.6592,2.6909,2.6982,2.6867,2.6707,2.6572,2.5667,2.4849,2.4435,2.4185,2.4383,2.4551,2.4673,2.4767,2.4828,2.4994,2.4994,2.4952,2.4954,2.4697,2.4383,2.4116,2.385,2.3538,2.348,2.3407,2.3319,2.3216,2.3083,2.2963,2.2843,2.2601,2.2509,2.2463,2.237,2.2231,2.2255,1.563,1.6272,1.6272,1.6551,1.6908,1.7332,1.7382,1.7235,1.7451,1.7314,1.6968,1.6742,1.6603,1.6533,1.6385,1.6263,1.6272,1.6281,1.6272,1.6202,1.614,1.607,1.6188,1.653,1.6868,1.6868,1.7384,1.7797,1.7878,1.7806,1.7968,1.804,1.7959,1.7951,1.798,1.8118,1.8231,1.8177,1.8088,1.7796,1.7738,1.782,1.7753,1.8057,1.8144,1.8414,1.8741,1.8936,1.9041,1.9071,1.8988,1.8895,1.8578,1.8342,1.826,1.8226,1.834,1.8572,1.8721,1.9093,1.9617,2.0029,2.0182,2.0475,2.1144,2.2114,2.2724,2.3272,2.4255,2.5005,2.5005,2.5257,2.5453,2.555,2.5743,2.6002,2.6165,2.634,2.6712,2.7034,2.7085,2.7098,2.7195,2.7061,2.6489,2.5757,2.545,2.5247,2.5277,2.5372,2.5479,2.5617,2.571,2.5892,2.603,2.5847,2.5605,2.5499,2.5211,2.4819,2.4519,2.416,2.3801,2.3668,2.3581,2.3436,2.3304,2.3231,2.3008,2.2737,2.2646,2.2555,2.2509,2.2445,2.2536,1.5613,1.6272,1.6272,1.656,1.6908,1.7323,1.7392,1.7304,1.751,1.751,1.7166,1.6959,1.683,1.6682,1.6594,1.6473,1.6412,1.6342,1.6342,1.6412,1.6342,1.6281,1.6528,1.6861,1.7217,1.7623,1.8039,1.8355,1.8531,1.846,1.854,1.8692,1.8683,1.8603,1.87,1.8843,1.8864,1.877,1.8889,1.8555,1.837,1.8498,1.8387,1.8399,1.8592,1.8883,1.8952,1.9142,1.9333,1.9456,1.9383,1.9356,1.9353,1.8837,1.8621,1.8657,1.8623,1.863,1.8667,1.9146,1.9668,2.008,2.0233,2.0578,2.1484,2.2379,2.3058,2.3567,2.4487,2.4964,2.5131,2.5244,2.5439,2.555,2.5743,2.5948,2.6179,2.6286,2.6659,2.6974,2.7181,2.7276,2.7435,2.7428,2.704,2.6627,2.6457,2.6272,2.6118,2.6197,2.6289,2.6412,2.6581,2.6765,2.6826,2.6505,2.6275,2.6184,2.6031,2.5651,2.5317,2.503,2.4622,2.4167,2.3932,2.3923,2.3672,2.3436,2.3216,2.3008,2.2737,2.2646,2.2615,2.2712,2.2904,1.5273,1.5978,1.6235,1.6551,1.6899,1.7323,1.7461,1.7451,1.7588,1.7579,1.7373,1.7088,1.6941,1.695,1.6821,1.676,1.6691,1.6691,1.6691,1.67,1.6612,1.6533,1.666,1.7,1.7273,1.7601,1.8071,1.8576,1.87,1.878,1.8922,1.9073,1.932,1.9311,1.924,1.9311,1.9376,1.9462,1.9468,1.9372,1.9325,1.9262,1.9132,1.8923,1.9158,1.9162,1.9106,1.9351,1.9605,1.9813,1.9749,1.9874,1.9843,1.9392,1.9338,1.9091,1.8934,1.9076,1.9172,1.9512,1.9823,2.0118,2.0322,2.0759,2.1615,2.2392,2.3085,2.385,2.4568,2.4951,2.5061,2.5313,2.5508,2.555,2.5688,2.5962,2.6125,2.6233,2.65,2.6817,2.7041,2.7437,2.767,2.7792,2.7514,2.7287,2.7072,2.6703,2.6488,2.6826,2.7011,2.7211,2.7395,2.761,2.7641,2.7349,2.7088,2.6965,2.6857,2.6627,2.6275,2.5848,2.5377,2.4891,2.4622,2.4383,2.422,2.3954,2.351,2.3216,2.3272,2.325,2.3305,2.3382,2.3512,1.4959,1.5606,1.5969,1.6345,1.6734,1.7267,1.7539,1.7666,1.7716,1.7647,1.752,1.7207,1.7148,1.7235,1.7185,1.7125,1.7116,1.7116,1.7116,1.7116,1.6968,1.6959,1.7018,1.7151,1.767,1.7895,1.8294,1.877,1.9152,1.917,1.9231,1.9548,1.9863,1.9942,1.9784,1.9784,1.9863,1.9993,2.0043,2.0002,2.0003,2.0032,1.9858,1.9575,1.9548,1.9561,1.9421,1.955,1.9736,1.9998,2.015,2.0256,2.018,2.0065,1.9992,1.9714,1.9653,1.9813,2.0012,2.0263,2.0646,2.0872,2.0668,2.1069,2.1957,2.2764,2.35,2.4215,2.4745,2.4881,2.5075,2.5313,2.5494,2.555,2.5688,2.5948,2.6071,2.6233,2.6394,2.6727,2.7041,2.7437,2.7806,2.7989,2.7954,2.7776,2.761,2.7288,2.698,2.7334,2.7642,2.7796,2.7934,2.8042,2.815,2.815,2.7904,2.7782,2.7581,2.7349,2.7026,2.6596,2.6137,2.571,2.5438,2.5195,2.4923,2.4594,2.4417,2.4298,2.4236,2.4217,2.4107,2.4152,2.4298,1.4501,1.5225,1.5646,1.5941,1.6425,1.7098,1.7628,1.794,1.7794,1.7716,1.7706,1.752,1.7461,1.747,1.747,1.747,1.7401,1.7461,1.7401,1.7401,1.7323,1.7392,1.7505,1.776,1.8003,1.8516,1.892,1.9105,1.9797,1.9794,1.9784,1.9942,2.0186,2.0342,2.0333,2.0333,2.0333,2.0527,2.0566,2.0609,2.0647,2.0731,2.0441,2.0144,1.9934,1.987,1.9758,1.9735,1.9889,2.0074,2.0259,2.0453,2.0501,2.0398,2.0465,2.0554,2.0616,2.0685,2.0834,2.1106,2.1407,2.154,2.1572,2.2022,2.2618,2.3312,2.3889,2.4487,2.4964,2.4978,2.5018,2.5257,2.5508,2.5605,2.5743,2.5893,2.6056,2.6233,2.6394,2.6659,2.7026,2.7335,2.769,2.789,2.8103,2.8128,2.801,2.8042,2.7796,2.7888,2.8134,2.815,2.8273,2.8334,2.8411,2.8411,2.8334,2.8059,2.8136,2.7965,2.7642,2.7334,2.6949,2.6581,2.6275,2.597,2.5559,2.5545,2.5652,2.553,2.5211,2.5144,2.5029,2.5114,2.5248,1.4183,1.4799,1.518,1.5611,1.6123,1.6902,1.7514,1.792,1.794,1.794,1.793,1.7725,1.7657,1.7657,1.7539,1.7529,1.7461,1.7461,1.7461,1.7529,1.7529,1.7529,1.7586,1.7729,1.8076,1.8502,1.889,1.9336,1.979,2.0089,2.0255,2.0411,2.0576,2.0819,2.0896,2.0886,2.0964,2.0964,2.1031,2.1094,2.1176,2.1257,2.0977,2.0814,2.055,2.0424,2.0283,1.9974,2.0085,2.0281,2.0475,2.0669,2.0805,2.0923,2.116,2.1128,2.1039,2.1018,2.1313,2.166,2.1946,2.2321,2.2528,2.2971,2.3402,2.3781,2.424,2.4732,2.5005,2.5005,2.5075,2.5257,2.5453,2.5605,2.5743,2.5893,2.6002,2.6111,2.634,2.6621,2.6922,2.7284,2.759,2.784,2.8005,2.8137,2.8299,2.8348,2.8411,2.8411,2.8411,2.8411,2.8411,2.8411,2.8411,2.8411,2.8411,2.8365,2.8381,2.8365,2.815,2.7873,2.7688,2.7396,2.698,2.6566,2.6107,2.623,2.6504,2.6336,2.609,2.6036,2.6009,2.6079,2.616,1.3738,1.4409,1.4781,1.535,1.6038,1.6596,1.7079,1.7473,1.7852,1.8008,1.8008,1.7862,1.7794,1.7794,1.7735,1.7735,1.7735,1.7745,1.7745,1.7735,1.7666,1.7735,1.7676,1.7714,1.8069,1.85,1.8912,1.9351,1.9985,2.045,2.0731,2.0809,2.0984,2.1128,2.1205,2.1282,2.1425,2.1425,2.1425,2.1512,2.1589,2.1721,2.1668,2.1534,2.1216,2.1096,2.0744,2.0389,2.049,2.0584,2.0733,2.0914,2.1094,2.1451,2.1729,2.1777,2.193,2.1968,2.2259,2.2579,2.2742,2.305,2.351,2.3894,2.4073,2.4348,2.4579,2.4881,2.4978,2.5005,2.5131,2.5244,2.5383,2.5508,2.5702,2.5893,2.5948,2.6042,2.6272,2.65,2.6817,2.7181,2.7488,2.769,2.789,2.8054,2.8201,2.8348,2.8396,2.8411,2.8411,2.8411,2.8411,2.8411,2.8411,2.8411,2.8411,2.8411,2.8396,2.8396,2.8411,2.8319,2.8057,2.7811,2.7565,2.7241,2.7011,2.7133,2.727,2.7101,2.6991,2.7046,2.7003,2.701,2.7106,1.3415,1.4054,1.4444,1.5221,1.6059,1.6306,1.6481,1.6714,1.75,1.792,1.792,1.7988,1.8008,1.794,1.794,1.794,1.794,1.794,1.7872,1.8008,1.794,1.794,1.8008,1.8047,1.832,1.8672,1.9105,1.9497,2.0222,2.0705,2.1051,2.1215,2.1282,2.1436,2.1578,2.1655,2.1807,2.1949,2.1807,2.1807,2.2035,2.2048,2.2062,2.186,2.1822,2.1745,2.13,2.104,2.1041,2.1012,2.099,2.1169,2.1498,2.1812,2.2037,2.2372,2.2565,2.2767,2.3027,2.3334,2.3716,2.4,2.439,2.4513,2.456,2.4646,2.4867,2.4908,2.5005,2.5005,2.5075,2.5313,2.5453,2.5564,2.5702,2.5853,2.5948,2.6056,2.6218,2.65,2.6779,2.7078,2.7321,2.7575,2.779,2.794,2.8152,2.8299,2.8348,2.8396,2.8411,2.8411,2.8411,2.8411,2.8411,2.8411,2.8411,2.8411,2.8411,2.8411,2.8411,2.8411,2.8411,2.8165,2.795,2.8134,2.8119,2.7994,2.7902,2.7915,2.7865,2.8,2.7993,2.7769,2.77,1.364,1.4079,1.4657,1.5059,1.5362,1.5901,1.6221,1.6269,1.6787,1.7227,1.7539,1.7832,1.7988,1.7949,1.7998,1.8008,1.8008,1.8008,1.8008,1.8008,1.8008,1.8144,1.8212,1.8221,1.8527,1.8894,1.9303,1.9653,2.0336,2.0883,2.1262,2.1415,2.1568,2.1721,2.1873,2.2035,2.2176,2.2327,2.2252,2.2176,2.2338,2.2402,2.2296,2.2327,2.2364,2.2319,2.1948,2.1575,2.1609,2.159,2.1266,2.1493,2.1945,2.2159,2.2383,2.2726,2.2969,2.3198,2.3497,2.3819,2.4112,2.4332,2.4549,2.4677,2.4835,2.4892,2.4935,2.5005,2.5005,2.5005,2.5075,2.5327,2.5508,2.5605,2.5757,2.5798,2.5893,2.6056,2.6218,2.6447,2.6674,2.6922,2.7167,2.7423,2.7625,2.7825,2.8088,2.8235,2.8299,2.8348,2.8411,2.8411,2.8411,2.8411,2.8411,2.8411,2.8411,2.8411,2.8411,2.8411,2.8411,2.8411,2.8411,2.8411,2.835,2.8411,2.8411,2.835,2.8286,2.8348,2.8299,2.825,2.825,2.8091,2.8024,1.37,1.4061,1.4734,1.5029,1.5195,1.5565,1.5771,1.5859,1.625,1.6562,1.6885,1.7402,1.7725,1.7783,1.791,1.7988,1.7988,1.8076,1.8144,1.8144,1.8212,1.8279,1.8347,1.8414,1.8514,1.8912,1.9253,1.9748,2.0439,2.1005,2.1401,2.1624,2.1858,2.209,2.2241,2.2327,2.2478,2.2553,2.2617,2.2703,2.2703,2.2777,2.2777,2.287,2.2908,2.2872,2.2581,2.2229,2.2036,2.2001,2.1818,2.1883,2.2246,2.2469,2.2665,2.2957,2.3198,2.345,2.3747,2.3982,2.4274,2.4492,2.4664,2.4791,2.4892,2.4948,2.4948,2.5005,2.5005,2.5005,2.5075,2.5257,2.5453,2.5564,2.5757,2.5907,2.5948,2.6056,2.6111,2.6218,2.65,2.6712,2.6959,2.7218,2.7423,2.7725,2.7925,2.8137,2.8186,2.8299,2.8348,2.8411,2.8411,2.8411,2.8411,2.8411,2.8411,2.8411,2.8411,2.8411,2.8411,2.8411,2.8411,2.8411,2.8411,2.8411,2.8411,2.8411,2.8411,2.8396,2.8411,2.8411,2.8348,2.8348,2.825,1.3752,1.4189,1.4734,1.5098,1.5215,1.5371,1.543,1.5498,1.582,1.5986,1.6184,1.6919,1.7252,1.7497,1.7715,1.7919,1.8017,1.825,1.8259,1.8347,1.8414,1.8482,1.8549,1.8617,1.8735,1.9032,1.9445,1.9844,2.0419,2.0928,2.1376,2.1764,2.2104,2.2414,2.2456,2.2553,2.2692,2.2927,2.3001,2.3139,2.315,2.315,2.3224,2.3372,2.3486,2.3514,2.3228,2.2891,2.259,2.2456,2.2329,2.2392,2.2493,2.2776,2.2969,2.3198,2.345,2.37,2.3949,2.4216,2.4434,2.4607,2.4721,2.4892,2.4948,2.5005,2.5005,2.5005,2.5005,2.5005,2.5131,2.5257,2.5439,2.5564,2.5757,2.5893,2.5948,2.6002,2.6056,2.6125,2.6326,2.6539,2.6803,2.7026,2.7284,2.7524,2.7775,2.7989,2.8137,2.8299,2.8411,2.8411,2.8411,2.8411,2.8411,2.8411,2.8411,2.8411,2.8411,2.8411,2.8411,2.8411,2.8411,2.8411,2.8411,2.8411,2.8411,2.8411,2.8411,2.8411,2.8411,2.8411,2.8411,2.8396,2.8411,1.4181,1.4666,1.4921,1.5098,1.5205,1.5362,1.542,1.543,1.5488,1.5537,1.5762,1.6176,1.6671,1.7119,1.7481,1.7744,1.7879,1.8155,1.8442,1.8482,1.8596,1.8674,1.8751,1.8942,1.9142,1.9431,1.9739,2.017,2.0429,2.0843,2.1339,2.1677,2.2147,2.2546,2.2894,2.3065,2.3309,2.3383,2.3457,2.353,2.3519,2.353,2.3519,2.3666,2.3886,2.3986,2.3833,2.3386,2.3273,2.3221,2.2941,2.2813,2.2861,2.3019,2.3198,2.3437,2.3747,2.3878,2.4112,2.439,2.4607,2.4721,2.4835,2.4948,2.5005,2.5005,2.5005,2.5061,2.5061,2.5061,2.5131,2.5313,2.5508,2.5592,2.5743,2.5839,2.5948,2.5948,2.6002,2.6056,2.6233,2.6486,2.6712,2.6974,2.7233,2.7488,2.774,2.7955,2.8054,2.8201,2.8411,2.8411,2.8411,2.8411,2.8411,2.8411,2.8411,2.8411,2.8411,2.8411,2.8411,2.8411,2.8411,2.8411,2.8411,2.8411,2.8411,2.8411,2.8411,2.8411,2.8411,2.8411,2.8411,2.8411,2.8411]},{"header":{"parameterUnit":"m.s-1","parameterCategory":1,"la1":31.0,"la2":29.5877,"lo1":-88.7671,"lo2":-86.6584,"dy":0.0162,"dx":0.0185,"nx":115,"ny":88,"refTime":"2023-06-01T06:00:00:Z","depth":0,"parameterNumber":3,"parameterNumberName":"V-component_of_WINDS"},"data":[0.0,0.0,0.0,0.0,0.0,0.0,0.0,0.0,0.0,0.0,0.0,0.0,0.0,0.0,0.0,0.0,0.0,0.0,0.0,0.0,0.0,0.0,0.0,0.0,0.0,0.0,0.0,0.0,0.0,0.0,0.0,0.0,0.0,0.0,0.0,0.0,0.0,0.0,0.0,0.0,0.0,0.0,0.0,0.0,0.0,0.0,0.0,0.0,0.0,0.0,0.0,0.0,0.0,0.0,0.0,0.0,0.0,0.0,0.0,0.0,0.0,0.0,0.0,0.0,0.0,0.0,0.0,0.0,0.0,0.0,0.0,0.0,0.0,0.0,0.0,0.0,0.0,0.0,0.0,0.0,0.0,0.0,0.0,0.0,0.0,0.0,0.0,0.0,0.0,0.0,0.0,0.0,0.0,0.0,0.0,0.0,0.0,0.0,0.0,0.0,0.0,0.0,0.0,0.0,0.0,0.0,0.0,0.0,0.0,0.0,0.0,0.0,0.0,0.0,0.0,0.0,0.0,0.0,0.0,0.0,0.0,0.0,0.0,0.0,0.0,0.0,0.0,0.0,0.0,0.0,0.0,0.0,0.0,0.0,0.0,0.0,0.0,0.0,0.0,0.0,0.0,0.0,0.0,0.0,0.0,0.0,0.0,0.0,0.0,0.0,0.0,0.0,0.0,0.0,0.0,0.0,0.0,0.0,0.0,0.0,0.0,0.0,0.0,0.0,0.0,0.0,0.0,0.0,0.0,0.0,0.0,0.0,0.0,0.0,0.0,0.0,0.0,0.0,0.0,0.0,0.0,0.0,0.0,0.0,0.0,0.0,0.0,0.0,0.0,0.0,0.0,0.0,0.0,0.0,0.0,0.0,0.0,0.0,0.0,0.0,0.0,0.0,0.0,0.0,0.0,0.0,0.0,0.0,0.0,0.0,0.0,0.0,0.0,0.0,0.0,0.0,0.0,0.0,0.0,0.0,0.0,0.0,0.0,0.0,0.0,0.0,0.0,0.0,0.0,0.0,0.0,0.0,0.0,0.0,0.0,0.0,0.0,0.0,0.0,0.0,0.0,0.0,0.0,0.0,0.0,0.0,0.0,0.0,0.0,0.0,0.0,0.0,0.0,0.0,0.0,0.0,0.0,0.0,0.0,0.0,0.0,0.0,0.0,0.0,0.0,0.0,0.0,0.0,0.0,0.0,0.0,0.0,0.0,0.0,0.0,0.0,0.0,0.0,0.0,0.0,0.0,0.0,0.0,0.0,0.0,0.0,0.0,0.0,0.0,0.0,0.0,0.0,0.0,0.0,0.0,0.0,0.0,0.0,0.0,0.0,0.0,0.0,0.0,0.0,0.0,0.0,0.0,0.0,0.0,0.0,0.0,0.0,0.0,0.0,0.0,0.0,0.0,0.0,0.0,0.0,0.0,0.0,0.0,0.0,0.0,0.0,0.0,0.0,0.0,0.0,0.0,0.0,0.0,0.0,0.0,0.0,0.0,0.0,0.0,0.0,0.0,0.0,0.0,0.0,0.0,0.0,0.0,0.0,0.0,0.0,0.0,0.0,0.0,0.0,0.0,0.0,0.0,0.0,0.0,0.0,0.0,0.0,0.0,0.0,0.0,0.0,0.0,0.0,0.0,0.0,0.0,0.0,0.0,0.0,0.0,0.0,0.0,0.0,0.0,0.0,0.0,0.0,0.0,0.0,0.0,0.0,0.0,0.0,0.0,0.0,0.0,0.0,0.0,0.0,0.0,0.0,0.0,0.0,0.0,0.0,0.0,0.0,0.0,0.0,0.0,0.0,0.0,0.0,0.0,0.0,0.0,0.0,0.0,0.0,0.0,0.0,0.0,0.0,0.0,0.0,0.0,0.0,0.0,0.0,0.0,0.0,0.0,0.0,0.0,0.0,0.0,0.0,0.0,0.0,0.0,0.0,0.0,0.0,0.0,0.0,0.0,0.0,0.0,0.0,0.0,0.0,0.0,0.0,0.0,0.0,0.0,0.0,0.0,0.0,0.0,0.0,0.0,0.0,0.0,0.0,0.0,0.0,0.0,0.0,0.0,0.0,0.0,0.0,0.0,0.0,0.0,0.0,0.0,0.0,0.0,0.0,0.0,0.0,0.0,0.0,0.0,0.0,0.0,0.0,0.0,0.0,0.0,0.0,0.0,0.0,0.0,0.0,0.0,0.0,0.0,0.0,0.0,0.0,0.0,0.0,0.0,0.0,0.0,0.0,0.0,0.0,0.0,0.0,0.0,0.0,0.0,0.0,0.0,0.0,0.0,0.0,0.0,0.0,0.0,0.0,0.0,0.0,0.0,0.0,0.0,0.0,0.0,0.0,0.0,0.0,0.0,0.0,0.0,0.0,0.0,0.0,0.0,0.0,0.0,0.0,0.0,0.0,0.0,0.0,0.0,0.0,0.0,0.0,0.0,0.0,0.0,0.0,0.0,0.0,0.0,0.0,0.0,0.0,0.0,0.0,0.0,0.0,0.0,0.0,0.0,0.0,0.0,0.0,0.0,0.0,0.0,0.0,0.0,0.0,0.0,0.0,0.0,0.0,0.0,0.0,0.0,0.0,0.0,0.0,0.0,0.0,0.0,0.0,0.0,0.0,0.0,0.0,0.0,0.0,0.0,0.0,0.0,0.0,0.0,0.0,0.0,0.0,0.0,0.0,0.0,0.0,0.0,0.0,0.0,0.0,0.0,0.0,0.0,0.0,0.0,0.0,0.0,0.0,0.0,0.0,0.0,0.0,0.0,0.0,0.0,0.0,0.0,0.0,0.0,0.0,0.0,0.0,0.0,0.0,0.0,0.0,0.0,0.0,0.0,0.0,0.0,0.0,0.0,0.0,0.0,0.0,0.0,0.0,0.0,0.0,0.0,0.0,0.0,0.0,0.0,0.0,0.0,0.0,0.0,0.0,0.0,0.0,0.0,0.0,0.0,0.0,0.0,0.0,0.0,0.0,0.0,0.0,0.0,0.0,0.0,0.0,0.0,0.0,0.0,0.0,0.0,0.0,0.0,0.0,0.0,0.0,0.0,0.0,0.0,0.0,0.0,0.0,0.0,0.0,0.0,0.0,0.0,0.0,0.0,0.0,0.0,0.0,0.0,0.0,0.0,0.0,0.0,0.0,0.0,0.0,0.0,0.0,0.0,0.0,0.0,0.0,0.0,0.0,0.0,0.0,0.0,0.0,0.0,0.0,0.0,0.0,0.0,0.0,0.0,0.0,0.0,0.0,0.0,0.0,0.0,0.0,0.0,0.0,0.0,0.0,0.0,0.0,0.0,0.0,0.0,0.0,0.0,0.0,0.0,0.0,0.0,0.0,0.0,0.0,0.0,0.0,0.0,0.0,0.0,0.0,0.0,0.0,0.0,0.0,0.0,0.0,0.0,0.0,0.0,0.0,0.0,0.0,0.0,0.0,0.0,0.0,0.0,0.0,0.0,0.0,0.0,0.0,0.0,0.0,0.0,0.0,0.0,0.0,0.0,0.0,0.0,0.0,0.0,0.0,0.0,0.0,0.0,0.0,0.0,0.0,0.0,0.0,0.0,0.0,0.0,0.0,0.0,0.0,0.0,0.0,0.0,0.0,0.0,0.0,0.0,0.0,0.0,0.0,0.0,0.0,0.0,0.0,0.0,0.0,0.0,0.0,0.0,0.0,0.0,0.0,0.0,0.0,0.0,0.0,0.0,0.0,0.0,0.0,0.0,0.0,0.0,0.0,0.0,0.0,0.0,0.0,0.0,0.0,0.0,0.0,0.0,0.0,0.0,0.0,0.0,0.0,0.0,0.0,0.0,0.0,0.0,0.0,0.0,0.0,0.0,0.0,0.0,0.0,0.0,0.0,0.0,0.0,0.0,0.0,0.0,0.0,0.0,0.0,0.0,0.0,0.0,0.0,0.0,0.0,0.0,0.0,0.0,0.0,0.0,0.0,0.0,0.0,0.0,0.0,0.0,0.0,0.0,0.0,0.0,0.0,0.0,0.0,0.0,0.0,0.0,0.0,0.0,0.0,0.0,0.0,0.0,0.0,0.0,0.0,0.0,0.0,0.0,0.0,0.0,0.0,0.0,0.0,0.0,0.0,0.0,0.0,0.0,0.0,0.0,0.0,0.0,0.0,0.0,0.0,0.0,0.0,0.0,0.0,0.0,0.0,0.0,0.0,0.0,0.0,0.0,0.0,0.0,0.0,0.0,0.0,0.0,0.0,0.0,0.0,0.0,0.0,0.0,0.0,0.0,0.0,0.0,0.0,0.0,0.0,0.0,0.0,-1.5652,0.0,0.0,0.0,0.0,0.0,0.0,0.0,0.0,0.0,0.0,0.0,0.0,0.0,0.0,0.0,0.0,0.0,0.0,0.0,0.0,0.0,0.0,0.0,0.0,0.0,0.0,0.0,0.0,0.0,0.0,0.0,0.0,0.0,0.0,0.0,0.0,0.0,0.0,0.0,0.0,0.0,0.0,0.0,0.0,0.0,0.0,0.0,0.0,0.0,0.0,0.0,0.0,0.0,0.0,0.0,0.0,0.0,0.0,0.0,0.0,0.0,0.0,0.0,0.0,0.0,0.0,0.0,0.0,0.0,0.0,0.0,0.0,0.0,0.0,0.0,0.0,0.0,0.0,0.0,0.0,0.0,0.0,0.0,0.0,0.0,0.0,0.0,0.0,0.0,0.0,0.0,0.0,0.0,0.0,0.0,0.0,0.0,0.0,0.0,0.0,0.0,0.0,0.0,0.0,0.0,0.0,0.0,0.0,0.0,0.0,-1.5491,-1.5556,-1.5885,-1.604,-1.6024,0.0,0.0,0.0,0.0,0.0,0.0,0.0,0.0,0.0,0.0,0.0,0.0,0.0,0.0,0.0,0.0,0.0,0.0,0.0,0.0,0.0,0.0,0.0,0.0,0.0,0.0,0.0,0.0,0.0,0.0,0.0,0.0,0.0,0.0,0.0,0.0,0.0,0.0,0.0,0.0,0.0,0.0,0.0,0.0,0.0,0.0,0.0,0.0,0.0,0.0,0.0,0.0,0.0,0.0,0.0,0.0,0.0,0.0,0.0,0.0,0.0,0.0,0.0,0.0,0.0,0.0,0.0,0.0,0.0,0.0,0.0,0.0,0.0,0.0,0.0,0.0,0.0,0.0,0.0,0.0,0.0,0.0,0.0,0.0,0.0,0.0,0.0,0.0,0.0,0.0,0.0,0.0,0.0,0.0,0.0,0.0,0.0,0.0,0.0,0.0,0.0,0.0,0.0,0.0,0.0,0.0,0.0,0.0,0.0,0.0,0.0,0.0,-1.6636,-1.6708,-1.649,0.0,0.0,0.0,0.0,0.0,0.0,0.0,0.0,0.0,0.0,0.0,0.0,0.0,0.0,0.0,0.0,0.0,0.0,0.0,0.0,0.0,0.0,0.0,0.0,0.0,0.0,0.0,0.0,0.0,0.0,0.0,0.0,0.0,0.0,0.0,0.0,0.0,0.0,0.0,0.0,0.0,0.0,0.0,0.0,0.0,0.0,0.0,0.0,0.0,0.0,0.0,0.0,0.0,0.0,0.0,0.0,0.0,0.0,0.0,0.0,0.0,0.0,0.0,0.0,0.0,0.0,0.0,0.0,0.0,0.0,0.0,0.0,0.0,0.0,0.0,0.0,0.0,0.0,0.0,0.0,0.0,0.0,0.0,0.0,0.0,0.0,0.0,0.0,0.0,0.0,0.0,0.0,0.0,0.0,0.0,0.0,0.0,0.0,0.0,0.0,0.0,0.0,0.0,0.0,0.0,0.0,0.0,0.0,0.0,0.0,-1.6895,-1.6572,-1.6954,0.0,-1.7018,0.0,0.0,0.0,0.0,0.0,0.0,0.0,0.0,0.0,0.0,0.0,0.0,0.0,0.0,0.0,0.0,0.0,0.0,0.0,0.0,0.0,0.0,0.0,0.0,0.0,0.0,0.0,0.0,0.0,0.0,0.0,0.0,0.0,0.0,0.0,0.0,0.0,0.0,0.0,0.0,0.0,0.0,0.0,0.0,0.0,0.0,0.0,0.0,0.0,0.0,0.0,0.0,0.0,0.0,0.0,0.0,0.0,0.0,0.0,0.0,0.0,0.0,0.0,0.0,0.0,0.0,0.0,0.0,0.0,0.0,0.0,0.0,0.0,0.0,0.0,0.0,0.0,0.0,0.0,0.0,0.0,0.0,0.0,0.0,0.0,0.0,0.0,0.0,0.0,0.0,0.0,0.0,0.0,0.0,0.0,0.0,0.0,0.0,0.0,0.0,0.0,0.0,0.0,0.0,0.0,0.0,0.0,0.0,0.0,0.0,-1.8052,-1.7436,-1.7208,-1.7165,0.0,0.0,0.0,0.0,0.0,0.0,0.0,0.0,0.0,0.0,0.0,0.0,0.0,0.0,0.0,0.0,0.0,0.0,0.0,0.0,0.0,0.0,0.0,0.0,0.0,0.0,0.0,0.0,0.0,0.0,0.0,0.0,0.0,0.0,0.0,0.0,0.0,0.0,0.0,0.0,0.0,0.0,0.0,0.0,0.0,0.0,0.0,0.0,0.0,0.0,0.0,0.0,0.0,0.0,0.0,0.0,0.0,0.0,0.0,0.0,0.0,0.0,0.0,0.0,0.0,0.0,0.0,0.0,0.0,0.0,0.0,0.0,0.0,0.0,0.0,0.0,0.0,0.0,0.0,0.0,0.0,0.0,0.0,0.0,0.0,0.0,0.0,0.0,0.0,0.0,0.0,0.0,0.0,0.0,0.0,0.0,0.0,0.0,0.0,0.0,0.0,0.0,0.0,0.0,0.0,0.0,0.0,0.0,0.0,0.0,-1.8534,-1.9016,-1.8254,-1.747,-1.7199,-1.7526,0.0,0.0,0.0,0.0,0.0,0.0,0.0,0.0,0.0,0.0,0.0,0.0,0.0,0.0,0.0,0.0,0.0,0.0,0.0,0.0,0.0,0.0,0.0,0.0,0.0,0.0,0.0,0.0,0.0,0.0,0.0,0.0,0.0,0.0,0.0,0.0,0.0,0.0,0.0,0.0,0.0,0.0,0.0,0.0,0.0,0.0,0.0,0.0,0.0,0.0,0.0,0.0,0.0,0.0,0.0,0.0,0.0,0.0,0.0,0.0,0.0,0.0,0.0,0.0,0.0,0.0,0.0,0.0,0.0,0.0,0.0,0.0,0.0,0.0,0.0,0.0,0.0,0.0,0.0,0.0,0.0,0.0,0.0,0.0,0.0,0.0,0.0,0.0,0.0,0.0,0.0,0.0,0.0,0.0,0.0,0.0,0.0,0.0,0.0,0.0,0.0,0.0,0.0,0.0,0.0,0.0,0.0,0.0,0.0,-1.8872,-1.9464,-1.8826,-1.7789,-1.7313,0.0,0.0,0.0,0.0,0.0,0.0,0.0,0.0,0.0,0.0,0.0,0.0,0.0,0.0,0.0,0.0,0.0,0.0,0.0,0.0,0.0,0.0,0.0,0.0,0.0,0.0,0.0,0.0,0.0,0.0,0.0,0.0,0.0,0.0,0.0,0.0,0.0,0.0,0.0,0.0,0.0,0.0,0.0,0.0,0.0,0.0,0.0,0.0,0.0,0.0,0.0,0.0,0.0,0.0,0.0,0.0,0.0,0.0,0.0,0.0,0.0,0.0,0.0,0.0,0.0,0.0,0.0,0.0,0.0,0.0,0.0,0.0,0.0,0.0,0.0,0.0,0.0,0.0,0.0,0.0,0.0,0.0,0.0,0.0,0.0,0.0,0.0,0.0,0.0,0.0,0.0,0.0,0.0,0.0,0.0,0.0,0.0,0.0,0.0,0.0,0.0,0.0,0.0,0.0,0.0,0.0,0.0,0.0,0.0,-1.6914,-1.7884,-1.843,-1.8361,-1.7773,-1.7549,0.0,0.0,0.0,0.0,0.0,0.0,0.0,0.0,0.0,0.0,0.0,0.0,0.0,0.0,0.0,0.0,0.0,0.0,0.0,0.0,0.0,0.0,0.0,0.0,0.0,0.0,0.0,0.0,0.0,0.0,0.0,0.0,0.0,0.0,0.0,0.0,0.0,0.0,0.0,0.0,0.0,0.0,0.0,0.0,0.0,0.0,0.0,0.0,0.0,0.0,0.0,0.0,0.0,0.0,0.0,0.0,0.0,0.0,0.0,0.0,0.0,0.0,0.0,0.0,0.0,0.0,0.0,0.0,0.0,0.0,0.0,0.0,0.0,0.0,0.0,0.0,0.0,0.0,0.0,0.0,0.0,0.0,0.0,0.0,0.0,0.0,0.0,0.0,0.0,0.0,0.0,0.0,0.0,0.0,0.0,0.0,0.0,0.0,0.0,0.0,0.0,0.0,0.0,0.0,0.0,0.0,0.0,0.0,0.0,-1.7319,0.0,-1.7941,0.0,-1.7837,-1.7743,0.0,0.0,0.0,0.0,0.0,0.0,0.0,0.0,0.0,0.0,0.0,0.0,0.0,0.0,0.0,0.0,0.0,0.0,0.0,0.0,0.0,0.0,0.0,0.0,0.0,0.0,0.0,0.0,0.0,0.0,0.0,0.0,0.0,0.0,0.0,0.0,0.0,0.0,0.0,0.0,0.0,0.0,0.0,0.0,0.0,0.0,0.0,0.0,0.0,0.0,0.0,0.0,0.0,0.0,0.0,0.0,0.0,0.0,0.0,0.0,0.0,0.0,0.0,0.0,0.0,0.0,0.0,0.0,0.0,0.0,0.0,0.0,0.0,0.0,0.0,0.0,0.0,0.0,0.0,0.0,0.0,0.0,0.0,0.0,0.0,0.0,0.0,0.0,0.0,0.0,0.0,0.0,0.0,0.0,0.0,0.0,0.0,0.0,0.0,0.0,0.0,0.0,0.0,0.0,0.0,0.0,0.0,0.0,-1.7319,-1.8556,-1.8239,-1.8166,-1.8374,-1.7933,-1.7794,0.0,0.0,0.0,0.0,0.0,0.0,0.0,0.0,0.0,0.0,0.0,0.0,0.0,0.0,0.0,0.0,0.0,0.0,0.0,0.0,0.0,0.0,0.0,0.0,0.0,0.0,0.0,0.0,0.0,0.0,0.0,0.0,0.0,0.0,0.0,0.0,0.0,0.0,0.0,0.0,0.0,0.0,0.0,0.0,0.0,0.0,0.0,0.0,0.0,0.0,0.0,0.0,0.0,0.0,0.0,0.0,0.0,0.0,0.0,0.0,0.0,0.0,0.0,0.0,0.0,0.0,0.0,0.0,0.0,0.0,0.0,0.0,0.0,0.0,0.0,0.0,0.0,0.0,0.0,0.0,0.0,0.0,0.0,0.0,0.0,0.0,0.0,0.0,0.0,0.0,0.0,0.0,0.0,0.0,0.0,0.0,0.0,0.0,0.0,0.0,0.0,0.0,0.0,0.0,0.0,0.0,0.0,0.0,0.0,-1.7482,-1.7548,-1.7658,-1.7923,-1.7867,-1.7944,0.0,0.0,0.0,0.0,0.0,0.0,0.0,0.0,0.0,0.0,0.0,0.0,0.0,0.0,0.0,0.0,0.0,0.0,0.0,0.0,0.0,0.0,0.0,0.0,0.0,0.0,0.0,0.0,0.0,0.0,0.0,0.0,0.0,0.0,0.0,0.0,0.0,0.0,0.0,0.0,0.0,0.0,0.0,0.0,0.0,0.0,0.0,0.0,0.0,0.0,0.0,0.0,0.0,0.0,0.0,0.0,0.0,0.0,0.0,0.0,0.0,0.0,0.0,0.0,0.0,0.0,0.0,0.0,0.0,0.0,0.0,0.0,0.0,0.0,0.0,0.0,0.0,0.0,0.0,0.0,0.0,0.0,0.0,0.0,0.0,0.0,0.0,0.0,0.0,0.0,0.0,0.0,0.0,0.0,0.0,0.0,0.0,0.0,0.0,0.0,0.0,0.0,0.0,0.0,0.0,0.0,0.0,0.0,0.0,-1.7216,-1.7344,-1.7526,-1.7755,-1.7927,-1.8091,-1.8201,0.0,0.0,0.0,0.0,0.0,0.0,0.0,0.0,0.0,0.0,0.0,0.0,0.0,0.0,0.0,0.0,0.0,0.0,0.0,0.0,0.0,0.0,0.0,0.0,0.0,0.0,0.0,0.0,0.0,0.0,0.0,0.0,0.0,0.0,0.0,0.0,0.0,0.0,0.0,0.0,0.0,0.0,0.0,0.0,0.0,0.0,0.0,0.0,0.0,0.0,0.0,0.0,0.0,0.0,0.0,0.0,0.0,0.0,0.0,0.0,0.0,0.0,0.0,0.0,0.0,0.0,0.0,0.0,0.0,0.0,0.0,0.0,0.0,0.0,0.0,0.0,0.0,0.0,0.0,0.0,0.0,0.0,0.0,0.0,0.0,0.0,0.0,0.0,0.0,0.0,0.0,0.0,0.0,0.0,0.0,0.0,0.0,0.0,0.0,0.0,0.0,0.0,0.0,0.0,0.0,0.0,0.0,0.0,-1.7612,-1.7635,-1.7704,-1.7905,-1.8091,-1.8218,0.0,0.0,0.0,0.0,0.0,0.0,0.0,0.0,0.0,0.0,0.0,0.0,0.0,0.0,0.0,0.0,0.0,0.0,0.0,0.0,0.0,0.0,0.0,0.0,0.0,0.0,0.0,0.0,0.0,0.0,0.0,0.0,0.0,0.0,0.0,0.0,0.0,0.0,0.0,0.0,0.0,0.0,0.0,0.0,0.0,0.0,0.0,0.0,0.0,0.0,0.0,0.0,0.0,0.0,0.0,0.0,0.0,0.0,0.0,0.0,0.0,0.0,0.0,0.0,0.0,0.0,0.0,0.0,0.0,0.0,0.0,0.0,0.0,0.0,0.0,0.0,0.0,0.0,0.0,0.0,0.0,0.0,0.0,0.0,0.0,0.0,0.0,0.0,0.0,0.0,0.0,0.0,0.0,0.0,0.0,0.0,0.0,0.0,0.0,0.0,0.0,0.0,0.0,0.0,0.0,0.0,0.0,0.0,0.0,-1.7743,-1.79,-1.8027,-1.813,-1.8176,-1.8266,0.0,0.0,0.0,0.0,0.0,0.0,0.0,0.0,0.0,0.0,0.0,0.0,0.0,0.0,0.0,0.0,0.0,0.0,0.0,0.0,0.0,0.0,0.0,0.0,0.0,0.0,0.0,0.0,0.0,0.0,0.0,0.0,0.0,0.0,0.0,0.0,0.0,0.0,0.0,0.0,0.0,0.0,0.0,0.0,0.0,0.0,0.0,0.0,0.0,0.0,0.0,0.0,0.0,0.0,0.0,0.0,0.0,0.0,0.0,0.0,0.0,0.0,0.0,0.0,0.0,0.0,0.0,0.0,0.0,0.0,0.0,0.0,0.0,0.0,0.0,0.0,0.0,0.0,0.0,0.0,0.0,0.0,0.0,0.0,0.0,0.0,0.0,0.0,0.0,0.0,0.0,0.0,0.0,0.0,0.0,0.0,0.0,0.0,0.0,0.0,0.0,0.0,0.0,0.0,0.0,0.0,0.0,0.0,-1.7681,-1.7922,-1.8117,-1.826,-1.8319,-1.8325,-1.8406,0.0,0.0,0.0,0.0,0.0,0.0,0.0,0.0,0.0,0.0,0.0,0.0,0.0,0.0,0.0,0.0,0.0,0.0,0.0,0.0,0.0,0.0,0.0,0.0,0.0,0.0,0.0,0.0,0.0,0.0,0.0,0.0,0.0,0.0,0.0,0.0,0.0,0.0,0.0,0.0,0.0,0.0,0.0,0.0,0.0,0.0,0.0,0.0,0.0,0.0,0.0,0.0,0.0,0.0,0.0,0.0,0.0,0.0,0.0,0.0,0.0,0.0,0.0,0.0,0.0,0.0,0.0,0.0,0.0,0.0,0.0,0.0,0.0,0.0,0.0,0.0,0.0,0.0,0.0,0.0,0.0,0.0,0.0,0.0,0.0,0.0,0.0,0.0,0.0,0.0,0.0,0.0,0.0,0.0,0.0,0.0,0.0,0.0,0.0,0.0,0.0,0.0,0.0,0.0,0.0,0.0,0.0,0.0,-1.7939,-1.8134,-1.8304,-1.8463,-1.8542,-1.8524,-1.8544,0.0,0.0,0.0,0.0,0.0,0.0,0.0,0.0,0.0,0.0,0.0,0.0,0.0,0.0,0.0,0.0,0.0,0.0,0.0,0.0,0.0,0.0,0.0,0.0,0.0,0.0,0.0,0.0,0.0,0.0,0.0,0.0,0.0,0.0,0.0,0.0,0.0,0.0,0.0,0.0,0.0,0.0,0.0,0.0,0.0,0.0,0.0,0.0,0.0,0.0,0.0,0.0,0.0,0.0,0.0,0.0,0.0,0.0,0.0,0.0,0.0,0.0,0.0,0.0,0.0,0.0,0.0,0.0,0.0,0.0,0.0,0.0,0.0,0.0,0.0,0.0,0.0,0.0,0.0,0.0,0.0,0.0,0.0,0.0,0.0,0.0,0.0,0.0,0.0,0.0,0.0,0.0,0.0,0.0,0.0,0.0,0.0,0.0,0.0,0.0,0.0,0.0,0.0,0.0,0.0,0.0,0.0,0.0,-1.8134,-1.8325,-1.8426,-1.8581,-1.8732,-1.8622,-1.8622,0.0,0.0,0.0,0.0,0.0,0.0,0.0,0.0,0.0,0.0,0.0,0.0,0.0,0.0,0.0,0.0,0.0,0.0,0.0,0.0,0.0,0.0,0.0,0.0,0.0,0.0,0.0,0.0,0.0,0.0,0.0,0.0,0.0,0.0,0.0,0.0,0.0,0.0,0.0,0.0,0.0,0.0,0.0,0.0,0.0,0.0,0.0,0.0,-1.4207,0.0,0.0,0.0,0.0,0.0,0.0,0.0,0.0,0.0,0.0,0.0,0.0,0.0,0.0,0.0,0.0,0.0,0.0,0.0,0.0,0.0,0.0,0.0,0.0,0.0,0.0,0.0,0.0,0.0,0.0,0.0,0.0,0.0,0.0,0.0,0.0,0.0,0.0,0.0,0.0,0.0,0.0,0.0,0.0,0.0,0.0,0.0,0.0,0.0,0.0,0.0,0.0,0.0,0.0,0.0,0.0,0.0,0.0,0.0,-1.8284,-1.8483,-1.86,-1.8714,-1.8824,-1.877,-1.8753,0.0,0.0,0.0,0.0,0.0,0.0,0.0,0.0,0.0,0.0,0.0,0.0,0.0,0.0,0.0,0.0,0.0,0.0,0.0,0.0,0.0,0.0,0.0,0.0,0.0,0.0,0.0,0.0,0.0,0.0,0.0,0.0,0.0,0.0,0.0,0.0,0.0,0.0,0.0,0.0,0.0,0.0,0.0,0.0,0.0,0.0,0.0,0.0,0.0,0.0,0.0,0.0,0.0,0.0,0.0,0.0,0.0,0.0,0.0,0.0,0.0,0.0,0.0,0.0,0.0,0.0,0.0,0.0,0.0,0.0,0.0,0.0,0.0,0.0,0.0,0.0,0.0,0.0,0.0,0.0,0.0,0.0,0.0,0.0,0.0,0.0,0.0,0.0,0.0,0.0,0.0,0.0,0.0,0.0,0.0,0.0,0.0,0.0,0.0,0.0,0.0,0.0,0.0,0.0,0.0,0.0,0.0,-1.8284,-1.8428,-1.8617,-1.875,-1.886,-1.8914,-1.8931,-1.8913,-1.8948,0.0,0.0,0.0,0.0,0.0,0.0,0.0,0.0,0.0,0.0,0.0,0.0,0.0,0.0,0.0,0.0,0.0,0.0,0.0,0.0,0.0,0.0,0.0,0.0,0.0,0.0,0.0,0.0,0.0,0.0,0.0,0.0,0.0,0.0,0.0,0.0,0.0,0.0,-1.3753,-1.46,0.0,0.0,0.0,0.0,0.0,0.0,0.0,0.0,-1.4433,0.0,0.0,0.0,0.0,0.0,0.0,0.0,0.0,0.0,0.0,0.0,0.0,0.0,0.0,0.0,0.0,0.0,0.0,0.0,0.0,0.0,0.0,0.0,0.0,0.0,0.0,0.0,0.0,0.0,0.0,0.0,0.0,0.0,0.0,0.0,0.0,0.0,0.0,0.0,0.0,0.0,0.0,0.0,0.0,0.0,0.0,0.0,0.0,0.0,0.0,0.0,0.0,0.0,0.0,0.0,0.0,-1.8249,-1.8445,-1.8619,-1.8751,-1.8843,-1.8932,-1.8984,-1.8984,-1.9001,-1.907,0.0,0.0,0.0,0.0,0.0,0.0,0.0,0.0,0.0,0.0,0.0,0.0,0.0,0.0,0.0,0.0,0.0,0.0,0.0,0.0,0.0,0.0,0.0,0.0,0.0,0.0,0.0,0.0,0.0,0.0,0.0,0.0,0.0,0.0,0.0,0.0,0.0,0.0,0.0,-1.54,-1.5736,0.0,0.0,0.0,0.0,0.0,0.0,0.0,0.0,-1.43,0.0,0.0,0.0,0.0,0.0,0.0,0.0,0.0,0.0,0.0,0.0,0.0,0.0,0.0,0.0,0.0,0.0,0.0,0.0,0.0,0.0,0.0,0.0,0.0,0.0,0.0,0.0,0.0,0.0,0.0,0.0,0.0,0.0,0.0,0.0,0.0,0.0,0.0,0.0,0.0,0.0,0.0,0.0,0.0,0.0,0.0,0.0,0.0,0.0,0.0,0.0,0.0,0.0,0.0,0.0,-1.8406,-1.8563,-1.8714,-1.8843,-1.8914,-1.8984,-1.9053,-1.9035,-1.907,0.0,0.0,0.0,0.0,0.0,0.0,0.0,0.0,0.0,0.0,0.0,0.0,0.0,0.0,0.0,0.0,0.0,0.0,0.0,0.0,0.0,0.0,0.0,0.0,0.0,0.0,0.0,0.0,0.0,0.0,0.0,0.0,0.0,0.0,0.0,0.0,0.0,0.0,0.0,0.0,-1.5773,-1.577,-1.558,0.0,0.0,0.0,0.0,0.0,0.0,-1.4369,-1.43,0.0,0.0,0.0,0.0,0.0,0.0,0.0,0.0,0.0,0.0,0.0,0.0,0.0,0.0,0.0,0.0,0.0,0.0,0.0,0.0,0.0,0.0,0.0,0.0,0.0,0.0,0.0,0.0,0.0,0.0,0.0,0.0,0.0,0.0,0.0,0.0,0.0,0.0,0.0,0.0,0.0,0.0,0.0,0.0,0.0,0.0,0.0,0.0,0.0,0.0,0.0,0.0,0.0,0.0,0.0,-1.8524,-1.8677,-1.8807,-1.8932,-1.8984,-1.907,-1.912,-1.9102,-1.9104,0.0,0.0,0.0,0.0,0.0,0.0,0.0,0.0,0.0,0.0,0.0,0.0,0.0,0.0,0.0,0.0,0.0,0.0,0.0,0.0,0.0,0.0,0.0,0.0,0.0,0.0,0.0,0.0,0.0,0.0,0.0,0.0,0.0,0.0,0.0,0.0,0.0,0.0,0.0,0.0,0.0,-1.5698,-1.5551,-1.5428,0.0,0.0,0.0,0.0,-1.4874,-1.4643,0.0,0.0,0.0,0.0,0.0,0.0,0.0,0.0,0.0,0.0,0.0,0.0,0.0,0.0,0.0,0.0,0.0,0.0,0.0,0.0,0.0,0.0,0.0,0.0,0.0,0.0,0.0,0.0,0.0,0.0,0.0,0.0,0.0,0.0,0.0,0.0,0.0,0.0,0.0,0.0,0.0,0.0,0.0,0.0,0.0,0.0,0.0,0.0,0.0,0.0,0.0,0.0,0.0,0.0,0.0,0.0,-1.8603,-1.8788,-1.895,-1.907,-1.9084,-1.9117,-1.9202,-1.9202,-1.9168,0.0,0.0,0.0,0.0,0.0,0.0,0.0,0.0,0.0,0.0,0.0,0.0,0.0,0.0,0.0,0.0,0.0,0.0,0.0,0.0,0.0,0.0,0.0,0.0,0.0,0.0,0.0,0.0,0.0,0.0,0.0,0.0,0.0,0.0,0.0,0.0,0.0,0.0,0.0,0.0,0.0,-1.561,-1.5595,-1.5759,-1.5947,0.0,0.0,0.0,-1.6186,-1.5579,0.0,0.0,0.0,0.0,0.0,0.0,0.0,0.0,0.0,0.0,0.0,0.0,0.0,0.0,0.0,0.0,0.0,0.0,0.0,0.0,0.0,0.0,0.0,0.0,0.0,0.0,0.0,0.0,0.0,0.0,0.0,0.0,0.0,0.0,0.0,0.0,0.0,0.0,0.0,0.0,0.0,0.0,0.0,0.0,0.0,0.0,0.0,0.0,0.0,0.0,0.0,0.0,0.0,0.0,0.0,-1.8544,-1.8659,-1.8807,-1.8966,-1.9105,-1.9101,-1.9134,-1.9202,-1.92,-1.9202,0.0,0.0,0.0,0.0,0.0,0.0,0.0,0.0,0.0,0.0,0.0,0.0,0.0,0.0,0.0,0.0,0.0,0.0,0.0,0.0,0.0,0.0,0.0,0.0,0.0,0.0,0.0,0.0,0.0,0.0,0.0,0.0,0.0,0.0,0.0,0.0,0.0,0.0,0.0,0.0,0.0,0.0,-1.6116,-1.6358,0.0,0.0,0.0,-1.6393,-1.6393,0.0,0.0,0.0,0.0,0.0,0.0,0.0,0.0,0.0,0.0,0.0,0.0,0.0,0.0,0.0,0.0,0.0,0.0,0.0,0.0,0.0,0.0,0.0,0.0,0.0,0.0,0.0,0.0,0.0,0.0,0.0,0.0,0.0,0.0,0.0,0.0,0.0,0.0,0.0,0.0,0.0,0.0,0.0,0.0,0.0,0.0,0.0,0.0,0.0,0.0,0.0,0.0,0.0,0.0,0.0,0.0,0.0,-1.8734,-1.8878,-1.9018,-1.9102,-1.9134,-1.9166,-1.9232,-1.9232,0.0,0.0,0.0,0.0,0.0,0.0,0.0,0.0,0.0,0.0,0.0,0.0,0.0,0.0,0.0,0.0,0.0,0.0,0.0,0.0,0.0,0.0,0.0,0.0,0.0,0.0,0.0,-1.6328,0.0,0.0,0.0,0.0,0.0,0.0,0.0,0.0,0.0,0.0,0.0,0.0,0.0,0.0,-1.6596,-1.6825,-1.7026,-1.7212,0.0,0.0,-1.6872,-1.6858,-1.6601,-1.6259,0.0,0.0,0.0,0.0,0.0,0.0,0.0,0.0,0.0,0.0,0.0,0.0,0.0,0.0,0.0,0.0,0.0,0.0,0.0,0.0,0.0,0.0,0.0,0.0,0.0,0.0,0.0,0.0,0.0,0.0,0.0,0.0,0.0,0.0,0.0,0.0,0.0,0.0,0.0,0.0,0.0,0.0,0.0,0.0,0.0,0.0,0.0,0.0,0.0,0.0,0.0,0.0,0.0,0.0,0.0,-1.8878,-1.9019,-1.912,-1.9202,-1.9251,-1.928,-1.9289,-1.9289,-1.9292,0.0,0.0,0.0,0.0,0.0,0.0,0.0,0.0,0.0,0.0,0.0,0.0,0.0,0.0,0.0,0.0,0.0,0.0,0.0,0.0,0.0,0.0,0.0,0.0,0.0,0.0,0.0,0.0,0.0,0.0,0.0,0.0,0.0,0.0,0.0,0.0,0.0,0.0,0.0,0.0,0.0,-1.6858,-1.7757,-1.7885,-1.8004,0.0,0.0,-1.814,-1.8154,-1.7619,-1.7222,-1.718,0.0,0.0,0.0,0.0,0.0,0.0,0.0,0.0,0.0,0.0,0.0,0.0,0.0,0.0,0.0,0.0,0.0,0.0,0.0,0.0,0.0,0.0,0.0,0.0,0.0,0.0,0.0,0.0,0.0,0.0,0.0,0.0,0.0,0.0,0.0,0.0,0.0,0.0,0.0,0.0,0.0,0.0,0.0,0.0,0.0,0.0,0.0,0.0,0.0,0.0,0.0,0.0,0.0,-1.8752,-1.8896,-1.9037,-1.9137,-1.9184,-1.9266,-1.928,-1.9286,-1.9286,-1.9289,0.0,0.0,0.0,0.0,0.0,0.0,0.0,0.0,0.0,0.0,0.0,0.0,0.0,0.0,0.0,0.0,0.0,0.0,0.0,0.0,0.0,0.0,0.0,0.0,0.0,0.0,0.0,0.0,-1.7455,-1.7353,-1.7224,0.0,0.0,0.0,0.0,0.0,0.0,0.0,0.0,0.0,0.0,-1.7952,-1.8223,-1.8462,0.0,0.0,-1.862,-1.8411,-1.8425,-1.8127,-1.7747,-1.736,-1.7098,0.0,0.0,0.0,0.0,0.0,0.0,0.0,0.0,0.0,0.0,0.0,0.0,0.0,0.0,0.0,0.0,0.0,0.0,0.0,0.0,0.0,0.0,0.0,0.0,0.0,0.0,0.0,0.0,0.0,0.0,0.0,0.0,0.0,0.0,0.0,0.0,0.0,0.0,0.0,0.0,0.0,0.0,0.0,0.0,0.0,0.0,0.0,0.0,0.0,0.0,0.0,0.0,-1.9271,-1.9632,-1.9794,-1.977,-1.96,-1.9648,-1.9533,-1.9308,-1.9286,-1.9286,0.0,0.0,0.0,0.0,0.0,0.0,0.0,0.0,0.0,0.0,0.0,0.0,0.0,0.0,0.0,0.0,0.0,0.0,0.0,0.0,0.0,0.0,0.0,0.0,0.0,0.0,0.0,0.0,-1.751,-1.7551,-1.739,0.0,0.0,0.0,0.0,0.0,0.0,0.0,0.0,0.0,0.0,-1.8708,-1.8762,-1.8958,-1.9064,-1.9055,-1.8774,-1.8581,-1.8581,-1.8464,-1.8221,-1.7789,0.0,0.0,0.0,0.0,0.0,0.0,0.0,0.0,0.0,0.0,0.0,0.0,0.0,0.0,0.0,0.0,0.0,0.0,0.0,0.0,0.0,0.0,0.0,0.0,0.0,0.0,0.0,0.0,0.0,0.0,0.0,0.0,0.0,0.0,0.0,0.0,0.0,0.0,0.0,0.0,0.0,0.0,0.0,0.0,0.0,0.0,0.0,0.0,0.0,0.0,0.0,0.0,0.0,0.0,-2.133,-2.1407,-2.1169,-2.0506,-2.0468,-2.0115,-1.936,-1.9323,-1.9305,-1.9305,0.0,0.0,0.0,0.0,0.0,0.0,0.0,0.0,0.0,0.0,0.0,0.0,0.0,0.0,0.0,0.0,0.0,0.0,0.0,0.0,0.0,0.0,0.0,0.0,0.0,0.0,-1.7417,-1.7811,-1.8049,0.0,0.0,0.0,0.0,0.0,0.0,0.0,0.0,0.0,0.0,-1.8805,-1.8907,-1.9492,-1.9288,-1.9101,-1.9116,-1.895,-1.8798,-1.8784,-1.8736,-1.8673,0.0,0.0,0.0,0.0,0.0,0.0,0.0,0.0,0.0,0.0,0.0,0.0,0.0,0.0,0.0,0.0,0.0,0.0,0.0,0.0,0.0,0.0,0.0,0.0,0.0,0.0,0.0,-1.498,-1.4678,0.0,0.0,0.0,0.0,0.0,0.0,0.0,0.0,0.0,0.0,0.0,-1.8492,-1.8623,0.0,0.0,0.0,0.0,0.0,0.0,0.0,0.0,0.0,0.0,0.0,0.0,-2.0997,-2.1384,-2.1516,-2.1498,-2.1312,-2.1327,-2.0991,-2.02,-2.0181,-1.989,-1.9323,0.0,0.0,0.0,0.0,0.0,0.0,0.0,0.0,0.0,0.0,0.0,0.0,0.0,0.0,0.0,0.0,0.0,0.0,0.0,0.0,0.0,0.0,0.0,0.0,0.0,-1.7535,0.0,0.0,0.0,0.0,0.0,0.0,0.0,0.0,0.0,0.0,0.0,-1.9701,-1.968,-1.9602,-1.9572,-1.9581,-1.9501,-1.9428,0.0,0.0,0.0,0.0,0.0,0.0,0.0,0.0,0.0,0.0,0.0,0.0,0.0,0.0,-1.8033,-1.7748,-1.7821,-1.7841,-1.757,0.0,0.0,0.0,0.0,0.0,0.0,0.0,0.0,0.0,0.0,0.0,0.0,0.0,0.0,0.0,0.0,-1.5786,0.0,0.0,0.0,0.0,0.0,0.0,0.0,0.0,-1.8476,-1.8926,-1.9297,-1.9444,-1.969,0.0,-2.0245,-2.003,0.0,0.0,0.0,0.0,0.0,0.0,0.0,0.0,-2.1826,-2.2236,-2.2371,-2.2337,-2.2153,-2.2186,-2.1852,-2.106,-2.0749,-2.0328,-1.9779,-1.9452,-1.9259,0.0,0.0,0.0,0.0,0.0,0.0,0.0,0.0,0.0,0.0,0.0,0.0,0.0,0.0,0.0,0.0,0.0,0.0,0.0,0.0,0.0,0.0,0.0,-1.8182,0.0,0.0,0.0,0.0,0.0,0.0,0.0,0.0,0.0,-1.9857,-2.0174,-2.0342,-2.0065,-2.0041,-1.9935,-1.972,0.0,0.0,0.0,0.0,0.0,0.0,0.0,-1.8898,-1.8912,-1.8874,-1.8836,-1.8836,-1.8774,-1.8697,-1.862,0.0,0.0,-1.8411,-1.8358,-1.8279,-1.8254,-1.8189,-1.8069,-1.8003,-1.7922,-1.7842,0.0,0.0,0.0,0.0,0.0,0.0,0.0,0.0,-1.7471,-1.7572,0.0,-1.712,0.0,0.0,0.0,0.0,0.0,0.0,0.0,0.0,-1.8879,-1.9331,-2.0045,-2.0229,-2.0782,-2.1587,-2.1705,-2.1528,-2.0992,-2.0467,0.0,0.0,0.0,0.0,0.0,0.0,-2.2929,-2.3824,-2.3921,-2.3673,-2.305,-2.3031,-2.268,-2.1955,-2.1094,-2.0639,-2.0602,-1.9871,-1.9368,-1.9292,-1.9257,0.0,0.0,0.0,0.0,0.0,0.0,0.0,0.0,0.0,0.0,0.0,0.0,0.0,0.0,0.0,0.0,0.0,0.0,0.0,0.0,-1.9017,0.0,0.0,0.0,0.0,0.0,0.0,0.0,0.0,0.0,0.0,-2.0496,-2.0478,-2.0426,-2.015,0.0,0.0,0.0,0.0,-1.9611,-1.9611,-1.9487,-1.9413,-1.9413,-1.925,-1.9116,-1.9101,0.0,0.0,-1.8917,-1.8836,-1.8836,-1.8784,-1.8784,-1.876,-1.8542,-1.8411,-1.8358,-1.8305,-1.8321,-1.827,-1.8256,-1.8202,-1.8149,-1.7238,0.0,0.0,0.0,0.0,-1.7382,-1.7327,-1.7248,-1.7301,-1.7449,-1.7614,-1.7503,0.0,0.0,0.0,0.0,0.0,0.0,-1.9311,-1.956,-2.0098,-2.0527,-2.0861,-2.1001,-2.1299,-2.1664,-2.184,-2.1943,-2.1944,-2.1905,-2.1404,-2.05,0.0,0.0,0.0,0.0,-2.3512,-2.3878,-2.3958,-2.3966,-2.3879,-2.3916,-2.3583,-2.2838,-2.1974,-2.1482,-2.1449,-2.1213,-2.1036,-2.0914,-2.0367,0.0,0.0,0.0,0.0,0.0,0.0,0.0,0.0,0.0,0.0,0.0,0.0,0.0,0.0,0.0,0.0,0.0,0.0,0.0,-1.9007,-1.9569,-1.9857,0.0,0.0,0.0,0.0,0.0,0.0,0.0,0.0,0.0,-2.0527,-2.0494,-2.0392,0.0,0.0,-2.0061,-1.9955,-1.9899,-1.9863,-1.9741,0.0,0.0,0.0,-1.9413,-1.9302,-1.9302,-1.9228,-1.9153,-1.904,-1.9003,-1.8927,-1.8822,-1.8822,-1.8784,-1.8707,-1.8669,-1.8669,-1.8669,-1.862,-1.857,-1.8439,-1.8347,-1.8254,-1.8085,-1.8008,-1.7867,-1.7745,-1.7636,-1.7814,-1.7865,-1.7848,-1.7919,-1.8095,-1.8318,-1.8104,-1.82,-1.8396,-1.851,0.0,0.0,0.0,-2.0034,-2.0321,-2.0783,-2.1071,-2.123,-2.1402,-2.1556,-2.1738,-2.1974,-2.2175,-2.2338,-2.2542,-2.2246,-2.1489,0.0,0.0,-2.2741,-2.336,-2.3786,-2.3935,-2.3976,-2.4075,-2.4229,-2.4339,-2.4153,-2.3722,-2.2858,-2.2364,-2.2311,-2.1984,-2.1751,-2.1589,-2.1115,-2.0753,0.0,0.0,0.0,0.0,0.0,0.0,0.0,0.0,0.0,0.0,0.0,-1.7884,-1.8101,0.0,0.0,0.0,-1.8861,-1.9378,-1.9589,-2.018,0.0,0.0,0.0,0.0,0.0,0.0,0.0,-2.081,-2.081,-2.0728,-2.0543,-2.0494,-2.0426,-2.022,-2.0135,-2.008,-2.0061,0.0,-1.9955,-1.9884,-1.9848,-1.9812,-1.9756,-1.9647,-1.9472,-1.9428,-1.9391,-1.9302,-1.9228,-1.9191,-1.913,-1.9064,-1.9064,-1.9026,-1.9049,-1.9026,-1.8988,-1.8822,-1.8812,-1.875,-1.8606,-1.8553,-1.8475,-1.8969,-1.9002,-1.8211,-1.795,-1.8097,-1.8361,-1.862,-1.8822,-1.8974,-1.9176,-1.9369,-1.8865,-1.8822,-1.9079,-1.9313,0.0,0.0,-2.0213,-2.0646,-2.0893,-2.1054,-2.1151,-2.1325,-2.1511,-2.1694,-2.1827,-2.2077,-2.2293,-2.2405,-2.2605,-2.279,-2.2919,-2.3119,-2.3313,-2.3494,-2.3634,-2.3807,-2.3996,-2.3978,-2.4077,-2.4284,-2.4447,-2.45,-2.45,-2.3652,-2.3194,-2.3175,-2.2407,-2.1916,-2.179,-2.1662,-2.1532,-2.1396,0.0,0.0,0.0,0.0,0.0,0.0,0.0,0.0,0.0,0.0,0.0,0.0,0.0,0.0,0.0,-2.0025,0.0,-2.0185,-2.0765,0.0,0.0,0.0,-2.0877,-2.0794,-2.081,-2.081,-2.081,0.0,0.0,-2.0527,0.0,-2.046,-2.0304,-2.0185,-2.0115,-2.0115,-2.0061,-2.0041,-2.0005,-2.0005,-2.0005,-1.9955,-1.9833,-1.9669,-1.9487,-1.9413,-1.9413,-1.9413,-1.9376,-1.9428,-1.9391,-1.9391,-1.9391,-1.9391,-1.9376,-1.9302,-1.8936,-1.8889,-1.8941,-1.8874,-1.8836,-1.8822,-1.9698,-1.9867,-1.9404,-1.901,-1.8673,-1.8396,-1.845,-1.8784,-1.8874,-1.9064,-1.9413,-1.9266,-1.9409,-1.9763,-2.0039,-2.0193,-2.0293,-2.0532,-2.0793,-2.1022,-2.107,-2.1183,-2.1386,-2.1587,-2.1738,-2.1899,-2.2152,-2.2349,-2.2487,-2.2685,-2.2842,-2.2977,-2.3175,-2.336,-2.3494,-2.3634,-2.3789,-2.3996,-2.3978,-2.4095,-2.4284,-2.4447,-2.45,-2.45,-2.4172,-2.4026,-2.4007,-2.3731,-2.3527,-2.3412,-2.2732,-2.2287,-2.2144,-2.1429,0.0,0.0,0.0,0.0,0.0,0.0,0.0,0.0,0.0,-1.9216,-1.9346,0.0,-1.9214,0.0,-1.9864,-2.0376,-2.0893,-2.0959,0.0,0.0,-2.0828,-2.0811,-2.081,-2.081,-2.081,-2.081,-2.081,-2.0728,-2.0527,-2.0494,-2.046,-2.0304,-2.027,-2.027,-2.0254,-2.0235,-2.02,-2.0115,-2.008,-2.0045,-2.0005,-1.9955,-1.9884,-1.9726,-1.9654,-1.9617,-1.9574,-1.9465,-1.9428,-1.9428,-1.9428,-1.9428,-1.9428,-1.9428,-1.9376,-1.9288,-1.9265,-1.928,-1.9176,-1.9176,-1.9153,-2.0553,-2.0691,-2.0297,-2.0072,-1.9932,-1.91,-1.8897,-1.9184,-1.8965,-1.9064,-1.9413,-1.9574,-1.9807,-2.0005,-2.027,-2.0596,-2.098,-2.1167,-2.1526,-2.2031,-2.2131,-2.2247,-2.2442,-2.265,-2.2789,-2.2942,-2.3199,-2.3221,-2.3065,-2.3256,-2.3267,-2.3045,-2.3217,-2.3401,-2.3539,-2.3652,-2.3789,-2.3978,-2.4095,-2.4191,-2.4284,-2.4447,-2.45,-2.45,-2.4375,-2.4303,-2.4303,-2.4171,-2.4074,-2.3996,-2.3456,-2.3076,-2.2926,-2.2322,-2.1895,0.0,0.0,0.0,0.0,0.0,0.0,0.0,0.0,0.0,0.0,0.0,-1.9935,-2.0127,-2.0392,-2.0733,-2.1023,-2.0974,-2.0893,-2.0877,-2.1112,-2.1268,-2.1268,-2.1537,-2.1726,-2.1726,-2.1676,-2.1497,-2.1077,-2.0945,-2.0752,-2.035,-2.0304,-2.0304,-2.0304,-2.0304,-2.0254,-2.022,-2.0185,-2.015,-2.0045,-2.0045,-2.0025,-1.9935,-1.9848,-1.9812,-1.9792,-1.972,-1.9669,-1.9669,-1.9669,-1.9669,-1.9683,-1.9683,-1.9669,-1.9669,-1.9669,-1.9596,-1.9391,-1.9354,-1.9302,-2.1313,-2.1417,-2.1055,-2.1111,-2.133,-2.0232,-1.9778,-1.9812,-1.9415,-1.9415,-1.9701,-2.0083,-2.0263,-2.0284,-2.057,-2.1054,-2.1717,-2.1929,-2.2452,-2.3202,-2.3393,-2.3565,-2.3702,-2.3935,-2.4081,-2.4225,-2.4506,-2.4364,-2.3904,-2.4012,-2.3833,-2.3277,-2.33,-2.3407,-2.3607,-2.3678,-2.381,-2.4016,-2.4191,-2.4303,-2.4303,-2.4429,-2.45,-2.4482,-2.4375,-2.4284,-2.4284,-2.4134,-2.4074,-2.3978,-2.385,-2.3739,-2.3585,-2.3336,-2.3119,0.0,-2.2091,0.0,0.0,0.0,0.0,0.0,0.0,0.0,0.0,-2.0551,-2.0708,-2.115,-2.1183,-2.1103,-2.0893,-2.0909,-2.0909,-2.0952,-2.1458,-2.185,-2.2027,-2.2532,-2.288,-2.288,-2.2791,-2.2431,-2.1811,-2.161,-2.1239,-2.0597,-2.0505,-2.0443,-2.032,-2.0304,-2.0304,-2.0304,-2.0304,-2.0235,-2.015,-2.015,-2.0115,-2.0025,-1.999,-1.999,-1.997,-1.9955,-1.997,-1.997,-1.997,-1.9955,-2.0005,-1.997,-1.997,-1.997,-1.997,-1.9863,-1.9611,-1.9487,-1.9501,-2.1664,-2.1888,-2.1918,-2.2002,-2.2144,-2.1685,-2.121,-2.0678,-2.07,-2.0845,-2.1134,-2.1455,-2.1637,-2.1637,-2.2014,-2.2274,-2.242,-2.2675,-2.2933,-2.3202,-2.3409,-2.3582,-2.3702,-2.3935,-2.4178,-2.4351,-2.4567,-2.4709,-2.4729,-2.4299,-2.4121,-2.4126,-2.3631,-2.3458,-2.3678,0.0,0.0,0.0,-2.4247,-2.4303,-2.4303,-2.4447,-2.4482,-2.443,-2.4339,0.0,-2.421,-2.4077,-2.3996,-2.3917,-2.3807,0.0,0.0,0.0,0.0,0.0,0.0,0.0,0.0,0.0,0.0,0.0,-2.128,-2.1105,-2.1205,-2.1115,-2.107,-2.1199,-2.1055,-2.0942,-2.0893,-2.0844,-2.1065,-2.1616,-2.179,-2.209,-2.2611,-2.2817,-2.2864,-2.2739,-2.2703,-2.2598,-2.2325,-2.222,-2.192,-2.1245,-2.1085,-2.089,-2.0381,-2.032,-2.0304,-2.0304,-2.0304,-2.0304,-2.027,-2.027,-2.022,-2.0115,-2.008,-2.0045,-2.0041,-2.0005,-2.0005,-2.0005,-2.0005,-2.0005,-2.0005,-2.0005,-2.0005,-2.0005,-2.0005,-1.997,-1.9899,-1.9884,-1.9884,-2.2044,0.0,-2.2324,-2.2509,0.0,-2.2481,-2.2294,-2.2046,-2.1474,-2.1399,-2.1625,-2.1883,-2.2024,-2.2171,-2.2474,-2.2848,-2.329,-2.3517,-2.3855,-2.4406,-2.4587,-2.4764,-2.4939,-2.5179,-2.538,-2.5559,-2.5797,-2.5794,-2.5582,-2.5408,-2.5216,-2.4978,-2.436,-2.4111,-2.4235,-2.3994,-2.3976,-2.4112,-2.4229,-2.4303,-2.4303,-2.4393,-2.4448,-2.4412,0.0,0.0,0.0,0.0,0.0,0.0,0.0,0.0,0.0,0.0,0.0,-2.2729,-2.2542,-2.2349,-2.2118,-2.1899,-2.1738,-2.1603,-2.1402,-2.1294,-2.1309,-2.1215,-2.1119,-2.1055,-2.0942,-2.0909,-2.086,-2.1144,-2.1474,-2.1869,-2.2485,-2.3001,-2.3295,-2.3658,-2.3793,-2.3662,-2.3608,-2.3437,-2.3018,-2.2894,-2.2578,-2.1908,-2.1486,-2.1214,-2.0859,-2.052,-2.0304,-2.0304,-2.0304,-2.0304,-2.0304,-2.0304,-2.0304,-2.0204,-2.0185,-2.02,-2.0131,-2.0131,-2.0146,-2.0131,-2.0131,-2.0146,-2.0166,-2.0181,-2.0131,-2.0146,-2.0146,-2.0166,-2.0131,-2.0076,-2.0005,-2.2356,-2.2509,-2.2646,-2.2814,-2.2979,-2.3024,-2.3157,-2.3318,0.0,0.0,0.0,-2.2299,-2.2525,-2.2655,-2.2902,-2.3427,-2.4189,-2.4324,-2.4831,-2.56,-2.5824,-2.6007,-2.6203,-2.6434,-2.6606,-2.6742,-2.7006,-2.6871,-2.6437,-2.6533,-2.6335,-2.58,-2.5234,-2.4897,-2.4838,-2.4439,-2.42,-2.4132,-2.4247,-2.4284,-2.4284,-2.4358,-2.4376,-2.4358,-2.4248,-2.4191,-2.417,-2.4054,-2.3917,-2.3813,-2.3638,-2.3494,-2.3271,-2.3095,-2.285,-2.2605,-2.246,-2.2248,-2.1998,-2.184,-2.1678,-2.1511,-2.131,-2.1135,-2.1183,-2.1135,-2.1022,-2.0893,-2.0909,-2.0924,-2.0968,-2.1521,-2.196,-2.2197,-2.3222,-2.384,-2.3974,-2.4422,-2.4648,-2.4589,-2.4477,-2.4296,-2.3739,-2.3566,-2.3225,-2.2578,-2.207,-2.1501,-2.1239,-2.072,-2.0304,-2.0304,-2.0304,-2.0304,-2.0304,-2.0304,-2.0304,-2.027,-2.0304,-2.0304,-2.0304,-2.0304,-2.0304,-2.027,-2.0304,-2.027,-2.0304,-2.027,-2.0304,-2.0304,-2.0304,-2.0304,-2.027,-2.0166,-2.0061,-2.2709,-2.2844,-2.2994,-2.3142,-2.3275,-2.3421,-2.3653,-2.3867,-2.3443,-2.3426,-2.3694,-2.3891,-2.3974,-2.4025,-2.4342,-2.4642,-2.4863,-2.5057,-2.5313,0.0,-2.586,-2.6063,-2.6203,-2.6521,-2.6759,-2.6876,-2.7087,-2.7241,-2.7239,-2.6825,-2.6609,-2.6552,-2.6025,-2.5553,-2.5168,-2.5069,-2.4748,-2.4207,-2.4191,-2.421,-2.421,-2.4284,-2.4284,-2.4229,-2.421,-2.4172,-2.4113,-2.3996,-2.3894,-2.3786,-2.3629,-2.3424,-2.3217,-2.302,-2.2816,-2.2605,-2.236,-2.2147,-2.1928,-2.1738,-2.1511,-2.1278,-2.1055,-2.099,-2.1103,-2.1006,-2.0893,-2.0893,-2.0876,-2.1096,-2.1647,-2.1783,-2.2263,-2.3284,-2.3568,-2.3858,-2.438,-2.4552,-2.4589,-2.4523,-2.4498,-2.4426,-2.4189,-2.4133,-2.3871,-2.3317,-2.2932,-2.2578,-2.1532,-2.0751,-2.035,-2.0304,-2.0304,-2.0304,-2.0304,-2.0304,-2.0304,-2.0304,-2.0304,-2.0304,-2.0304,-2.0304,-2.0304,-2.0304,-2.0304,-2.0304,-2.0304,-2.0304,-2.0304,-2.0304,-2.0304,-2.0304,-2.0304,-2.027,-2.025,-2.2979,-2.3127,-2.3275,-2.3348,-2.348,-2.3711,-2.3967,-2.4151,-2.4051,-2.4051,-2.4177,-2.4261,-2.44,-2.4589,-2.4799,-2.5013,-2.5178,-2.5371,-2.5562,-2.5787,-2.6007,-2.6239,-2.6415,-2.6607,-2.6825,-2.7087,-2.723,-2.7417,-2.7565,-2.7425,-2.7427,-2.7467,-2.6923,-2.6339,-2.5852,-2.5418,-2.5077,-2.4832,-2.4431,-2.4192,-2.4192,-2.4229,-2.4229,-2.4192,-2.4172,-2.4133,-2.4036,-2.3917,-2.381,-2.3696,-2.3539,-2.3336,-2.3119,-2.2944,-2.2738,-2.2515,-2.2304,-2.2106,-2.1869,-2.1587,-2.1356,-2.1167,-2.099,-2.0877,-2.0892,-2.0876,-2.0985,-2.1282,-2.1295,-2.156,-2.2211,-2.2535,-2.2983,-2.3631,-2.3928,-2.4247,-2.4486,-2.4523,-2.4523,-2.44,-2.44,-2.4359,-2.4302,-2.4302,-2.4225,-2.3856,-2.3563,-2.2917,-2.1963,-2.1291,-2.0705,-2.0381,-2.0304,-2.0304,-2.0304,-2.0304,-2.0304,-2.0304,-2.0304,-2.0304,-2.0304,-2.0304,-2.0304,-2.0304,-2.0304,-2.0304,-2.0304,-2.0304,-2.0304,-2.0304,-2.0304,-2.0304,-2.0304,-2.0304,-2.0304,-2.3304,-2.3407,-2.3538,-2.3668,-2.3782,-2.4024,-2.4193,-2.4343,-2.4385,-2.4441,-2.4482,-2.4467,-2.4605,-2.4862,-2.5021,-2.5178,-2.5371,-2.5524,-2.5712,-2.597,-2.6168,-2.638,-2.6589,-2.6708,-2.6923,-2.7181,-2.7373,-2.7509,-2.7719,-2.7911,-2.8071,-2.811,-2.7691,-2.7199,-2.6676,-2.6056,-2.5716,-2.5621,-2.4871,-2.4376,-2.421,-2.421,-2.4191,-2.4191,-2.4114,-2.4074,-2.3958,-2.3855,-2.3707,-2.3585,-2.343,-2.3241,-2.3003,-2.2825,-2.2632,-2.2405,-2.222,-2.202,-2.1708,-2.1419,-2.1199,-2.1054,-2.1068,-2.1031,-2.0962,-2.1104,-2.1308,-2.1631,-2.1819,-2.2139,-2.2758,-2.318,-2.3585,-2.3756,-2.4182,-2.4395,-2.4416,-2.4374,-2.4359,-2.4261,-2.4219,-2.4234,-2.4234,-2.4234,-2.4204,-2.4112,-2.3636,-2.3007,-2.2486,-2.1857,-2.1234,-2.0665,-2.0377,-2.0304,-2.0304,-2.0304,-2.0304,-2.0304,-2.0304,-2.0304,-2.0304,-2.0304,-2.0304,-2.0304,-2.0304,-2.0304,-2.0304,-2.0304,-2.0304,-2.0304,-2.0304,-2.0304,-2.0304,-2.0304,-2.0304,-2.3754,-2.3782,-2.3882,-2.4051,-2.4219,-2.44,-2.4482,-2.4589,-2.4686,-2.4822,-2.4926,-2.4926,-2.4966,-2.5005,-2.5162,-2.5388,-2.5578,-2.5578,-2.5803,-2.6132,-2.6241,-2.6435,-2.6708,-2.6892,-2.7055,-2.7213,-2.7386,-2.7569,-2.773,-2.7911,-2.8126,-2.8327,-2.8308,-2.8012,-2.7528,-2.7387,-2.7068,-2.6502,-2.5715,-2.4944,-2.4246,-2.4209,-2.4152,-2.4113,-2.4113,-2.4016,-2.3837,-2.3789,-2.37,-2.3517,-2.3313,-2.3168,-2.2995,-2.2781,-2.2569,-2.2422,-2.2089,-2.1751,-2.1402,-2.1231,-2.1086,-2.0957,-2.1376,-2.1619,-2.1631,-2.2092,-2.2181,-2.188,-2.216,-2.2767,-2.3375,-2.346,-2.3619,-2.4056,-2.4116,-2.4067,-2.4067,-2.4067,-2.4024,-2.404,-2.4067,-2.4024,-2.4067,-2.4051,-2.4024,-2.4051,-2.3564,-2.3138,-2.2955,-2.2406,-2.1797,-2.1112,-2.0625,-2.0347,-2.0285,-2.0304,-2.027,-2.027,-2.0304,-2.0304,-2.0304,-2.0304,-2.0304,-2.0304,-2.0304,-2.0304,-2.0304,-2.0304,-2.0304,-2.0304,-2.0304,-2.0304,-2.0304,-2.0304,-2.0304,-2.3994,-2.3994,-2.4177,-2.4359,-2.4467,-2.462,-2.4726,-2.4831,-2.4966,-2.5045,-2.5178,-2.5294,-2.5278,-2.5201,-2.5371,-2.5524,-2.5616,-2.584,-2.6023,-2.622,-2.6435,-2.664,-2.6825,-2.7006,-2.7198,-2.7386,-2.7496,-2.7659,-2.7864,-2.8063,-2.8246,-2.8398,-2.8432,-2.8424,-2.8275,-2.7843,-2.751,-2.731,-2.6521,-2.5913,-2.5507,-2.4627,-2.4132,-2.4094,-2.3996,-2.3896,-2.3813,-2.37,-2.3585,-2.3448,-2.3259,-2.307,-2.2893,-2.2712,-2.2497,-2.2276,-2.1932,-2.1603,-2.1325,-2.1536,-2.1628,-2.1429,-2.1972,-2.2238,-2.2102,-2.2631,-2.284,-2.2555,-2.2786,-2.3257,-2.3738,-2.3779,-2.386,-2.4063,-2.4024,-2.3982,-2.3982,-2.3982,-2.3982,-2.3982,-2.3982,-2.3982,-2.3982,-2.3982,-2.3982,-2.3967,-2.3694,-2.3557,-2.3527,-2.3011,-2.2525,-2.2115,-2.1371,-2.0569,-2.0268,-2.0166,-2.015,-2.0185,-2.027,-2.0304,-2.0304,-2.0304,-2.0304,-2.0304,-2.0304,-2.0304,-2.0304,-2.0304,-2.0304,-2.0304,-2.0304,-2.0304,-2.0304,-2.0304,-2.0304,-2.4245,-2.4287,-2.4508,-2.4686,-2.4751,-2.4886,-2.4982,-2.5084,-2.5146,-2.5374,-2.5699,-2.5853,-2.6005,-2.6041,-2.5832,-2.581,-2.6064,-2.6392,-2.669,-2.6964,-2.723,-2.7437,-2.7622,-2.777,-2.7947,-2.8136,-2.8281,-2.8328,-2.8379,-2.8558,-2.8542,-2.846,-2.8458,-2.8594,-2.8707,-2.819,-2.7981,-2.8062,-2.7325,-2.6881,-2.6637,-2.5424,-2.4602,-2.4363,-2.4005,-2.3795,-2.3771,-2.3611,-2.3537,-2.3637,-2.3485,-2.3397,-2.3413,-2.3251,-2.2983,-2.2664,-2.2349,-2.2052,-2.1843,-2.2127,-2.2226,-2.2098,-2.2556,-2.2761,-2.2709,-2.3139,-2.3386,-2.3238,-2.3336,-2.3549,-2.3903,-2.394,-2.3882,-2.3882,-2.3855,-2.3797,-2.3812,-2.3812,-2.3754,-2.3797,-2.3769,-2.3797,-2.3812,-2.3797,-2.3769,-2.3754,-2.3797,-2.3812,-2.3767,-2.3375,-2.3028,-2.2832,-2.1904,-2.1167,-2.0425,-2.0167,-2.0126,-2.008,-2.0166,-2.02,-2.0235,-2.0235,-2.027,-2.0254,-2.027,-2.0304,-2.0304,-2.0304,-2.0304,-2.0304,-2.0304,-2.0304,-2.0304,-2.0304,-2.0304,-2.4589,-2.463,-2.4862,-2.5037,-2.5123,-2.5265,-2.5342,-2.5422,-2.542,-2.5912,-2.661,-2.6704,-2.7196,-2.7781,-2.6585,-2.6418,-2.7127,-2.7251,-2.7821,-2.8631,-2.8772,-2.9055,-2.9369,-2.9403,-2.9486,-2.9592,-2.9688,-2.9598,-2.9254,-2.939,-2.9107,-2.8514,-2.8575,-2.863,-2.8816,-2.8773,-2.8803,-2.8755,-2.8068,-2.7638,-2.7547,-2.6668,-2.5804,-2.515,-2.4269,-2.3898,-2.3772,-2.3603,-2.3756,-2.4232,-2.4138,-2.4311,-2.4747,-2.4594,-2.418,-2.3703,-2.3521,-2.3351,-2.3061,-2.2909,-2.2828,-2.2713,-2.3018,-2.3209,-2.3247,-2.3575,-2.3743,-2.3764,-2.3576,-2.3679,-2.3867,-2.3754,-2.3653,-2.361,-2.3436,-2.3363,-2.3363,-2.3407,-2.3319,-2.3348,-2.3407,-2.3392,-2.3363,-2.3319,-2.3363,-2.3363,-2.3363,-2.3378,-2.3392,-2.3289,-2.3038,-2.2623,-2.2239,-2.1936,-2.1107,-2.05,-2.0157,-1.999,-2.0025,-2.0025,-2.008,-2.015,-2.0185,-2.022,-2.0254,-2.027,-2.027,-2.0304,-2.0304,-2.0304,-2.0304,-2.0304,-2.0304,-2.0304,-2.0304,-2.5401,-2.5092,-2.5624,-2.5855,-2.5943,-2.6535,-2.6824,-2.6864,-2.7055,-2.7303,-2.7539,-2.7673,-2.7898,-2.8279,-2.7789,-2.7711,-2.7997,-2.8202,-2.8538,-2.8958,-2.9102,-2.9263,-2.9472,-2.9626,-2.9826,-3.0021,-3.0135,-3.0101,-3.0066,-3.0205,-3.0212,-2.9898,-2.9547,-2.9406,-2.946,-2.9065,-2.8834,-2.891,-2.8594,-2.8419,-2.8257,-2.7471,-2.6819,-2.6506,-2.5659,-2.5152,-2.5052,-2.4906,-2.4898,-2.5007,-2.4873,-2.4802,-2.4832,-2.4506,-2.4161,-2.3819,-2.3601,-2.3342,-2.3127,-2.338,-2.3409,-2.3173,-2.3674,-2.3866,-2.3675,-2.3688,-2.3696,-2.3625,-2.3494,-2.3494,-2.3494,-2.3451,-2.3392,-2.3392,-2.3348,-2.3275,-2.326,-2.326,-2.326,-2.326,-2.326,-2.326,-2.326,-2.326,-2.326,-2.326,-2.326,-2.3275,-2.326,-2.326,-2.3157,-2.2921,-2.2568,-2.2197,-2.1966,-2.103,-2.0384,-2.0014,-1.9884,-1.997,-2.0025,-2.0025,-2.0061,-2.0131,-2.0166,-2.02,-2.02,-2.0235,-2.0235,-2.027,-2.027,-2.027,-2.0304,-2.0304,-2.0304,-2.6254,-2.583,-2.6447,-2.6776,-2.6905,-2.7551,-2.7843,-2.7843,-2.8036,-2.823,-2.8451,-2.8586,-2.8797,-2.9131,-2.9249,-2.9287,-2.9254,-2.9244,-2.9411,-2.9797,-2.9962,-3.016,-3.0352,-3.0507,-3.0676,-3.0873,-3.097,-3.1005,-3.0891,-3.107,-3.1049,-3.0772,-3.0369,-3.0241,-3.0199,-2.9544,-2.9211,-2.9223,-2.8985,-2.8767,-2.8615,-2.8069,-2.7723,-2.7551,-2.7025,-2.6394,-2.5854,-2.5666,-2.565,-2.5707,-2.5603,-2.5495,-2.5357,-2.5026,-2.4713,-2.4459,-2.4213,-2.3947,-2.3761,-2.3932,-2.3983,-2.3681,-2.403,-2.4155,-2.3782,-2.358,-2.3523,-2.3407,-2.3334,-2.3246,-2.3231,-2.3187,-2.3187,-2.3187,-2.3201,-2.3171,-2.3112,-2.3098,-2.3053,-2.3053,-2.3053,-2.3053,-2.3098,-2.3038,-2.3053,-2.3053,-2.3053,-2.3053,-2.3098,-2.3083,-2.3053,-2.3009,-2.2659,-2.2309,-2.2002,-2.138,-2.0724,-2.034,-1.9861,-1.9924,-1.9944,-1.9965,-1.9955,-2.0005,-2.0025,-2.0061,-2.0096,-2.0166,-2.02,-2.0235,-2.0235,-2.022,-2.027,-2.0304,-2.027,-2.704,-2.6695,-2.7389,-2.7745,-2.7899,-2.8183,-2.8174,-2.8256,-2.8263,-2.8737,-2.9336,-2.9483,-2.9862,-3.0516,-3.0627,-3.0954,-3.083,-3.0383,-3.0547,-3.1244,-3.1499,-3.1719,-3.1881,-3.19,-3.2091,-3.2311,-3.2619,-3.2389,-3.1828,-3.1906,-3.169,-3.1127,-3.1066,-3.103,-3.1129,-3.0329,-2.9919,-2.9769,-2.9198,-2.8742,-2.8612,-2.8464,-2.8332,-2.8237,-2.8076,-2.7388,-2.5971,-2.5825,-2.5993,-2.6359,-2.6271,-2.6347,-2.6421,-2.6216,-2.6106,-2.5684,-2.5486,-2.5221,-2.4957,-2.4681,-2.4399,-2.421,-2.4094,-2.394,-2.3653,-2.342,-2.3289,-2.3275,-2.3157,-2.3082,-2.3082,-2.2992,-2.2947,-2.3052,-2.2962,-2.2886,-2.2781,-2.2721,-2.2615,-2.2661,-2.2706,-2.2615,-2.2615,-2.2706,-2.2706,-2.2706,-2.2692,-2.2706,-2.2752,-2.2737,-2.2646,-2.2646,-2.2577,-2.2406,-2.2075,-2.1701,-2.116,-2.0661,-2.0131,-1.9841,-1.9899,-1.9906,-1.9807,-1.9863,-1.9919,-1.9975,-2.0025,-2.0061,-2.0096,-2.0131,-2.0115,-2.015,-2.02,-2.02,-2.0235,-2.7753,-2.7713,-2.8372,-2.8682,-2.8805,-2.9387,-2.9716,-2.97,-2.9725,-2.9939,-3.0244,-3.0318,-3.0533,-3.0861,-3.1055,-3.1173,-3.1257,-3.1244,-3.1428,-3.1691,-3.18,-3.1946,-3.2144,-3.2284,-3.2473,-3.2692,-3.2838,-3.2809,-3.267,-3.2696,-3.2661,-3.2498,-3.2043,-3.1882,-3.1865,-3.112,-3.0511,-2.9955,-2.9675,-2.9243,-2.8634,-2.8458,-2.838,-2.83,-2.8191,-2.7814,-2.736,-2.7141,-2.7075,-2.7126,-2.6961,-2.6798,-2.6624,-2.6364,-2.6082,-2.5791,-2.5492,-2.5201,-2.4942,-2.4661,-2.44,-2.4151,-2.4013,-2.3842,-2.3538,-2.3245,-2.3069,-2.3127,-2.3037,-2.2947,-2.2947,-2.2872,-2.2826,-2.2886,-2.2841,-2.2749,-2.2675,-2.2629,-2.2615,-2.2615,-2.2615,-2.2615,-2.2615,-2.2615,-2.2569,-2.2615,-2.2615,-2.2569,-2.2615,-2.2569,-2.2615,-2.2615,-2.2586,-2.2526,-2.2241,-2.1941,-2.1571,-2.1119,-2.0582,-1.9973,-1.9945,-1.9886,-1.9811,-1.9705,-1.9777,-1.9848,-1.9919,-1.997,-1.9955,-1.999,-2.0025,-2.0061,-2.0096,-2.0131,-2.0166,-2.8707,-2.8551,-2.9297,-2.9601,-2.9633,-3.0236,-3.0443,-3.0443,-3.0526,-3.0609,-3.0692,-3.0773,-3.0912,-3.1055,-3.1173,-3.1312,-3.1487,-3.1726,-3.1856,-3.1982,-3.2036,-3.2126,-3.2301,-3.2491,-3.2626,-3.2773,-3.2852,-3.2948,-3.306,-3.3104,-3.3147,-3.3196,-3.2857,-3.2632,-3.2635,-3.1928,-3.122,-3.0749,-3.0124,-2.9528,-2.8971,-2.8568,-2.8345,-2.8219,-2.8109,-2.8042,-2.7957,-2.7748,-2.76,-2.7465,-2.7313,-2.6976,-2.6605,-2.6345,-2.6043,-2.5754,-2.5454,-2.5123,-2.4822,-2.4636,-2.4374,-2.4067,-2.3927,-2.3756,-2.3436,-2.3069,-2.2951,-2.3008,-2.2933,-2.2902,-2.2872,-2.2841,-2.2735,-2.2644,-2.2629,-2.2583,-2.2477,-2.2463,-2.2463,-2.2431,-2.2477,-2.2463,-2.2463,-2.2477,-2.2477,-2.2477,-2.2463,-2.2463,-2.2463,-2.2431,-2.2463,-2.2463,-2.2417,-2.2402,-2.2388,-2.2207,-2.1951,-2.1571,-2.1178,-2.0531,-2.0143,-2.0076,-1.9975,-1.9642,-1.9596,-1.9596,-1.9683,-1.9792,-1.9827,-1.9863,-1.9919,-1.994,-1.9975,-2.0025,-2.0061,-2.9798,-2.9288,-3.0054,-3.0351,-3.0351,-3.0468,-3.0526,-3.051,-3.0651,-3.0749,-3.0773,-3.0935,-3.1072,-3.1173,-3.1312,-3.1504,-3.1746,-3.1819,-3.2054,-3.2284,-3.2354,-3.2405,-3.2457,-3.2659,-3.2773,-3.2805,-3.2902,-3.2979,-3.3104,-3.3135,-3.3208,-3.3364,-3.3339,-3.3375,-3.3158,-3.2596,-3.218,-3.1799,-3.0658,-2.9945,-2.9656,-2.8874,-2.8371,-2.8251,-2.8078,-2.7968,-2.7871,-2.7665,-2.7496,-2.7452,-2.7206,-2.6894,-2.6553,-2.6305,-2.6003,-2.5701,-2.5432,-2.5139,-2.4822,-2.458,-2.4333,-2.4024,-2.3754,-2.3508,-2.3304,-2.3098,-2.2891,-2.2918,-2.2888,-2.2872,-2.2841,-2.2749,-2.2644,-2.2417,-2.2431,-2.2324,-2.2217,-2.2217,-2.2217,-2.2217,-2.217,-2.217,-2.2231,-2.2184,-2.2184,-2.2184,-2.217,-2.217,-2.2184,-2.2184,-2.217,-2.217,-2.2184,-2.2231,-2.2217,-2.2267,-2.2073,-2.192,-2.1584,-2.1168,-2.0469,-2.0308,-2.0088,-1.9721,-1.9516,-1.9502,-1.9479,-1.9589,-1.9647,-1.9669,-1.9726,-1.9782,-1.9854,-1.9904,-1.9955,-3.0311,-3.0187,-3.0385,-3.0485,-3.0485,-3.0609,-3.0667,-3.0667,-3.079,-3.0855,-3.0935,-3.1072,-3.119,-3.1329,-3.1559,-3.1726,-3.1837,-3.2001,-3.2196,-3.2388,-3.2507,-3.259,-3.2674,-3.274,-3.2838,-3.2902,-3.2965,-3.3011,-3.3117,-3.3214,-3.3292,-3.3393,-3.3393,-3.3393,-3.3321,-3.3158,-3.273,-3.2184,-3.1787,-3.1042,-3.0353,-2.9589,-2.914,-2.8945,-2.8362,-2.7993,-2.7888,-2.7604,-2.731,-2.7137,-2.7024,-2.6809,-2.6485,-2.6203,-2.5917,-2.5642,-2.5432,-2.51,-2.4726,-2.4482,-2.4234,-2.4024,-2.3653,-2.3421,-2.3304,-2.3054,-2.292,-2.2873,-2.2888,-2.2857,-2.2795,-2.2689,-2.2537,-2.2324,-2.2278,-2.2231,-2.2231,-2.217,-2.217,-2.217,-2.2166,-2.2119,-2.2058,-2.201,-2.1963,-2.1949,-2.1935,-2.1935,-2.1949,-2.1935,-2.1983,-2.1983,-2.1996,-2.2044,-2.2091,-2.217,-2.2175,-2.2193,-2.2016,-2.1867,-2.114,-2.0587,-2.0262,-1.988,-1.9724,-1.9689,-1.953,-1.9509,-1.9501,-1.9605,-1.9523,-1.9596,-1.9654,-1.9705,-1.9777,-3.0651,-3.0675,-3.0651,-3.0667,-3.0692,-3.0733,-3.079,-3.0831,-3.0912,-3.0952,-3.1015,-3.1157,-3.1274,-3.1389,-3.1671,-3.1837,-3.1946,-3.2161,-3.2336,-3.2489,-3.2639,-3.2755,-3.2838,-3.2838,-3.287,-3.2948,-3.2997,-3.3091,-3.3165,-3.3262,-3.3322,-3.3393,-3.3393,-3.3382,-3.3352,-3.3334,-3.3123,-3.2547,-3.2193,-3.1667,-3.1148,-3.0337,-2.9661,-2.9278,-2.8676,-2.8259,-2.7812,-2.7465,-2.7215,-2.7007,-2.6859,-2.6708,-2.6434,-2.6099,-2.5811,-2.553,-2.5355,-2.5029,-2.467,-2.4385,-2.4177,-2.3967,-2.361,-2.3377,-2.326,-2.3068,-2.2889,-2.2873,-2.2888,-2.2857,-2.2721,-2.2523,-2.237,-2.2217,-2.217,-2.217,-2.217,-2.2123,-2.2123,-2.2091,-2.2072,-2.1991,-2.1902,-2.1868,-2.1855,-2.1807,-2.1841,-2.1855,-2.1868,-2.1807,-2.1793,-2.1793,-2.1855,-2.1902,-2.1902,-2.1996,-2.203,-2.2077,-2.2128,-2.2038,-2.1623,-2.0897,-2.0579,-2.0232,-2.0049,-1.9895,-1.9846,-1.9753,-1.9733,-1.9719,-1.9522,-1.9487,-1.959,-1.9657,-1.9715,-3.0912,-3.0918,-3.0912,-3.0912,-3.0912,-3.0912,-3.0912,-3.0912,-3.0975,-3.1055,-3.1095,-3.1235,-3.1406,-3.1538,-3.1746,-3.1929,-3.2126,-3.2301,-3.2473,-3.2623,-3.2787,-3.2955,-3.3166,-3.2987,-3.2965,-3.2997,-3.3028,-3.3122,-3.3262,-3.3292,-3.3322,-3.3364,-3.3364,-3.3334,-3.3274,-3.3244,-3.3214,-3.2924,-3.2409,-3.2092,-3.1762,-3.1034,-3.0272,-2.9703,-2.9052,-2.8403,-2.7718,-2.7324,-2.7135,-2.6975,-2.6776,-2.6571,-2.6295,-2.5994,-2.5701,-2.5454,-2.5224,-2.4974,-2.4614,-2.4287,-2.4078,-2.3925,-2.3581,-2.3319,-2.3216,-2.3053,-2.2873,-2.2888,-2.2888,-2.2797,-2.2615,-2.237,-2.2217,-2.217,-2.217,-2.217,-2.2123,-2.2077,-2.1996,-2.1996,-2.1855,-2.1793,-2.1793,-2.1759,-2.1759,-2.1664,-2.165,-2.1664,-2.1712,-2.1664,-2.1636,-2.1623,-2.1684,-2.1759,-2.1807,-2.1807,-2.1855,-2.1902,-2.1935,-2.1923,-2.1756,-2.1267,-2.0941,-2.0669,-2.0479,-2.0393,-2.045,-2.0333,-2.0168,-2.0049,-1.9986,-1.9797,-1.9662,-1.9706,-1.9744,-3.0912,-3.0912,-3.0912,-3.0912,-3.0912,-3.0935,-3.0975,-3.0975,-3.1095,-3.1173,-3.1274,-3.1368,-3.1576,-3.1726,-3.1946,-3.209,-3.2196,-3.2387,-3.2574,-3.2773,-3.2852,-3.3341,-3.3623,-3.3373,-3.3069,-3.3149,-3.3188,-3.328,-3.3328,-3.3388,-3.3352,-3.3322,-3.3322,-3.3262,-3.3165,-3.3135,-3.3104,-3.3006,-3.2796,-3.2657,-3.2451,-3.1805,-3.1164,-3.0716,-2.9572,-2.8434,-2.7652,-2.7261,-2.7087,-2.6909,-2.6725,-2.652,-2.626,-2.601,-2.5717,-2.5416,-2.5169,-2.4934,-2.4614,-2.4287,-2.4078,-2.3982,-2.3581,-2.326,-2.3275,-2.3068,-2.2888,-2.2888,-2.2888,-2.2812,-2.2615,-2.237,-2.2231,-2.217,-2.2137,-2.2044,-2.203,-2.2044,-2.1949,-2.1855,-2.1773,-2.1739,-2.1664,-2.1568,-2.152,-2.152,-2.152,-2.152,-2.152,-2.1533,-2.1506,-2.1479,-2.1541,-2.1616,-2.165,-2.1664,-2.1712,-2.1759,-2.1807,-2.1874,-2.1699,-2.1566,-2.129,-2.1053,-2.0884,-2.0898,-2.0998,-2.0769,-2.0567,-2.0495,-2.045,-2.0327,-2.0175,-2.0016,-1.9895,-3.1095,-3.1078,-3.1072,-3.1032,-3.1032,-3.1055,-3.1112,-3.1095,-3.1196,-3.1274,-3.1334,-3.1483,-3.1634,-3.1837,-3.2018,-3.2161,-3.2336,-3.2541,-3.2707,-3.2944,-3.3223,-3.3734,-3.4189,-3.4225,-3.4185,-3.4213,-3.397,-3.3888,-3.384,-3.3551,-3.3322,-3.3292,-3.3214,-3.3152,-3.3073,-3.3055,-3.2993,-3.2979,-3.2948,-3.2934,-3.2763,-3.2382,-3.1738,-3.1132,-2.9726,-2.8499,-2.8105,-2.7371,-2.7074,-2.6893,-2.6691,-2.6434,-2.6206,-2.599,-2.5733,-2.5394,-2.5146,-2.491,-2.463,-2.4261,-2.4009,-2.3982,-2.3581,-2.3363,-2.3231,-2.3068,-2.2888,-2.2888,-2.2857,-2.2766,-2.2523,-2.2324,-2.2231,-2.217,-2.2105,-2.1996,-2.1902,-2.1855,-2.1807,-2.1712,-2.1616,-2.1568,-2.1471,-2.1375,-2.1326,-2.1326,-2.1229,-2.1242,-2.1318,-2.1318,-2.1277,-2.1264,-2.1375,-2.1423,-2.1506,-2.1568,-2.163,-2.1678,-2.1725,-2.1746,-2.1688,-2.1676,-2.1615,-2.144,-2.1318,-2.1504,-2.1561,-2.1295,-2.0983,-2.0955,-2.0898,-2.0869,-2.0752,-2.045,-2.0361,-3.1295,-3.1295,-3.1252,-3.119,-3.119,-3.119,-3.119,-3.119,-3.1274,-3.1312,-3.1351,-3.1542,-3.1691,-3.1856,-3.2001,-3.2232,-3.2457,-3.2659,-3.2805,-3.2973,-3.3651,-3.4145,-3.4551,-3.5187,-3.572,-3.5923,-3.5128,-3.478,-3.4527,-3.3954,-3.3653,-3.346,-3.3152,-3.3073,-3.2979,-3.2979,-3.2948,-3.2916,-3.2902,-3.287,-3.2791,-3.2568,-3.2064,-3.1072,-2.9854,-2.8853,-2.8375,-2.7631,-2.6942,-2.6859,-2.6623,-2.6329,-2.6079,-2.5917,-2.5712,-2.5333,-2.5123,-2.4886,-2.4589,-2.4261,-2.3982,-2.3997,-2.3581,-2.3319,-2.3231,-2.3068,-2.2933,-2.2843,-2.2812,-2.2689,-2.2431,-2.2461,-2.2381,-2.232,-2.2211,-2.2041,-2.1917,-2.1732,-2.1554,-2.1506,-2.1423,-2.1375,-2.1326,-2.1229,-2.118,-2.1144,-2.1046,-2.101,-2.1086,-2.1099,-2.1109,-2.1131,-2.118,-2.1229,-2.1264,-2.1375,-2.1485,-2.1547,-2.1595,-2.1616,-2.1636,-2.1635,-2.168,-2.1857,-2.1848,-2.1955,-2.1917,-2.1668,-2.1443,-2.1403,-2.1421,-2.141,-2.1212,-2.0898,-2.0869,-3.1406,-3.1295,-3.1295,-3.1235,-3.119,-3.119,-3.119,-3.123,-3.1274,-3.1368,-3.1462,-3.1559,-3.1765,-3.2001,-3.2073,-3.2284,-3.2523,-3.274,-3.2838,-3.3045,-3.3776,-3.4467,-3.516,-3.6034,-3.68,-3.7063,-3.6338,-3.5666,-3.5408,-3.4767,-3.4258,-3.4015,-3.3418,-3.3069,-3.3037,-3.2916,-3.2916,-3.2884,-3.287,-3.2805,-3.274,-3.2555,-3.2122,-3.1217,-3.0173,-2.931,-2.8435,-2.7585,-2.6876,-2.6674,-2.6554,-2.6293,-2.6007,-2.5934,-2.5696,-2.5371,-2.5139,-2.4886,-2.4589,-2.4219,-2.4024,-2.3897,-2.3581,-2.3319,-2.3231,-2.3068,-2.2888,-2.2857,-2.2735,-2.2612,-2.2431,-2.2743,-2.2881,-2.2825,-2.2665,-2.2553,-2.2322,-2.1907,-2.1426,-2.1412,-2.1323,-2.1229,-2.1144,-2.1082,-2.0983,-2.0934,-2.0835,-2.0835,-2.0848,-2.0911,-2.0961,-2.0983,-2.1033,-2.1033,-2.1033,-2.118,-2.1291,-2.1367,-2.1415,-2.1375,-2.1458,-2.1554,-2.165,-2.1759,-2.1855,-2.1894,-2.1857,-2.1834,-2.1839,-2.1717,-2.1823,-2.1897,-2.1674,-2.1435,-2.1366,-3.1576,-3.1449,-3.1445,-3.1329,-3.1252,-3.1252,-3.1235,-3.1291,-3.1368,-3.1445,-3.1559,-3.1691,-3.1875,-3.2073,-3.2144,-3.2301,-3.2573,-3.274,-3.2838,-3.3098,-3.4079,-3.488,-3.5538,-3.6574,-3.7361,-3.7646,-3.7192,-3.6612,-3.6266,-3.5379,-3.4972,-3.4673,-3.3999,-3.3559,-3.3401,-3.313,-3.2955,-3.2888,-3.2823,-3.274,-3.2659,-3.2439,-3.2039,-3.1585,-3.075,-2.9885,-2.8989,-2.8015,-2.7233,-2.6707,-2.645,-2.6187,-2.599,-2.5807,-2.5659,-2.5371,-2.5123,-2.491,-2.463,-2.4261,-2.4051,-2.3925,-2.3538,-2.3319,-2.3231,-2.3068,-2.2857,-2.2824,-2.3048,-2.2994,-2.2847,-2.3273,-2.3497,-2.3403,-2.3239,-2.3073,-2.2814,-2.2393,-2.1958,-2.1486,-2.1246,-2.1139,-2.1046,-2.0934,-2.0835,-2.0723,-2.0686,-2.0636,-2.0636,-2.0686,-2.0749,-2.0785,-2.0822,-2.0885,-2.0885,-2.0934,-2.1082,-2.1171,-2.122,-2.1229,-2.1215,-2.1313,-2.1361,-2.1423,-2.1568,-2.1759,-2.1827,-2.1805,-2.1908,-2.1996,-2.1946,-2.1955,-2.203,-2.2006,-2.184,-3.1746,-3.1617,-3.1576,-3.1445,-3.1295,-3.1312,-3.1295,-3.1351,-3.1423,-3.1538,-3.1617,-3.1802,-3.1965,-3.2108,-3.2214,-3.2387,-3.2606,-3.274,-3.2838,-3.3119,-3.4187,-3.5023,-3.5717,-3.6646,-3.7542,-3.7774,-3.7738,-3.7557,-3.6978,-3.6121,-3.5697,-3.5377,-3.4755,-3.4329,-3.4187,-3.3565,-3.3176,-3.3001,-3.2793,-3.2641,-3.2456,-3.2284,-3.2179,-3.2074,-3.1254,-3.0387,-2.9661,-2.8459,-2.7605,-2.6958,-2.6462,-2.6132,-2.5934,-2.577,-2.5584,-2.5333,-2.5146,-2.4895,-2.4614,-2.4261,-2.4051,-2.3982,-2.3538,-2.3363,-2.3231,-2.3082,-2.2869,-2.289,-2.3112,-2.3459,-2.342,-2.392,-2.4077,-2.3993,-2.3861,-2.3678,-2.335,-2.2963,-2.2431,-2.1928,-2.1387,-2.1046,-2.0904,-2.0699,-2.0536,-2.0536,-2.0435,-2.0422,-2.0372,-2.0372,-2.0435,-2.0523,-2.0623,-2.0723,-2.0736,-2.0736,-2.0835,-2.0947,-2.0997,-2.1019,-2.1019,-2.1068,-2.1118,-2.1229,-2.1423,-2.1568,-2.1664,-2.1746,-2.1779,-2.1827,-2.1888,-2.1935,-2.1941,-2.1988,-2.1923,-3.1839,-3.1763,-3.1634,-3.1466,-3.1334,-3.1312,-3.1312,-3.1351,-3.1462,-3.1538,-3.1617,-3.1746,-3.1929,-3.2108,-3.2353,-3.2473,-3.2574,-3.2674,-3.2773,-3.2965,-3.3817,-3.4599,-3.5273,-3.6218,-3.7094,-3.7506,-3.7667,-3.7774,-3.7468,-3.6771,-3.6467,-3.6254,-3.5577,-3.5096,-3.4973,-3.4244,-3.3821,-3.361,-3.2944,-3.2439,-3.2284,-3.2214,-3.2091,-3.1793,-3.1216,-3.0573,-3.0033,-2.8846,-2.7855,-2.7391,-2.6626,-2.6145,-2.5881,-2.5712,-2.5524,-2.5333,-2.5123,-2.4886,-2.4589,-2.4261,-2.4024,-2.394,-2.3581,-2.3363,-2.3201,-2.3125,-2.31,-2.3416,-2.3555,-2.3757,-2.4055,-2.4502,-2.4626,-2.4565,-2.4445,-2.4231,-2.3879,-2.3594,-2.3057,-2.235,-2.1864,-2.1185,-2.0732,-2.0488,-2.0233,-2.0233,-2.0233,-2.0182,-2.0169,-2.0118,-2.0182,-2.0271,-2.0372,-2.0472,-2.0523,-2.0536,-2.0586,-2.0686,-2.0723,-2.0759,-2.0809,-2.0822,-2.097,-2.1068,-2.1229,-2.1375,-2.1471,-2.1541,-2.1561,-2.167,-2.1746,-2.1793,-2.1841,-2.1888,-2.1949,-3.2037,-3.1839,-3.1802,-3.1637,-3.1449,-3.1445,-3.1445,-3.1466,-3.15,-3.1576,-3.1709,-3.1802,-3.1965,-3.2179,-3.2371,-3.2491,-3.2507,-3.2608,-3.2657,-3.2831,-3.3486,-3.4088,-3.4707,-3.574,-3.6684,-3.7006,-3.7399,-3.7649,-3.756,-3.7435,-3.7167,-3.7024,-3.6345,-3.5847,-3.574,-3.4977,-3.4321,-3.3687,-3.2879,-3.2336,-3.2196,-3.2108,-3.1948,-3.1856,-3.1401,-3.0891,-3.0194,-2.9583,-2.8404,-2.7734,-2.6899,-2.6418,-2.5959,-2.5659,-2.5432,-2.5294,-2.5005,-2.4806,-2.4589,-2.4245,-2.4094,-2.3897,-2.3581,-2.3231,-2.3156,-2.3252,-2.3313,-2.3488,-2.4148,-2.4467,-2.4638,-2.5082,-2.5173,-2.5121,-2.4929,-2.4613,-2.4363,-2.4129,-2.3678,-2.3031,-2.2295,-2.1635,-2.0925,-2.0501,-2.0219,-2.0029,-1.9978,-1.9875,-1.9862,-1.9914,-1.9978,-2.0093,-2.0182,-2.0271,-2.0271,-2.0321,-2.0334,-2.0385,-2.0385,-2.0472,-2.0523,-2.0573,-2.0723,-2.0822,-2.097,-2.1118,-2.1264,-2.1361,-2.1444,-2.1541,-2.1602,-2.165,-2.1698,-2.1793,-2.1841,-3.2249,-3.1948,-3.1894,-3.1785,-3.1617,-3.1538,-3.1538,-3.1579,-3.1538,-3.1631,-3.18,-3.1858,-3.2002,-3.2179,-3.2284,-3.2387,-3.2473,-3.2507,-3.2523,-3.282,-3.3155,-3.3612,-3.4267,-3.5314,-3.6096,-3.6328,-3.7183,-3.7468,-3.7521,-3.7468,-3.7432,-3.7522,-3.6934,-3.6612,-3.6363,-3.5705,-3.4836,-3.36,-3.2896,-3.2405,-3.2143,-3.1948,-3.1856,-3.1746,-3.1528,-3.1151,-3.0484,-2.9905,-2.8996,-2.8272,-2.7283,-2.6667,-2.6248,-2.5691,-2.5388,-2.5217,-2.4966,-2.471,-2.4549,-2.4287,-2.4094,-2.3897,-2.3596,-2.3187,-2.3051,-2.336,-2.3784,-2.3769,-2.454,-2.4996,-2.5314,-2.5532,-2.5466,-2.537,-2.5273,-2.4991,-2.4708,-2.4406,-2.4059,-2.3397,-2.2737,-2.2196,-2.1475,-2.0759,-2.0315,-1.9924,-1.972,-1.9565,-1.9629,-1.9681,-1.9758,-1.9886,-1.9899,-1.9989,-1.9964,-2.0003,-2.0054,-2.0118,-2.0118,-2.0182,-2.0283,-2.0372,-2.0472,-2.0623,-2.0723,-2.0822,-2.097,-2.1118,-2.1313,-2.1361,-2.1423,-2.1471,-2.1568,-2.165,-2.1746,-3.2404,-3.2073,-3.1948,-3.1802,-3.1579,-3.1538,-3.1538,-3.1579,-3.1538,-3.1631,-3.1783,-3.1858,-3.1966,-3.2091,-3.2162,-3.2283,-3.2388,-3.2456,-3.2456,-3.2507,-3.2696,-3.3103,-3.3809,-3.4606,-3.5509,-3.6094,-3.6929,-3.7337,-3.7334,-3.7372,-3.7354,-3.7339,-3.7198,-3.723,-3.6889,-3.616,-3.5078,-3.3965,-3.3225,-3.2628,-3.2191,-3.1891,-3.1726,-3.1596,-3.1368,-3.114,-3.1055,-3.0224,-2.9526,-2.8969,-2.7948,-2.7005,-2.658,-2.5889,-2.5525,-2.5233,-2.4886,-2.467,-2.4492,-2.4261,-2.4067,-2.3839,-2.3581,-2.3187,-2.2976,-2.3403,-2.3856,-2.4283,-2.4901,-2.5406,-2.5598,-2.5756,-2.5633,-2.5467,-2.53,-2.4948,-2.4721,-2.4607,-2.42,-2.3683,-2.3122,-2.254,-2.1983,-2.1269,-2.0466,-2.0104,-1.9589,-1.942,-1.9482,-1.9559,-1.9584,-1.9608,-1.9621,-1.9661,-1.9636,-1.9738,-2.0095,-2.0072,-2.0037,-2.0079,-2.0131,-2.022,-2.022,-2.0321,-2.0485,-2.0573,-2.0673,-2.0822,-2.1033,-2.1131,-2.1229,-2.1326,-2.1423,-2.152,-2.1616,-3.2386,-3.2108,-3.2037,-3.1912,-3.1709,-3.1593,-3.1538,-3.1596,-3.1538,-3.1614,-3.18,-3.1894,-3.1913,-3.2002,-3.2091,-3.2162,-3.2232,-3.2232,-3.2249,-3.2284,-3.2389,-3.2581,-3.3266,-3.4164,-3.5119,-3.5632,-3.6589,-3.7297,-3.7297,-3.7259,-3.722,-3.7203,-3.7241,-3.7223,-3.6917,-3.6341,-3.5416,-3.4638,-3.3651,-3.2827,-3.2545,-3.186,-3.1538,-3.1346,-3.1308,-3.1072,-3.0845,-3.0425,-2.988,-2.9329,-2.8567,-2.7793,-2.6942,-2.6237,-2.5734,-2.5352,-2.4894,-2.463,-2.4549,-2.4219,-2.3897,-2.3581,-2.3363,-2.3201,-2.3064,-2.3659,-2.4075,-2.459,-2.5147,-2.568,-2.5781,-2.5688,-2.555,-2.5425,-2.5244,-2.4948,-2.4721,-2.462,-2.4261,-2.3702,-2.3352,-2.2946,-2.241,-2.1807,-2.0971,-2.0212,-1.9699,-1.9324,-1.9482,-1.9617,-1.9714,-1.9878,-1.9927,-1.997,-1.997,-2.0116,-2.0207,-2.0089,-2.0011,-2.0057,-2.0101,-1.9926,-1.9965,-2.008,-2.0182,-2.0271,-2.0422,-2.0586,-2.0749,-2.0983,-2.1082,-2.1131,-2.1229,-2.1375,-2.1491,-3.2404,-3.2108,-3.2108,-3.1965,-3.18,-3.1593,-3.1521,-3.1579,-3.1483,-3.1559,-3.1746,-3.1821,-3.1894,-3.193,-3.1985,-3.2091,-3.2108,-3.2126,-3.2108,-3.2144,-3.2196,-3.2232,-3.2827,-3.3704,-3.4777,-3.5168,-3.6242,-3.7105,-3.7066,-3.7122,-3.7044,-3.6987,-3.7027,-3.7009,-3.6865,-3.6339,-3.5779,-3.5104,-3.438,-3.3119,-3.284,-3.2149,-3.1538,-3.1275,-3.1112,-3.0952,-3.0733,-3.0452,-3.0179,-2.965,-2.9099,-2.8412,-2.7543,-2.6687,-2.6078,-2.5552,-2.5012,-2.4645,-2.4508,-2.4219,-2.3797,-2.3451,-2.3319,-2.3245,-2.338,-2.3923,-2.4369,-2.4739,-2.5449,-2.5893,-2.5893,-2.5702,-2.5564,-2.5439,-2.5188,-2.4892,-2.4721,-2.4563,-2.4157,-2.3708,-2.3441,-2.3246,-2.2618,-2.2012,-2.1259,-2.058,-2.0244,-1.9903,-1.9927,-2.0091,-2.0176,-2.0285,-2.0451,-2.0504,-2.0613,-2.056,-2.055,-2.0465,-2.0324,-2.0187,-2.0122,-2.0005,-1.9795,-1.9772,-1.9875,-2.0016,-2.0169,-2.0283,-2.0536,-2.0835,-2.0934,-2.1033,-2.1082,-2.1207,-2.148,-3.2369,-3.2108,-3.2108,-3.1982,-3.18,-3.1576,-3.1538,-3.1542,-3.1428,-3.1428,-3.1617,-3.1728,-3.1819,-3.1875,-3.1877,-3.1984,-3.2037,-3.2073,-3.2073,-3.2037,-3.2073,-3.2126,-3.2613,-3.3452,-3.4344,-3.4774,-3.5789,-3.6614,-3.6766,-3.6823,-3.6783,-3.6684,-3.6667,-3.6708,-3.6702,-3.6585,-3.6046,-3.5301,-3.4971,-3.3997,-3.314,-3.253,-3.2009,-3.1392,-3.1096,-3.0966,-3.0626,-3.0485,-3.0201,-2.9959,-2.9424,-2.8832,-2.8291,-2.7153,-2.647,-2.6036,-2.5168,-2.4723,-2.4549,-2.4177,-2.3754,-2.3407,-2.3275,-2.3362,-2.3652,-2.4104,-2.4619,-2.4944,-2.5579,-2.5851,-2.5798,-2.5688,-2.555,-2.5439,-2.5188,-2.4948,-2.4734,-2.462,-2.4216,-2.3865,-2.3628,-2.3399,-2.2817,-2.2211,-2.1508,-2.0991,-2.067,-2.0526,-2.0406,-2.0559,-2.0632,-2.0822,-2.0955,-2.11,-2.1148,-2.0989,-2.09,-2.0827,-2.0706,-2.0587,-2.041,-2.0268,-2.0027,-1.9658,-1.9728,-1.9985,-2.004,-2.0016,-2.0271,-2.0536,-2.0835,-2.0934,-2.0997,-2.1179,-2.1546,-3.1665,-3.1359,-3.1864,-3.1965,-3.1783,-3.1576,-3.15,-3.1483,-3.1406,-3.1389,-3.1504,-3.1637,-3.1694,-3.1711,-3.1802,-3.1856,-3.1893,-3.1893,-3.1893,-3.191,-3.1912,-3.193,-3.2348,-3.3008,-3.39,-3.4544,-3.5466,-3.6261,-3.6702,-3.6661,-3.6544,-3.6444,-3.6335,-3.6318,-3.6377,-3.6318,-3.6061,-3.5659,-3.5121,-3.4415,-3.3812,-3.3195,-3.2479,-3.1649,-3.1416,-3.1116,-3.0576,-3.0375,-3.0189,-3.0076,-2.9556,-2.9189,-2.8737,-2.7694,-2.7111,-2.6398,-2.5472,-2.4973,-2.443,-2.3882,-2.3625,-2.3451,-2.3378,-2.3463,-2.3692,-2.4118,-2.4647,-2.5133,-2.5664,-2.5837,-2.5839,-2.5647,-2.5508,-2.5439,-2.5244,-2.4962,-2.4791,-2.4677,-2.439,-2.4041,-2.3819,-2.333,-2.2809,-2.2506,-2.1885,-2.1415,-2.1151,-2.0863,-2.0694,-2.0959,-2.1198,-2.1355,-2.15,-2.1669,-2.1693,-2.1464,-2.1259,-2.1162,-2.1078,-2.0991,-2.0807,-2.0653,-2.0367,-2.0067,-2.0027,-2.0011,-2.0055,-2.01,-2.008,-2.0271,-2.068,-2.1026,-2.1169,-2.1519,-2.1925,-3.0841,-3.0628,-3.1342,-3.1566,-3.1472,-3.1473,-3.1479,-3.1385,-3.1312,-3.1351,-3.1445,-3.1528,-3.1582,-3.1579,-3.1651,-3.1706,-3.1688,-3.1688,-3.1688,-3.1688,-3.1746,-3.1728,-3.2007,-3.2599,-3.3408,-3.4194,-3.4955,-3.5676,-3.6402,-3.6437,-3.636,-3.6191,-3.6019,-3.5975,-3.6062,-3.6062,-3.6019,-3.5701,-3.5246,-3.482,-3.43,-3.3671,-3.2887,-3.21,-3.1589,-3.1305,-3.0632,-3.0248,-3.0103,-2.993,-2.9733,-2.9472,-2.8954,-2.8391,-2.7771,-2.6887,-2.608,-2.5589,-2.4935,-2.458,-2.4388,-2.4117,-2.3776,-2.371,-2.3961,-2.4519,-2.4981,-2.5406,-2.5737,-2.5877,-2.5853,-2.5647,-2.5494,-2.5439,-2.5244,-2.4948,-2.4848,-2.4677,-2.4505,-2.4171,-2.3819,-2.333,-2.2921,-2.2665,-2.2335,-2.1995,-2.1669,-2.132,-2.1079,-2.1356,-2.1596,-2.1716,-2.1825,-2.1909,-2.1993,-2.1993,-2.1801,-2.1511,-2.1452,-2.1464,-2.121,-2.0967,-2.0698,-2.0451,-2.0416,-2.0312,-2.0182,-2.0184,-2.0398,-2.057,-2.0883,-2.1144,-2.1328,-2.1747,-2.2168,-3.0064,-2.988,-3.0542,-3.0786,-3.0729,-3.1165,-3.1317,-3.123,-3.1291,-3.1312,-3.1295,-3.1445,-3.15,-3.1517,-3.1517,-3.1517,-3.1555,-3.15,-3.1555,-3.1555,-3.1576,-3.1538,-3.1743,-3.2205,-3.2985,-3.375,-3.4487,-3.5187,-3.5899,-3.6079,-3.6062,-3.5975,-3.5861,-3.5773,-3.5756,-3.5756,-3.5756,-3.5554,-3.5442,-3.4987,-3.4533,-3.4163,-3.3356,-3.2552,-3.1901,-3.1341,-3.0718,-3.0244,-3.0049,-2.9902,-2.9754,-2.9621,-2.9278,-2.8729,-2.8297,-2.7651,-2.6746,-2.6122,-2.5728,-2.5378,-2.5176,-2.4779,-2.4491,-2.4351,-2.4468,-2.4889,-2.5284,-2.5579,-2.5851,-2.5865,-2.5907,-2.5702,-2.5508,-2.5383,-2.5188,-2.5005,-2.4835,-2.4677,-2.4505,-2.4216,-2.3806,-2.345,-2.303,-2.2787,-2.2555,-2.2274,-2.1982,-2.1909,-2.1716,-2.1789,-2.1981,-2.1993,-2.2089,-2.2137,-2.2197,-2.2197,-2.2137,-2.1824,-2.1884,-2.1849,-2.1596,-2.1356,-2.115,-2.0955,-2.0807,-2.0657,-2.0514,-2.0594,-2.0865,-2.1045,-2.1154,-2.1475,-2.1758,-2.1928,-2.2337,-2.9242,-2.9045,-2.9793,-2.9989,-2.985,-3.0336,-3.0798,-3.1196,-3.123,-3.123,-3.1213,-3.1329,-3.1368,-3.1368,-3.1479,-3.1462,-3.15,-3.15,-3.15,-3.1462,-3.1462,-3.1462,-3.1564,-3.182,-3.261,-3.3379,-3.4079,-3.4703,-3.5702,-3.5871,-3.58,-3.5711,-3.5639,-3.552,-3.5475,-3.5458,-3.5412,-3.5412,-3.535,-3.5107,-3.4898,-3.4688,-3.3898,-3.3148,-3.2413,-3.1752,-3.0936,-3.0321,-3.006,-2.9786,-2.9653,-2.9518,-2.9303,-2.893,-2.8466,-2.7535,-2.6688,-2.5955,-2.574,-2.5473,-2.5357,-2.5341,-2.513,-2.5178,-2.5206,-2.528,-2.5544,-2.5723,-2.5893,-2.5893,-2.5853,-2.5702,-2.5564,-2.5383,-2.5188,-2.5005,-2.4892,-2.4778,-2.4563,-2.4287,-2.3923,-2.3509,-2.315,-2.2848,-2.2678,-2.2482,-2.2309,-2.2247,-2.2197,-2.2197,-2.2197,-2.2197,-2.2197,-2.2197,-2.2197,-2.2197,-2.2197,-2.2161,-2.2173,-2.2161,-2.1993,-2.1777,-2.1632,-2.1404,-2.1174,-2.0943,-2.0767,-2.0958,-2.1272,-2.1231,-2.1317,-2.175,-2.2116,-2.2274,-2.2541,-2.8481,-2.8279,-2.901,-2.9331,-2.9385,-2.9634,-3.0034,-3.0417,-3.092,-3.119,-3.119,-3.1252,-3.1291,-3.1291,-3.1346,-3.1346,-3.1346,-3.1363,-3.1363,-3.1346,-3.1385,-3.1346,-3.1402,-3.147,-3.21,-3.2866,-3.3598,-3.4202,-3.5145,-3.5599,-3.5549,-3.5503,-3.5446,-3.5337,-3.5291,-3.5245,-3.5135,-3.5135,-3.5135,-3.5105,-3.5058,-3.493,-3.4341,-3.3639,-3.2984,-3.2177,-3.1193,-3.0514,-3.0093,-2.9672,-2.9473,-2.9321,-2.9167,-2.8858,-2.8575,-2.7748,-2.7202,-2.6768,-2.6527,-2.6204,-2.5933,-2.5712,-2.577,-2.5735,-2.5702,-2.5657,-2.5788,-2.5877,-2.5865,-2.5893,-2.5798,-2.5688,-2.5605,-2.5508,-2.5257,-2.5005,-2.4948,-2.4821,-2.4607,-2.439,-2.4041,-2.3628,-2.3271,-2.303,-2.2787,-2.2616,-2.2432,-2.2247,-2.2185,-2.2197,-2.2197,-2.2197,-2.2197,-2.2197,-2.2197,-2.2197,-2.2197,-2.2197,-2.2185,-2.2185,-2.2197,-2.2125,-2.1921,-2.1728,-2.1536,-2.1379,-2.1293,-2.139,-2.1595,-2.1557,-2.1663,-2.1999,-2.2359,-2.2564,-2.2845,-2.7813,-2.7583,-2.8195,-2.8627,-2.8972,-2.8968,-2.8982,-2.9096,-3.0311,-3.1038,-3.1038,-3.1157,-3.119,-3.123,-3.123,-3.123,-3.123,-3.123,-3.1269,-3.119,-3.123,-3.123,-3.119,-3.1258,-3.1732,-3.2341,-3.2925,-3.3601,-3.433,-3.4975,-3.5383,-3.5308,-3.5245,-3.5152,-3.5041,-3.4994,-3.4899,-3.4787,-3.4899,-3.4899,-3.4756,-3.4609,-3.4299,-3.3661,-3.3126,-3.2544,-3.1431,-3.0757,-3.033,-2.9731,-2.9291,-2.9137,-2.892,-2.8684,-2.8462,-2.8125,-2.7618,-2.7375,-2.708,-2.6842,-2.6688,-2.6538,-2.65,-2.6172,-2.5994,-2.5859,-2.5863,-2.5906,-2.5893,-2.5893,-2.5853,-2.5647,-2.5564,-2.5453,-2.5257,-2.5075,-2.4948,-2.4835,-2.4664,-2.439,-2.4112,-2.3747,-2.3437,-2.3138,-2.2909,-2.2726,-2.2494,-2.2309,-2.2247,-2.2185,-2.2197,-2.2197,-2.2197,-2.2197,-2.2197,-2.2197,-2.2197,-2.2197,-2.2197,-2.2197,-2.2197,-2.2197,-2.2197,-2.2005,-2.1837,-2.1981,-2.1969,-2.197,-2.1898,-2.2007,-2.2165,-2.2372,-2.2567,-2.2688,-2.2834,-2.7659,-2.7483,-2.7422,-2.7449,-2.7572,-2.7963,-2.8095,-2.818,-2.9076,-2.9837,-3.0378,-3.0886,-3.1157,-3.1089,-3.1173,-3.119,-3.119,-3.119,-3.119,-3.119,-3.119,-3.1112,-3.1072,-3.1089,-3.1453,-3.1916,-3.2446,-3.3033,-3.4013,-3.4755,-3.5211,-3.5118,-3.5024,-3.493,-3.4835,-3.4756,-3.4643,-3.4546,-3.4594,-3.4643,-3.4562,-3.4497,-3.4333,-3.3893,-3.347,-3.2935,-3.1935,-3.1101,-3.0576,-2.999,-2.9405,-2.9046,-2.8729,-2.8491,-2.8266,-2.794,-2.774,-2.7524,-2.7269,-2.7041,-2.6779,-2.6553,-2.6326,-2.6233,-2.6056,-2.6002,-2.5934,-2.5893,-2.5893,-2.5893,-2.5853,-2.5661,-2.5508,-2.5383,-2.5201,-2.5131,-2.5005,-2.4835,-2.4664,-2.4447,-2.4229,-2.3923,-2.3616,-2.3318,-2.3078,-2.2836,-2.2543,-2.2359,-2.2309,-2.2247,-2.2197,-2.2197,-2.2197,-2.2197,-2.2197,-2.2197,-2.2197,-2.2197,-2.2197,-2.2197,-2.2197,-2.2197,-2.2197,-2.2197,-2.2149,-2.2197,-2.2197,-2.2149,-2.2199,-2.2247,-2.2309,-2.2371,-2.2371,-2.2445,-2.2592,-2.763,-2.7448,-2.7137,-2.6975,-2.6994,-2.7233,-2.7317,-2.7469,-2.8146,-2.8687,-2.9245,-3.0142,-3.07,-3.0801,-3.1021,-3.1157,-3.1157,-3.1151,-3.1112,-3.1112,-3.1072,-3.1032,-3.0992,-3.0952,-3.112,-3.1474,-3.1884,-3.2543,-3.3517,-3.411,-3.4416,-3.4438,-3.4475,-3.4675,-3.4578,-3.4546,-3.4448,-3.4399,-3.4333,-3.43,-3.43,-3.425,-3.425,-3.3906,-3.3645,-3.3124,-3.2399,-3.1453,-3.0752,-3.0005,-2.9218,-2.8777,-2.8473,-2.8247,-2.7989,-2.7725,-2.7524,-2.7335,-2.7078,-2.687,-2.6606,-2.6379,-2.6218,-2.6125,-2.6002,-2.5948,-2.5948,-2.5893,-2.5893,-2.5893,-2.5853,-2.5702,-2.5564,-2.5453,-2.5201,-2.5018,-2.4948,-2.4835,-2.4778,-2.4664,-2.439,-2.4157,-2.3852,-2.3556,-2.3318,-2.2957,-2.2714,-2.2482,-2.242,-2.2309,-2.2247,-2.2197,-2.2197,-2.2197,-2.2197,-2.2197,-2.2197,-2.2197,-2.2197,-2.2197,-2.2197,-2.2197,-2.2197,-2.2197,-2.2197,-2.2197,-2.2197,-2.2197,-2.2197,-2.2185,-2.2197,-2.2197,-2.2247,-2.2247,-2.2371,-2.7582,-2.7404,-2.7137,-2.6959,-2.6893,-2.6759,-2.6725,-2.6843,-2.7402,-2.7689,-2.7891,-2.9158,-2.9732,-3.0154,-3.0683,-3.0881,-3.105,-3.0982,-3.0998,-3.0992,-3.0952,-3.0912,-3.0871,-3.0831,-3.0874,-3.1058,-3.1423,-3.1911,-3.2519,-3.3168,-3.3554,-3.3514,-3.3875,-3.435,-3.4415,-3.4399,-3.4284,-3.4151,-3.4101,-3.3984,-3.4,-3.4,-3.3949,-3.3848,-3.3697,-3.3272,-3.2565,-3.1652,-3.0809,-2.9935,-2.91,-2.8532,-2.8278,-2.8,-2.774,-2.7524,-2.7335,-2.7144,-2.6951,-2.6659,-2.6433,-2.6272,-2.6165,-2.6002,-2.5948,-2.5893,-2.5893,-2.5893,-2.5893,-2.5893,-2.5798,-2.5702,-2.555,-2.5453,-2.5201,-2.5005,-2.4948,-2.4892,-2.4835,-2.4791,-2.4549,-2.4319,-2.4028,-2.3806,-2.3509,-2.3198,-2.2896,-2.2665,-2.2482,-2.2309,-2.2197,-2.2197,-2.2197,-2.2197,-2.2197,-2.2197,-2.2197,-2.2197,-2.2197,-2.2197,-2.2197,-2.2197,-2.2197,-2.2197,-2.2197,-2.2197,-2.2197,-2.2197,-2.2197,-2.2197,-2.2197,-2.2197,-2.2197,-2.2185,-2.2197,-2.7386,-2.7152,-2.7057,-2.6959,-2.6876,-2.6742,-2.6708,-2.6725,-2.6826,-2.6911,-2.7164,-2.7737,-2.8443,-2.9063,-2.9825,-3.0123,-3.0202,-3.0516,-3.0845,-3.0912,-3.0797,-3.0773,-3.0749,-3.0609,-3.0485,-3.0648,-3.0985,-3.1358,-3.1609,-3.2249,-3.2859,-3.3221,-3.3145,-3.3583,-3.4102,-3.4034,-3.3915,-3.3864,-3.3813,-3.3761,-3.3745,-3.3761,-3.3745,-3.3642,-3.3487,-3.3319,-3.2803,-3.1605,-3.0885,-2.9991,-2.897,-2.8297,-2.7981,-2.7801,-2.7524,-2.7321,-2.7078,-2.6989,-2.6779,-2.65,-2.6272,-2.6165,-2.6056,-2.5948,-2.5893,-2.5893,-2.5893,-2.5839,-2.5839,-2.5839,-2.5798,-2.5647,-2.5508,-2.5369,-2.5188,-2.5061,-2.4948,-2.4948,-2.4892,-2.4835,-2.4677,-2.4376,-2.4157,-2.3865,-2.3569,-2.3271,-2.2969,-2.2739,-2.2616,-2.2432,-2.2197,-2.2197,-2.2197,-2.2197,-2.2197,-2.2197,-2.2197,-2.2197,-2.2197,-2.2197,-2.2197,-2.2197,-2.2197,-2.2197,-2.2197,-2.2197,-2.2197,-2.2197,-2.2197,-2.2197,-2.2197,-2.2197,-2.2197,-2.2197,-2.2197]}]]